<?xml version='1.0' encoding='UTF-8'?><gpx version="1.1" creator="JPX - https://github.com/jenetics/jpx" xmlns="http://www.topografix.com/GPX/1/1"><trk><trkseg><trkpt lat="44.4578346" lon="7.3741023"><ele>616.0</ele><time>2026-05-02T13:56:03.96Z</time></trkpt><trkpt lat="44.457802" lon="7.3741958"><ele>616.0</ele><time>2026-05-02T13:56:39.96Z</time></trkpt><trkpt lat="44.4577115" lon="7.3741958"><ele>616.0</ele><time>2026-05-02T13:56:42.96Z</time></trkpt><trkpt lat="44.4576253" lon="7.3742003"><ele>616.0</ele><time>2026-05-02T13:56:45.96Z</time></trkpt><trkpt lat="44.4575336" lon="7.37421"><ele>616.0</ele><time>2026-05-02T13:56:48.96Z</time></trkpt><trkpt lat="44.45744" lon="7.3742238"><ele>616.0</ele><time>2026-05-02T13:56:51.96Z</time></trkpt><trkpt lat="44.4573662" lon="7.3742334"><ele>616.0</ele><time>2026-05-02T13:56:53.915Z</time></trkpt><trkpt lat="44.4573" lon="7.3742423"><ele>616.0</ele><time>2026-05-02T13:56:55.96Z</time></trkpt><trkpt lat="44.4572301" lon="7.3742562"><ele>616.0</ele><time>2026-05-02T13:56:58.106Z</time></trkpt><trkpt lat="44.4571361" lon="7.3742694"><ele>616.0</ele><time>2026-05-02T13:57:00.695Z</time></trkpt><trkpt lat="44.4570492" lon="7.3742788"><ele>616.0</ele><time>2026-05-02T13:57:02.961Z</time></trkpt><trkpt lat="44.4569715" lon="7.374296"><ele>616.0</ele><time>2026-05-02T13:57:04.96Z</time></trkpt><trkpt lat="44.4568919" lon="7.3743082"><ele>616.8333333333334</ele><time>2026-05-02T13:57:06.96Z</time></trkpt><trkpt lat="44.4568156" lon="7.374308"><ele>617.6666666666667</ele><time>2026-05-02T13:57:08.955Z</time></trkpt><trkpt lat="44.4567405" lon="7.3743058"><ele>618.5</ele><time>2026-05-02T13:57:10.96Z</time></trkpt><trkpt lat="44.4566679" lon="7.374321"><ele>619.3333333333334</ele><time>2026-05-02T13:57:12.96Z</time></trkpt><trkpt lat="44.4565938" lon="7.3743332"><ele>620.1666666666666</ele><time>2026-05-02T13:57:14.959Z</time></trkpt><trkpt lat="44.4565196" lon="7.3743669"><ele>621.0</ele><time>2026-05-02T13:57:16.959Z</time></trkpt><trkpt lat="44.4564572" lon="7.3744382"><ele>621.0</ele><time>2026-05-02T13:57:18.96Z</time></trkpt><trkpt lat="44.4564095" lon="7.3745335"><ele>621.0</ele><time>2026-05-02T13:57:20.96Z</time></trkpt><trkpt lat="44.456381" lon="7.3746432"><ele>621.0</ele><time>2026-05-02T13:57:22.96Z</time></trkpt><trkpt lat="44.4563542" lon="7.3747432"><ele>621.0</ele><time>2026-05-02T13:57:24.96Z</time></trkpt><trkpt lat="44.4563291" lon="7.3748499"><ele>621.0</ele><time>2026-05-02T13:57:26.96Z</time></trkpt><trkpt lat="44.456301" lon="7.3749525"><ele>621.0</ele><time>2026-05-02T13:57:28.959Z</time></trkpt><trkpt lat="44.4562711" lon="7.3750542"><ele>621.0</ele><time>2026-05-02T13:57:30.959Z</time></trkpt><trkpt lat="44.4562431" lon="7.3751563"><ele>621.0</ele><time>2026-05-02T13:57:32.961Z</time></trkpt><trkpt lat="44.4562175" lon="7.3752612"><ele>621.0</ele><time>2026-05-02T13:57:34.96Z</time></trkpt><trkpt lat="44.4561941" lon="7.3753656"><ele>621.0</ele><time>2026-05-02T13:57:36.96Z</time></trkpt><trkpt lat="44.4561672" lon="7.3754705"><ele>621.0</ele><time>2026-05-02T13:57:38.959Z</time></trkpt><trkpt lat="44.4561388" lon="7.3755702"><ele>621.0</ele><time>2026-05-02T13:57:40.959Z</time></trkpt><trkpt lat="44.456103" lon="7.3756716"><ele>621.1666666666666</ele><time>2026-05-02T13:57:42.958Z</time></trkpt><trkpt lat="44.4560627" lon="7.375774"><ele>621.3333333333334</ele><time>2026-05-02T13:57:44.959Z</time></trkpt><trkpt lat="44.4560279" lon="7.3758762"><ele>621.5</ele><time>2026-05-02T13:57:46.959Z</time></trkpt><trkpt lat="44.4559926" lon="7.3759741"><ele>621.6666666666667</ele><time>2026-05-02T13:57:48.958Z</time></trkpt><trkpt lat="44.4559499" lon="7.3760791"><ele>621.8333333333334</ele><time>2026-05-02T13:57:50.96Z</time></trkpt><trkpt lat="44.4559139" lon="7.3761827"><ele>622.0</ele><time>2026-05-02T13:57:52.959Z</time></trkpt><trkpt lat="44.4558919" lon="7.3763033"><ele>621.6</ele><time>2026-05-02T13:57:54.959Z</time></trkpt><trkpt lat="44.4558746" lon="7.3764494"><ele>621.2</ele><time>2026-05-02T13:57:56.958Z</time></trkpt><trkpt lat="44.4558681" lon="7.3765907"><ele>620.8</ele><time>2026-05-02T13:57:58.959Z</time></trkpt><trkpt lat="44.4558403" lon="7.3767363"><ele>620.4</ele><time>2026-05-02T13:58:00.959Z</time></trkpt><trkpt lat="44.4557777" lon="7.376884"><ele>620.0</ele><time>2026-05-02T13:58:02.959Z</time></trkpt><trkpt lat="44.4557451" lon="7.3769606"><ele>620.0</ele><time>2026-05-02T13:58:03.959Z</time></trkpt><trkpt lat="44.4556726" lon="7.3771077"><ele>620.0</ele><time>2026-05-02T13:58:05.959Z</time></trkpt><trkpt lat="44.4556356" lon="7.3771822"><ele>620.0</ele><time>2026-05-02T13:58:06.959Z</time></trkpt><trkpt lat="44.4555995" lon="7.3772584"><ele>620.0</ele><time>2026-05-02T13:58:07.959Z</time></trkpt><trkpt lat="44.4555667" lon="7.3773371"><ele>620.0</ele><time>2026-05-02T13:58:08.959Z</time></trkpt><trkpt lat="44.4555023" lon="7.3774846"><ele>620.0</ele><time>2026-05-02T13:58:10.959Z</time></trkpt><trkpt lat="44.4554677" lon="7.3775649"><ele>624.0</ele><time>2026-05-02T13:58:11.959Z</time></trkpt><trkpt lat="44.4554051" lon="7.3777063"><ele>628.0</ele><time>2026-05-02T13:58:13.959Z</time></trkpt><trkpt lat="44.4553668" lon="7.3778641"><ele>632.0</ele><time>2026-05-02T13:58:15.958Z</time></trkpt><trkpt lat="44.4553611" lon="7.3780283"><ele>636.0</ele><time>2026-05-02T13:58:17.96Z</time></trkpt><trkpt lat="44.4553695" lon="7.3781854"><ele>636.0</ele><time>2026-05-02T13:58:19.96Z</time></trkpt><trkpt lat="44.4553866" lon="7.3783386"><ele>636.0</ele><time>2026-05-02T13:58:21.959Z</time></trkpt><trkpt lat="44.455427" lon="7.3784704"><ele>636.0</ele><time>2026-05-02T13:58:23.959Z</time></trkpt><trkpt lat="44.4554618" lon="7.3785989"><ele>636.0</ele><time>2026-05-02T13:58:25.959Z</time></trkpt><trkpt lat="44.4555465" lon="7.3786967"><ele>636.0</ele><time>2026-05-02T13:58:27.959Z</time></trkpt><trkpt lat="44.4556085" lon="7.378845"><ele>632.6</ele><time>2026-05-02T13:58:29.959Z</time></trkpt><trkpt lat="44.4556387" lon="7.3789945"><ele>629.2</ele><time>2026-05-02T13:58:31.96Z</time></trkpt><trkpt lat="44.4556736" lon="7.3791275"><ele>625.8</ele><time>2026-05-02T13:58:33.959Z</time></trkpt><trkpt lat="44.4557105" lon="7.3792641"><ele>622.4</ele><time>2026-05-02T13:58:35.959Z</time></trkpt><trkpt lat="44.4557381" lon="7.3794025"><ele>619.0</ele><time>2026-05-02T13:58:37.96Z</time></trkpt><trkpt lat="44.455758" lon="7.379544"><ele>619.0</ele><time>2026-05-02T13:58:39.958Z</time></trkpt><trkpt lat="44.4557571" lon="7.3796822"><ele>619.0</ele><time>2026-05-02T13:58:41.959Z</time></trkpt><trkpt lat="44.4557336" lon="7.3797957"><ele>619.0</ele><time>2026-05-02T13:58:43.958Z</time></trkpt><trkpt lat="44.4557001" lon="7.3798785"><ele>619.0</ele><time>2026-05-02T13:58:45.959Z</time></trkpt><trkpt lat="44.4556553" lon="7.3799672"><ele>619.0</ele><time>2026-05-02T13:58:49.96Z</time></trkpt><trkpt lat="44.4556009" lon="7.380025"><ele>619.0</ele><time>2026-05-02T13:58:51.96Z</time></trkpt><trkpt lat="44.4555353" lon="7.3800511"><ele>619.1666666666667</ele><time>2026-05-02T13:58:53.961Z</time></trkpt><trkpt lat="44.4554444" lon="7.3800901"><ele>619.3333333333334</ele><time>2026-05-02T13:58:55.959Z</time></trkpt><trkpt lat="44.4553628" lon="7.3801395"><ele>619.5</ele><time>2026-05-02T13:58:57.959Z</time></trkpt><trkpt lat="44.4552914" lon="7.3801943"><ele>619.6666666666666</ele><time>2026-05-02T13:58:59.959Z</time></trkpt><trkpt lat="44.4552172" lon="7.3801519"><ele>619.8333333333333</ele><time>2026-05-02T13:59:01.865Z</time></trkpt><trkpt lat="44.4551357" lon="7.3800674"><ele>620.0</ele><time>2026-05-02T13:59:03.959Z</time></trkpt><trkpt lat="44.4550403" lon="7.3800115"><ele>620.0</ele><time>2026-05-02T13:59:05.959Z</time></trkpt><trkpt lat="44.4549443" lon="7.3799705"><ele>620.0</ele><time>2026-05-02T13:59:07.959Z</time></trkpt><trkpt lat="44.4548497" lon="7.3799336"><ele>620.0</ele><time>2026-05-02T13:59:09.959Z</time></trkpt><trkpt lat="44.45476" lon="7.3799003"><ele>620.0</ele><time>2026-05-02T13:59:11.96Z</time></trkpt><trkpt lat="44.4546671" lon="7.3798745"><ele>620.0</ele><time>2026-05-02T13:59:13.96Z</time></trkpt><trkpt lat="44.4545741" lon="7.3798409"><ele>618.6</ele><time>2026-05-02T13:59:15.96Z</time></trkpt><trkpt lat="44.4544821" lon="7.3798023"><ele>617.2</ele><time>2026-05-02T13:59:17.958Z</time></trkpt><trkpt lat="44.454392" lon="7.3797691"><ele>615.8</ele><time>2026-05-02T13:59:19.958Z</time></trkpt><trkpt lat="44.4542987" lon="7.3797366"><ele>614.4</ele><time>2026-05-02T13:59:21.958Z</time></trkpt><trkpt lat="44.4542078" lon="7.3797045"><ele>613.0</ele><time>2026-05-02T13:59:23.959Z</time></trkpt><trkpt lat="44.4541105" lon="7.3796689"><ele>617.1999999999999</ele><time>2026-05-02T13:59:25.96Z</time></trkpt><trkpt lat="44.4540056" lon="7.3796371"><ele>621.4</ele><time>2026-05-02T13:59:27.959Z</time></trkpt><trkpt lat="44.4539017" lon="7.3795986"><ele>625.5999999999999</ele><time>2026-05-02T13:59:29.959Z</time></trkpt><trkpt lat="44.4538014" lon="7.3795649"><ele>629.8</ele><time>2026-05-02T13:59:31.959Z</time></trkpt><trkpt lat="44.4537049" lon="7.3795295"><ele>634.0</ele><time>2026-05-02T13:59:33.959Z</time></trkpt><trkpt lat="44.4536033" lon="7.3795097"><ele>634.0</ele><time>2026-05-02T13:59:35.959Z</time></trkpt><trkpt lat="44.4534937" lon="7.3795058"><ele>634.0</ele><time>2026-05-02T13:59:37.959Z</time></trkpt><trkpt lat="44.4533824" lon="7.3795059"><ele>634.0</ele><time>2026-05-02T13:59:39.959Z</time></trkpt><trkpt lat="44.4532729" lon="7.3795211"><ele>634.0</ele><time>2026-05-02T13:59:41.959Z</time></trkpt><trkpt lat="44.4531688" lon="7.3795474"><ele>634.0</ele><time>2026-05-02T13:59:43.96Z</time></trkpt><trkpt lat="44.4530683" lon="7.3795928"><ele>634.0</ele><time>2026-05-02T13:59:45.959Z</time></trkpt><trkpt lat="44.4529635" lon="7.3796432"><ele>634.0</ele><time>2026-05-02T13:59:47.959Z</time></trkpt><trkpt lat="44.4528594" lon="7.379699"><ele>634.0</ele><time>2026-05-02T13:59:49.959Z</time></trkpt><trkpt lat="44.4527468" lon="7.3797691"><ele>634.0</ele><time>2026-05-02T13:59:51.959Z</time></trkpt><trkpt lat="44.4526854" lon="7.3798082"><ele>634.0</ele><time>2026-05-02T13:59:52.959Z</time></trkpt><trkpt lat="44.4526218" lon="7.37985"><ele>630.3333333333334</ele><time>2026-05-02T13:59:53.959Z</time></trkpt><trkpt lat="44.4525531" lon="7.3798878"><ele>626.6666666666667</ele><time>2026-05-02T13:59:54.959Z</time></trkpt><trkpt lat="44.4524817" lon="7.3799208"><ele>623.0</ele><time>2026-05-02T13:59:55.958Z</time></trkpt><trkpt lat="44.4524079" lon="7.3799519"><ele>619.3333333333334</ele><time>2026-05-02T13:59:56.959Z</time></trkpt><trkpt lat="44.452336" lon="7.3799842"><ele>615.6666666666666</ele><time>2026-05-02T13:59:57.959Z</time></trkpt><trkpt lat="44.452263" lon="7.3800107"><ele>612.0</ele><time>2026-05-02T13:59:58.96Z</time></trkpt><trkpt lat="44.4521909" lon="7.3800286"><ele>612.2857142857142</ele><time>2026-05-02T13:59:59.96Z</time></trkpt><trkpt lat="44.4521183" lon="7.3800456"><ele>612.5714285714286</ele><time>2026-05-02T14:00:00.959Z</time></trkpt><trkpt lat="44.4520448" lon="7.3800571"><ele>612.8571428571429</ele><time>2026-05-02T14:00:01.959Z</time></trkpt><trkpt lat="44.4519715" lon="7.3800623"><ele>613.1428571428571</ele><time>2026-05-02T14:00:02.959Z</time></trkpt><trkpt lat="44.4518985" lon="7.3800656"><ele>613.4285714285714</ele><time>2026-05-02T14:00:03.959Z</time></trkpt><trkpt lat="44.4518264" lon="7.3800673"><ele>613.7142857142857</ele><time>2026-05-02T14:00:04.96Z</time></trkpt><trkpt lat="44.4517585" lon="7.3800629"><ele>614.0</ele><time>2026-05-02T14:00:05.96Z</time></trkpt><trkpt lat="44.451691" lon="7.3800535"><ele>614.0</ele><time>2026-05-02T14:00:06.959Z</time></trkpt><trkpt lat="44.4516217" lon="7.3800488"><ele>614.0</ele><time>2026-05-02T14:00:07.959Z</time></trkpt><trkpt lat="44.4515543" lon="7.3800449"><ele>614.0</ele><time>2026-05-02T14:00:08.96Z</time></trkpt><trkpt lat="44.4514292" lon="7.3800387"><ele>614.0</ele><time>2026-05-02T14:00:10.959Z</time></trkpt><trkpt lat="44.4513137" lon="7.3800192"><ele>614.0</ele><time>2026-05-02T14:00:12.959Z</time></trkpt><trkpt lat="44.4512175" lon="7.3799845"><ele>613.8333333333333</ele><time>2026-05-02T14:00:14.96Z</time></trkpt><trkpt lat="44.4511306" lon="7.3799635"><ele>613.6666666666666</ele><time>2026-05-02T14:00:16.959Z</time></trkpt><trkpt lat="44.4510501" lon="7.3799461"><ele>613.5</ele><time>2026-05-02T14:00:18.959Z</time></trkpt><trkpt lat="44.4509729" lon="7.3799302"><ele>613.3333333333334</ele><time>2026-05-02T14:00:20.959Z</time></trkpt><trkpt lat="44.450897" lon="7.3799178"><ele>613.1666666666667</ele><time>2026-05-02T14:00:22.959Z</time></trkpt><trkpt lat="44.4508163" lon="7.3799024"><ele>613.0</ele><time>2026-05-02T14:00:24.959Z</time></trkpt><trkpt lat="44.4507263" lon="7.3798734"><ele>613.0</ele><time>2026-05-02T14:00:26.959Z</time></trkpt><trkpt lat="44.4506312" lon="7.379826"><ele>613.0</ele><time>2026-05-02T14:00:28.959Z</time></trkpt><trkpt lat="44.4505279" lon="7.3797727"><ele>613.0</ele><time>2026-05-02T14:00:30.959Z</time></trkpt><trkpt lat="44.4504227" lon="7.3797273"><ele>613.0</ele><time>2026-05-02T14:00:32.959Z</time></trkpt><trkpt lat="44.4503149" lon="7.3796819"><ele>613.0</ele><time>2026-05-02T14:00:34.959Z</time></trkpt><trkpt lat="44.4502082" lon="7.379626"><ele>613.4</ele><time>2026-05-02T14:00:36.959Z</time></trkpt><trkpt lat="44.4501033" lon="7.3795707"><ele>613.8</ele><time>2026-05-02T14:00:38.959Z</time></trkpt><trkpt lat="44.4499921" lon="7.379528"><ele>614.2</ele><time>2026-05-02T14:00:40.96Z</time></trkpt><trkpt lat="44.4498829" lon="7.3794674"><ele>614.6</ele><time>2026-05-02T14:00:42.959Z</time></trkpt><trkpt lat="44.4498265" lon="7.3794265"><ele>615.0</ele><time>2026-05-02T14:00:43.959Z</time></trkpt><trkpt lat="44.4497285" lon="7.3793274"><ele>615.0</ele><time>2026-05-02T14:00:45.96Z</time></trkpt><trkpt lat="44.4496334" lon="7.3792248"><ele>615.0</ele><time>2026-05-02T14:00:47.96Z</time></trkpt><trkpt lat="44.4495281" lon="7.3791486"><ele>615.0</ele><time>2026-05-02T14:00:49.959Z</time></trkpt><trkpt lat="44.4494235" lon="7.3790907"><ele>615.0</ele><time>2026-05-02T14:00:51.959Z</time></trkpt><trkpt lat="44.449326" lon="7.379051"><ele>614.6</ele><time>2026-05-02T14:00:53.96Z</time></trkpt><trkpt lat="44.449228" lon="7.3790375"><ele>614.2</ele><time>2026-05-02T14:00:55.959Z</time></trkpt><trkpt lat="44.4491369" lon="7.3790287"><ele>613.8</ele><time>2026-05-02T14:00:57.959Z</time></trkpt><trkpt lat="44.4490488" lon="7.3790165"><ele>613.4</ele><time>2026-05-02T14:00:59.959Z</time></trkpt><trkpt lat="44.4489594" lon="7.3790035"><ele>613.0</ele><time>2026-05-02T14:01:01.959Z</time></trkpt><trkpt lat="44.4488707" lon="7.3789957"><ele>613.5</ele><time>2026-05-02T14:01:03.96Z</time></trkpt><trkpt lat="44.4487815" lon="7.37898"><ele>614.0</ele><time>2026-05-02T14:01:05.959Z</time></trkpt><trkpt lat="44.4486936" lon="7.3789576"><ele>614.5</ele><time>2026-05-02T14:01:07.96Z</time></trkpt><trkpt lat="44.4486046" lon="7.3789374"><ele>615.0</ele><time>2026-05-02T14:01:09.959Z</time></trkpt><trkpt lat="44.448521" lon="7.3789165"><ele>615.5</ele><time>2026-05-02T14:01:11.96Z</time></trkpt><trkpt lat="44.4484391" lon="7.3788935"><ele>616.0</ele><time>2026-05-02T14:01:13.959Z</time></trkpt><trkpt lat="44.4483615" lon="7.3788663"><ele>616.8333333333334</ele><time>2026-05-02T14:01:15.959Z</time></trkpt><trkpt lat="44.4482853" lon="7.3788385"><ele>617.6666666666667</ele><time>2026-05-02T14:01:17.959Z</time></trkpt><trkpt lat="44.4482096" lon="7.3788092"><ele>618.5</ele><time>2026-05-02T14:01:19.96Z</time></trkpt><trkpt lat="44.4481342" lon="7.3787756"><ele>619.3333333333334</ele><time>2026-05-02T14:01:21.959Z</time></trkpt><trkpt lat="44.4480572" lon="7.3787415"><ele>620.1666666666666</ele><time>2026-05-02T14:01:23.959Z</time></trkpt><trkpt lat="44.4479847" lon="7.3787035"><ele>621.0</ele><time>2026-05-02T14:01:25.96Z</time></trkpt><trkpt lat="44.4479137" lon="7.3786738"><ele>620.9999999999999</ele><time>2026-05-02T14:01:27.959Z</time></trkpt><trkpt lat="44.4478451" lon="7.3786362"><ele>621.0</ele><time>2026-05-02T14:01:29.959Z</time></trkpt><trkpt lat="44.4477802" lon="7.3786002"><ele>621.0</ele><time>2026-05-02T14:01:31.958Z</time></trkpt><trkpt lat="44.447713" lon="7.3785758"><ele>621.0</ele><time>2026-05-02T14:01:33.959Z</time></trkpt><trkpt lat="44.4476412" lon="7.3785648"><ele>621.0</ele><time>2026-05-02T14:01:35.959Z</time></trkpt><trkpt lat="44.4475688" lon="7.3785635"><ele>620.9999999999999</ele><time>2026-05-02T14:01:37.96Z</time></trkpt><trkpt lat="44.4475001" lon="7.3785836"><ele>621.0</ele><time>2026-05-02T14:01:39.96Z</time></trkpt><trkpt lat="44.4474417" lon="7.3786203"><ele>621.0</ele><time>2026-05-02T14:01:41.959Z</time></trkpt><trkpt lat="44.4473853" lon="7.3786704"><ele>621.0</ele><time>2026-05-02T14:01:43.959Z</time></trkpt><trkpt lat="44.4473203" lon="7.3787196"><ele>621.0</ele><time>2026-05-02T14:01:45.958Z</time></trkpt><trkpt lat="44.4472439" lon="7.3787754"><ele>621.0</ele><time>2026-05-02T14:01:47.958Z</time></trkpt><trkpt lat="44.4471608" lon="7.3788434"><ele>621.0</ele><time>2026-05-02T14:01:49.959Z</time></trkpt><trkpt lat="44.4470748" lon="7.3789187"><ele>621.0</ele><time>2026-05-02T14:01:51.958Z</time></trkpt><trkpt lat="44.4469883" lon="7.3789928"><ele>620.6</ele><time>2026-05-02T14:01:53.958Z</time></trkpt><trkpt lat="44.4469005" lon="7.3790653"><ele>620.2</ele><time>2026-05-02T14:01:55.958Z</time></trkpt><trkpt lat="44.4468093" lon="7.3791446"><ele>619.8</ele><time>2026-05-02T14:01:57.958Z</time></trkpt><trkpt lat="44.4467219" lon="7.3792156"><ele>619.4</ele><time>2026-05-02T14:01:59.957Z</time></trkpt><trkpt lat="44.4466317" lon="7.3792736"><ele>619.0</ele><time>2026-05-02T14:02:01.958Z</time></trkpt><trkpt lat="44.4465503" lon="7.3793277"><ele>619.0</ele><time>2026-05-02T14:02:03.957Z</time></trkpt><trkpt lat="44.4464701" lon="7.3793768"><ele>619.0</ele><time>2026-05-02T14:02:05.958Z</time></trkpt><trkpt lat="44.4463912" lon="7.3794275"><ele>619.0</ele><time>2026-05-02T14:02:07.958Z</time></trkpt><trkpt lat="44.4463066" lon="7.3794772"><ele>619.0</ele><time>2026-05-02T14:02:09.958Z</time></trkpt><trkpt lat="44.4462192" lon="7.379513"><ele>619.0</ele><time>2026-05-02T14:02:11.958Z</time></trkpt><trkpt lat="44.4461356" lon="7.3795393"><ele>619.0</ele><time>2026-05-02T14:02:13.958Z</time></trkpt><trkpt lat="44.4460534" lon="7.3795225"><ele>619.6666666666667</ele><time>2026-05-02T14:02:15.958Z</time></trkpt><trkpt lat="44.4460013" lon="7.3794353"><ele>620.3333333333334</ele><time>2026-05-02T14:02:17.958Z</time></trkpt><trkpt lat="44.4459811" lon="7.3793276"><ele>621.0</ele><time>2026-05-02T14:02:19.958Z</time></trkpt><trkpt lat="44.4459692" lon="7.3792245"><ele>621.6666666666666</ele><time>2026-05-02T14:02:21.958Z</time></trkpt><trkpt lat="44.4459542" lon="7.379131"><ele>622.3333333333333</ele><time>2026-05-02T14:02:23.958Z</time></trkpt><trkpt lat="44.4459403" lon="7.3790407"><ele>623.0</ele><time>2026-05-02T14:02:25.958Z</time></trkpt><trkpt lat="44.4459073" lon="7.378922"><ele>624.3333333333333</ele><time>2026-05-02T14:02:28.957Z</time></trkpt><trkpt lat="44.445868" lon="7.3788095"><ele>625.6666666666666</ele><time>2026-05-02T14:02:31.958Z</time></trkpt><trkpt lat="44.4458356" lon="7.3787017"><ele>627.0</ele><time>2026-05-02T14:02:34.958Z</time></trkpt><trkpt lat="44.4458196" lon="7.3785938"><ele>628.3333333333334</ele><time>2026-05-02T14:02:37.958Z</time></trkpt><trkpt lat="44.445828" lon="7.3784949"><ele>629.6666666666667</ele><time>2026-05-02T14:02:40.958Z</time></trkpt><trkpt lat="44.4458345" lon="7.378404"><ele>631.0</ele><time>2026-05-02T14:02:43.957Z</time></trkpt><trkpt lat="44.4458328" lon="7.3783028"><ele>631.0</ele><time>2026-05-02T14:02:47.958Z</time></trkpt><trkpt lat="44.4458173" lon="7.3782088"><ele>631.0</ele><time>2026-05-02T14:02:51.958Z</time></trkpt><trkpt lat="44.4457646" lon="7.3781264"><ele>631.0</ele><time>2026-05-02T14:02:56.957Z</time></trkpt><trkpt lat="44.445694" lon="7.3780748"><ele>631.0</ele><time>2026-05-02T14:03:00.959Z</time></trkpt><trkpt lat="44.4456408" lon="7.3780185"><ele>631.0</ele><time>2026-05-02T14:03:04.958Z</time></trkpt><trkpt lat="44.4455913" lon="7.377929"><ele>631.0</ele><time>2026-05-02T14:03:08.959Z</time></trkpt><trkpt lat="44.445535" lon="7.3778434"><ele>631.4285714285714</ele><time>2026-05-02T14:03:12.958Z</time></trkpt><trkpt lat="44.4454954" lon="7.3777735"><ele>631.8571428571428</ele><time>2026-05-02T14:03:15.959Z</time></trkpt><trkpt lat="44.4454438" lon="7.3776907"><ele>632.2857142857142</ele><time>2026-05-02T14:03:19.958Z</time></trkpt><trkpt lat="44.4453797" lon="7.3776181"><ele>632.7142857142858</ele><time>2026-05-02T14:03:23.958Z</time></trkpt><trkpt lat="44.4453356" lon="7.3775478"><ele>633.1428571428571</ele><time>2026-05-02T14:03:26.958Z</time></trkpt><trkpt lat="44.4452902" lon="7.3774847"><ele>633.5714285714286</ele><time>2026-05-02T14:03:29.958Z</time></trkpt><trkpt lat="44.4452339" lon="7.3774107"><ele>634.0</ele><time>2026-05-02T14:03:33.957Z</time></trkpt><trkpt lat="44.4451813" lon="7.3773439"><ele>636.0</ele><time>2026-05-02T14:03:37.958Z</time></trkpt><trkpt lat="44.4451335" lon="7.3772675"><ele>638.0</ele><time>2026-05-02T14:03:41.959Z</time></trkpt><trkpt lat="44.4450802" lon="7.3771915"><ele>640.0</ele><time>2026-05-02T14:03:45.958Z</time></trkpt><trkpt lat="44.4450786" lon="7.3770811"><ele>642.0</ele><time>2026-05-02T14:03:49.958Z</time></trkpt><trkpt lat="44.4451328" lon="7.377015"><ele>644.0</ele><time>2026-05-02T14:03:53.957Z</time></trkpt><trkpt lat="44.4452018" lon="7.3769761"><ele>646.0</ele><time>2026-05-02T14:03:57.957Z</time></trkpt><trkpt lat="44.445277" lon="7.3769514"><ele>646.8571428571429</ele><time>2026-05-02T14:04:01.958Z</time></trkpt><trkpt lat="44.4453504" lon="7.3769259"><ele>647.7142857142858</ele><time>2026-05-02T14:04:05.958Z</time></trkpt><trkpt lat="44.4453683" lon="7.3768404"><ele>648.5714285714287</ele><time>2026-05-02T14:04:09.958Z</time></trkpt><trkpt lat="44.4453058" lon="7.376787"><ele>649.4285714285714</ele><time>2026-05-02T14:04:13.958Z</time></trkpt><trkpt lat="44.445234" lon="7.3768313"><ele>650.2857142857142</ele><time>2026-05-02T14:04:17.958Z</time></trkpt><trkpt lat="44.4451671" lon="7.3768506"><ele>651.1428571428572</ele><time>2026-05-02T14:04:21.957Z</time></trkpt><trkpt lat="44.4451008" lon="7.3768702"><ele>652.0</ele><time>2026-05-02T14:04:25.958Z</time></trkpt><trkpt lat="44.4450323" lon="7.3768575"><ele>652.0</ele><time>2026-05-02T14:04:29.958Z</time></trkpt><trkpt lat="44.4449584" lon="7.3768282"><ele>652.0</ele><time>2026-05-02T14:04:34.959Z</time></trkpt><trkpt lat="44.4448893" lon="7.3767908"><ele>652.0</ele><time>2026-05-02T14:04:39.958Z</time></trkpt><trkpt lat="44.4448202" lon="7.3767445"><ele>652.0</ele><time>2026-05-02T14:04:44.958Z</time></trkpt><trkpt lat="44.4447568" lon="7.3767112"><ele>652.0</ele><time>2026-05-02T14:04:48.958Z</time></trkpt><trkpt lat="44.4446799" lon="7.3766992"><ele>652.0</ele><time>2026-05-02T14:04:53.957Z</time></trkpt><trkpt lat="44.444611" lon="7.3767243"><ele>652.0</ele><time>2026-05-02T14:04:57.958Z</time></trkpt><trkpt lat="44.4445732" lon="7.3767956"><ele>652.0</ele><time>2026-05-02T14:05:00.959Z</time></trkpt><trkpt lat="44.4445721" lon="7.3768838"><ele>652.0</ele><time>2026-05-02T14:05:03.958Z</time></trkpt><trkpt lat="44.4445941" lon="7.3769683"><ele>652.0</ele><time>2026-05-02T14:05:06.959Z</time></trkpt><trkpt lat="44.4446215" lon="7.3770511"><ele>652.0</ele><time>2026-05-02T14:05:09.957Z</time></trkpt><trkpt lat="44.4446707" lon="7.3771415"><ele>652.0</ele><time>2026-05-02T14:05:13.958Z</time></trkpt><trkpt lat="44.4447098" lon="7.3772174"><ele>652.0</ele><time>2026-05-02T14:05:16.958Z</time></trkpt><trkpt lat="44.4447276" lon="7.3773043"><ele>652.0</ele><time>2026-05-02T14:05:19.958Z</time></trkpt><trkpt lat="44.4447334" lon="7.3774006"><ele>651.1428571428572</ele><time>2026-05-02T14:05:22.958Z</time></trkpt><trkpt lat="44.4447044" lon="7.3774976"><ele>650.2857142857142</ele><time>2026-05-02T14:05:26.958Z</time></trkpt><trkpt lat="44.4446801" lon="7.3775898"><ele>649.4285714285714</ele><time>2026-05-02T14:05:30.958Z</time></trkpt><trkpt lat="44.4446493" lon="7.3776753"><ele>648.5714285714287</ele><time>2026-05-02T14:05:33.958Z</time></trkpt><trkpt lat="44.4446153" lon="7.3777598"><ele>647.7142857142858</ele><time>2026-05-02T14:05:36.958Z</time></trkpt><trkpt lat="44.4445808" lon="7.3778356"><ele>646.8571428571429</ele><time>2026-05-02T14:05:39.958Z</time></trkpt><trkpt lat="44.4445309" lon="7.3778981"><ele>646.0</ele><time>2026-05-02T14:05:42.958Z</time></trkpt><trkpt lat="44.4444691" lon="7.3779684"><ele>647.5714285714287</ele><time>2026-05-02T14:05:46.958Z</time></trkpt><trkpt lat="44.4444191" lon="7.3780301"><ele>649.1428571428571</ele><time>2026-05-02T14:05:49.959Z</time></trkpt><trkpt lat="44.4443455" lon="7.3780528"><ele>650.7142857142858</ele><time>2026-05-02T14:05:53.957Z</time></trkpt><trkpt lat="44.4442701" lon="7.3780303"><ele>652.2857142857143</ele><time>2026-05-02T14:05:57.959Z</time></trkpt><trkpt lat="44.444205" lon="7.378018"><ele>653.8571428571429</ele><time>2026-05-02T14:06:01.963Z</time></trkpt><trkpt lat="44.4441304" lon="7.3779963"><ele>655.4285714285714</ele><time>2026-05-02T14:06:05.958Z</time></trkpt><trkpt lat="44.4440653" lon="7.3779689"><ele>657.0</ele><time>2026-05-02T14:06:09.957Z</time></trkpt><trkpt lat="44.4440013" lon="7.3779465"><ele>657.0</ele><time>2026-05-02T14:06:13.6Z</time></trkpt><trkpt lat="44.4439362" lon="7.377939"><ele>657.0</ele><time>2026-05-02T14:06:16.956Z</time></trkpt><trkpt lat="44.4438643" lon="7.3779972"><ele>657.0</ele><time>2026-05-02T14:06:20.956Z</time></trkpt><trkpt lat="44.4438654" lon="7.3780954"><ele>657.0</ele><time>2026-05-02T14:06:23.957Z</time></trkpt><trkpt lat="44.4438882" lon="7.3781929"><ele>657.0</ele><time>2026-05-02T14:06:26.957Z</time></trkpt><trkpt lat="44.4438819" lon="7.3783019"><ele>657.0</ele><time>2026-05-02T14:06:30.96Z</time></trkpt><trkpt lat="44.4438431" lon="7.3783804"><ele>657.0</ele><time>2026-05-02T14:06:34.958Z</time></trkpt><trkpt lat="44.4437793" lon="7.3784489"><ele>659.2857142857142</ele><time>2026-05-02T14:06:38.956Z</time></trkpt><trkpt lat="44.4437201" lon="7.378518"><ele>661.5714285714287</ele><time>2026-05-02T14:06:42.958Z</time></trkpt><trkpt lat="44.4436513" lon="7.3785649"><ele>663.8571428571429</ele><time>2026-05-02T14:06:47.957Z</time></trkpt><trkpt lat="44.443586" lon="7.3785607"><ele>666.1428571428571</ele><time>2026-05-02T14:06:51.956Z</time></trkpt><trkpt lat="44.4435164" lon="7.3785271"><ele>668.4285714285713</ele><time>2026-05-02T14:06:56.957Z</time></trkpt><trkpt lat="44.4434523" lon="7.3785121"><ele>670.7142857142858</ele><time>2026-05-02T14:07:00.956Z</time></trkpt><trkpt lat="44.4433821" lon="7.3785313"><ele>673.0</ele><time>2026-05-02T14:07:05.958Z</time></trkpt><trkpt lat="44.4433414" lon="7.3786019"><ele>673.0</ele><time>2026-05-02T14:07:09.957Z</time></trkpt><trkpt lat="44.4433037" lon="7.3786828"><ele>673.0</ele><time>2026-05-02T14:07:13.957Z</time></trkpt><trkpt lat="44.4432713" lon="7.3787752"><ele>673.0</ele><time>2026-05-02T14:07:17.956Z</time></trkpt><trkpt lat="44.4432665" lon="7.3788775"><ele>673.0</ele><time>2026-05-02T14:07:21.957Z</time></trkpt><trkpt lat="44.4432723" lon="7.3789816"><ele>673.0</ele><time>2026-05-02T14:07:25.957Z</time></trkpt><trkpt lat="44.4433076" lon="7.379081"><ele>673.0</ele><time>2026-05-02T14:07:29.958Z</time></trkpt><trkpt lat="44.4433489" lon="7.3791836"><ele>673.6666666666667</ele><time>2026-05-02T14:07:33.957Z</time></trkpt><trkpt lat="44.4433873" lon="7.3792835"><ele>674.3333333333334</ele><time>2026-05-02T14:07:37.957Z</time></trkpt><trkpt lat="44.4434095" lon="7.3793916"><ele>675.0</ele><time>2026-05-02T14:07:41.958Z</time></trkpt><trkpt lat="44.4433979" lon="7.3794804"><ele>675.6666666666666</ele><time>2026-05-02T14:07:44.957Z</time></trkpt><trkpt lat="44.4433758" lon="7.3795931"><ele>676.3333333333333</ele><time>2026-05-02T14:07:47.957Z</time></trkpt><trkpt lat="44.4433648" lon="7.3797269"><ele>677.0</ele><time>2026-05-02T14:07:50.957Z</time></trkpt><trkpt lat="44.4433624" lon="7.3798323"><ele>677.0</ele><time>2026-05-02T14:07:52.958Z</time></trkpt><trkpt lat="44.4433854" lon="7.3799584"><ele>677.0</ele><time>2026-05-02T14:07:54.957Z</time></trkpt><trkpt lat="44.4434153" lon="7.3801103"><ele>677.0</ele><time>2026-05-02T14:07:56.957Z</time></trkpt><trkpt lat="44.4434376" lon="7.3801931"><ele>677.0</ele><time>2026-05-02T14:07:57.957Z</time></trkpt><trkpt lat="44.4434737" lon="7.3803509"><ele>677.0</ele><time>2026-05-02T14:07:59.957Z</time></trkpt><trkpt lat="44.4435339" lon="7.3804967"><ele>675.2</ele><time>2026-05-02T14:08:01.958Z</time></trkpt><trkpt lat="44.4435865" lon="7.3806173"><ele>673.4000000000001</ele><time>2026-05-02T14:08:03.957Z</time></trkpt><trkpt lat="44.4435861" lon="7.3807524"><ele>671.5999999999999</ele><time>2026-05-02T14:08:05.956Z</time></trkpt><trkpt lat="44.443496" lon="7.3808359"><ele>669.8</ele><time>2026-05-02T14:08:07.958Z</time></trkpt><trkpt lat="44.4433859" lon="7.3808745"><ele>668.0</ele><time>2026-05-02T14:08:09.957Z</time></trkpt><trkpt lat="44.4432624" lon="7.3808651"><ele>668.0</ele><time>2026-05-02T14:08:11.957Z</time></trkpt><trkpt lat="44.4431437" lon="7.3808121"><ele>668.0</ele><time>2026-05-02T14:08:13.957Z</time></trkpt><trkpt lat="44.4430452" lon="7.3807704"><ele>668.0</ele><time>2026-05-02T14:08:15.957Z</time></trkpt><trkpt lat="44.442952" lon="7.3807499"><ele>668.0</ele><time>2026-05-02T14:08:17.958Z</time></trkpt><trkpt lat="44.4428655" lon="7.3807684"><ele>668.0</ele><time>2026-05-02T14:08:19.957Z</time></trkpt><trkpt lat="44.4427884" lon="7.3808275"><ele>669.7142857142857</ele><time>2026-05-02T14:08:21.957Z</time></trkpt><trkpt lat="44.442724" lon="7.3808886"><ele>671.4285714285714</ele><time>2026-05-02T14:08:23.957Z</time></trkpt><trkpt lat="44.442669" lon="7.3809353"><ele>673.1428571428571</ele><time>2026-05-02T14:08:25.958Z</time></trkpt><trkpt lat="44.442607" lon="7.3809814"><ele>674.8571428571429</ele><time>2026-05-02T14:08:28.958Z</time></trkpt><trkpt lat="44.44254" lon="7.3810137"><ele>676.5714285714286</ele><time>2026-05-02T14:08:32.957Z</time></trkpt><trkpt lat="44.4424727" lon="7.3810456"><ele>678.2857142857143</ele><time>2026-05-02T14:08:36.957Z</time></trkpt><trkpt lat="44.4424052" lon="7.3810438"><ele>680.0</ele><time>2026-05-02T14:08:40.956Z</time></trkpt><trkpt lat="44.4423416" lon="7.3810529"><ele>680.0</ele><time>2026-05-02T14:08:44.956Z</time></trkpt><trkpt lat="44.4422778" lon="7.3810525"><ele>680.0</ele><time>2026-05-02T14:08:48.957Z</time></trkpt><trkpt lat="44.4422126" lon="7.3810573"><ele>680.0</ele><time>2026-05-02T14:08:52.957Z</time></trkpt><trkpt lat="44.4421472" lon="7.3810555"><ele>680.0</ele><time>2026-05-02T14:08:56.957Z</time></trkpt><trkpt lat="44.442077" lon="7.3810482"><ele>680.0</ele><time>2026-05-02T14:09:00.957Z</time></trkpt><trkpt lat="44.4420116" lon="7.3810355"><ele>680.0</ele><time>2026-05-02T14:09:04.957Z</time></trkpt><trkpt lat="44.4419375" lon="7.3810151"><ele>680.0</ele><time>2026-05-02T14:09:09.957Z</time></trkpt><trkpt lat="44.441875" lon="7.380996"><ele>682.2857142857143</ele><time>2026-05-02T14:09:13.957Z</time></trkpt><trkpt lat="44.4418083" lon="7.3809813"><ele>684.5714285714286</ele><time>2026-05-02T14:09:17.957Z</time></trkpt><trkpt lat="44.4417419" lon="7.3809811"><ele>686.8571428571429</ele><time>2026-05-02T14:09:21.956Z</time></trkpt><trkpt lat="44.4416643" lon="7.3810024"><ele>689.1428571428571</ele><time>2026-05-02T14:09:26.957Z</time></trkpt><trkpt lat="44.4415864" lon="7.3810357"><ele>691.4285714285714</ele><time>2026-05-02T14:09:31.957Z</time></trkpt><trkpt lat="44.4415231" lon="7.3810662"><ele>693.7142857142857</ele><time>2026-05-02T14:09:35.957Z</time></trkpt><trkpt lat="44.4414575" lon="7.3810679"><ele>696.0</ele><time>2026-05-02T14:09:39.957Z</time></trkpt><trkpt lat="44.4413845" lon="7.3810967"><ele>696.0</ele><time>2026-05-02T14:09:43.957Z</time></trkpt><trkpt lat="44.4413179" lon="7.3811199"><ele>696.0</ele><time>2026-05-02T14:09:47.957Z</time></trkpt><trkpt lat="44.4412544" lon="7.3811349"><ele>696.0</ele><time>2026-05-02T14:09:51.957Z</time></trkpt><trkpt lat="44.4411769" lon="7.3811151"><ele>696.0</ele><time>2026-05-02T14:09:56.958Z</time></trkpt><trkpt lat="44.4411045" lon="7.3810884"><ele>696.0</ele><time>2026-05-02T14:10:01.957Z</time></trkpt><trkpt lat="44.4410366" lon="7.3810554"><ele>696.0</ele><time>2026-05-02T14:10:06.957Z</time></trkpt><trkpt lat="44.4409688" lon="7.3810219"><ele>696.0</ele><time>2026-05-02T14:10:11.958Z</time></trkpt><trkpt lat="44.4409076" lon="7.3809943"><ele>697.5714285714286</ele><time>2026-05-02T14:10:15.957Z</time></trkpt><trkpt lat="44.440844" lon="7.3810362"><ele>699.1428571428571</ele><time>2026-05-02T14:10:19.957Z</time></trkpt><trkpt lat="44.4408197" lon="7.3811347"><ele>700.7142857142858</ele><time>2026-05-02T14:10:24.958Z</time></trkpt><trkpt lat="44.4408243" lon="7.3812229"><ele>702.2857142857142</ele><time>2026-05-02T14:10:29.957Z</time></trkpt><trkpt lat="44.4408365" lon="7.3813187"><ele>703.8571428571429</ele><time>2026-05-02T14:10:34.957Z</time></trkpt><trkpt lat="44.4408552" lon="7.3814204"><ele>705.4285714285714</ele><time>2026-05-02T14:10:39.957Z</time></trkpt><trkpt lat="44.4408786" lon="7.3815148"><ele>707.0</ele><time>2026-05-02T14:10:44.956Z</time></trkpt><trkpt lat="44.4408689" lon="7.3816207"><ele>707.0</ele><time>2026-05-02T14:10:49.957Z</time></trkpt><trkpt lat="44.4408669" lon="7.3817126"><ele>707.0</ele><time>2026-05-02T14:10:53.957Z</time></trkpt><trkpt lat="44.4408742" lon="7.3818013"><ele>707.0</ele><time>2026-05-02T14:10:57.957Z</time></trkpt><trkpt lat="44.4408812" lon="7.3819015"><ele>707.0</ele><time>2026-05-02T14:11:02.956Z</time></trkpt><trkpt lat="44.4409024" lon="7.3819988"><ele>707.0</ele><time>2026-05-02T14:11:07.956Z</time></trkpt><trkpt lat="44.4409208" lon="7.3820934"><ele>707.0</ele><time>2026-05-02T14:11:11.956Z</time></trkpt><trkpt lat="44.4408908" lon="7.3821752"><ele>707.0</ele><time>2026-05-02T14:11:15.956Z</time></trkpt><trkpt lat="44.4408675" lon="7.3822686"><ele>707.4285714285714</ele><time>2026-05-02T14:11:20.956Z</time></trkpt><trkpt lat="44.4408178" lon="7.382325"><ele>707.8571428571429</ele><time>2026-05-02T14:11:25.955Z</time></trkpt><trkpt lat="44.4407684" lon="7.3823947"><ele>708.2857142857142</ele><time>2026-05-02T14:11:30.956Z</time></trkpt><trkpt lat="44.4407297" lon="7.3824794"><ele>708.7142857142858</ele><time>2026-05-02T14:11:36.957Z</time></trkpt><trkpt lat="44.4407014" lon="7.3825684"><ele>709.1428571428571</ele><time>2026-05-02T14:11:41.956Z</time></trkpt><trkpt lat="44.4406575" lon="7.3826476"><ele>709.5714285714286</ele><time>2026-05-02T14:11:46.957Z</time></trkpt><trkpt lat="44.4406095" lon="7.3827346"><ele>710.0</ele><time>2026-05-02T14:11:51.957Z</time></trkpt><trkpt lat="44.4406217" lon="7.3828349"><ele>710.0</ele><time>2026-05-02T14:11:56.956Z</time></trkpt><trkpt lat="44.4406635" lon="7.3829227"><ele>710.0</ele><time>2026-05-02T14:12:01.957Z</time></trkpt><trkpt lat="44.4407042" lon="7.383011"><ele>710.0</ele><time>2026-05-02T14:12:06.956Z</time></trkpt><trkpt lat="44.4407588" lon="7.3830798"><ele>710.0</ele><time>2026-05-02T14:12:10.956Z</time></trkpt><trkpt lat="44.4408192" lon="7.3831314"><ele>710.0</ele><time>2026-05-02T14:12:15.957Z</time></trkpt><trkpt lat="44.4408765" lon="7.3831934"><ele>710.0</ele><time>2026-05-02T14:12:20.956Z</time></trkpt><trkpt lat="44.4409257" lon="7.3832729"><ele>710.0</ele><time>2026-05-02T14:12:24.956Z</time></trkpt><trkpt lat="44.4408891" lon="7.3833497"><ele>710.0</ele><time>2026-05-02T14:12:28.956Z</time></trkpt><trkpt lat="44.4408249" lon="7.3833407"><ele>710.0</ele><time>2026-05-02T14:12:32.955Z</time></trkpt><trkpt lat="44.440776" lon="7.3832819"><ele>710.0</ele><time>2026-05-02T14:12:36.956Z</time></trkpt><trkpt lat="44.4407291" lon="7.3832137"><ele>710.0</ele><time>2026-05-02T14:12:41.957Z</time></trkpt><trkpt lat="44.4406774" lon="7.3831534"><ele>710.0</ele><time>2026-05-02T14:12:46.956Z</time></trkpt><trkpt lat="44.4406185" lon="7.3830884"><ele>710.0</ele><time>2026-05-02T14:12:51.957Z</time></trkpt><trkpt lat="44.4405638" lon="7.3830251"><ele>710.0</ele><time>2026-05-02T14:12:56.955Z</time></trkpt><trkpt lat="44.4405207" lon="7.3829607"><ele>715.0</ele><time>2026-05-02T14:13:01.956Z</time></trkpt><trkpt lat="44.4404613" lon="7.3829038"><ele>720.0</ele><time>2026-05-02T14:13:06.955Z</time></trkpt><trkpt lat="44.4403954" lon="7.3828345"><ele>725.0</ele><time>2026-05-02T14:13:10.957Z</time></trkpt><trkpt lat="44.440367" lon="7.3827442"><ele>730.0</ele><time>2026-05-02T14:13:16.956Z</time></trkpt><trkpt lat="44.4403263" lon="7.3826631"><ele>735.0</ele><time>2026-05-02T14:13:21.956Z</time></trkpt><trkpt lat="44.4402846" lon="7.38258"><ele>740.0</ele><time>2026-05-02T14:13:27.957Z</time></trkpt><trkpt lat="44.440279" lon="7.3824875"><ele>745.0</ele><time>2026-05-02T14:13:31.956Z</time></trkpt><trkpt lat="44.440278" lon="7.3823938"><ele>745.0</ele><time>2026-05-02T14:13:36.957Z</time></trkpt><trkpt lat="44.4402491" lon="7.3823049"><ele>745.0</ele><time>2026-05-02T14:13:40.956Z</time></trkpt><trkpt lat="44.440243" lon="7.382216"><ele>745.0</ele><time>2026-05-02T14:13:44.956Z</time></trkpt><trkpt lat="44.4402548" lon="7.3821154"><ele>745.0</ele><time>2026-05-02T14:13:49.955Z</time></trkpt><trkpt lat="44.440284" lon="7.3820017"><ele>745.0</ele><time>2026-05-02T14:13:53.956Z</time></trkpt><trkpt lat="44.4403149" lon="7.3819206"><ele>745.0</ele><time>2026-05-02T14:13:57.956Z</time></trkpt><trkpt lat="44.4403265" lon="7.3818261"><ele>745.0</ele><time>2026-05-02T14:14:02.956Z</time></trkpt><trkpt lat="44.4403344" lon="7.3817386"><ele>744.8571428571429</ele><time>2026-05-02T14:14:06.956Z</time></trkpt><trkpt lat="44.4403143" lon="7.3816529"><ele>744.7142857142857</ele><time>2026-05-02T14:14:10.956Z</time></trkpt><trkpt lat="44.4402799" lon="7.3815686"><ele>744.5714285714287</ele><time>2026-05-02T14:14:15.956Z</time></trkpt><trkpt lat="44.4402508" lon="7.3814875"><ele>744.4285714285714</ele><time>2026-05-02T14:14:19.956Z</time></trkpt><trkpt lat="44.4402304" lon="7.3813955"><ele>744.2857142857143</ele><time>2026-05-02T14:14:24.957Z</time></trkpt><trkpt lat="44.440214" lon="7.3812931"><ele>744.1428571428572</ele><time>2026-05-02T14:14:28.956Z</time></trkpt><trkpt lat="44.4401984" lon="7.3812019"><ele>744.0</ele><time>2026-05-02T14:14:33.957Z</time></trkpt><trkpt lat="44.440172" lon="7.38112"><ele>743.8571428571429</ele><time>2026-05-02T14:14:38.955Z</time></trkpt><trkpt lat="44.4401385" lon="7.3810423"><ele>743.7142857142858</ele><time>2026-05-02T14:14:43.956Z</time></trkpt><trkpt lat="44.4401127" lon="7.3809465"><ele>743.5714285714287</ele><time>2026-05-02T14:14:48.956Z</time></trkpt><trkpt lat="44.4400548" lon="7.3808952"><ele>743.4285714285714</ele><time>2026-05-02T14:14:53.956Z</time></trkpt><trkpt lat="44.4399886" lon="7.3808525"><ele>743.2857142857142</ele><time>2026-05-02T14:14:58.956Z</time></trkpt><trkpt lat="44.4399198" lon="7.3808184"><ele>743.1428571428572</ele><time>2026-05-02T14:15:04.956Z</time></trkpt><trkpt lat="44.4398535" lon="7.3807707"><ele>743.0</ele><time>2026-05-02T14:15:10.955Z</time></trkpt><trkpt lat="44.4397875" lon="7.3807312"><ele>743.0</ele><time>2026-05-02T14:15:15.957Z</time></trkpt><trkpt lat="44.4397199" lon="7.3806821"><ele>743.0</ele><time>2026-05-02T14:15:20.955Z</time></trkpt><trkpt lat="44.4396524" lon="7.3806666"><ele>743.0</ele><time>2026-05-02T14:15:24.956Z</time></trkpt><trkpt lat="44.4395861" lon="7.3806227"><ele>743.0</ele><time>2026-05-02T14:15:29.955Z</time></trkpt><trkpt lat="44.4395312" lon="7.3805605"><ele>743.0</ele><time>2026-05-02T14:15:34.955Z</time></trkpt><trkpt lat="44.439519" lon="7.3804627"><ele>743.0</ele><time>2026-05-02T14:15:39.955Z</time></trkpt><trkpt lat="44.4395293" lon="7.3803747"><ele>743.0</ele><time>2026-05-02T14:15:44.955Z</time></trkpt><trkpt lat="44.4395784" lon="7.3802859"><ele>744.7142857142858</ele><time>2026-05-02T14:15:49.955Z</time></trkpt><trkpt lat="44.4396276" lon="7.3802174"><ele>746.4285714285713</ele><time>2026-05-02T14:15:53.955Z</time></trkpt><trkpt lat="44.4396773" lon="7.3801408"><ele>748.1428571428571</ele><time>2026-05-02T14:15:58.956Z</time></trkpt><trkpt lat="44.4397175" lon="7.3800674"><ele>749.8571428571429</ele><time>2026-05-02T14:16:02.956Z</time></trkpt><trkpt lat="44.4397572" lon="7.3799802"><ele>751.5714285714287</ele><time>2026-05-02T14:16:09.956Z</time></trkpt><trkpt lat="44.4397994" lon="7.379882"><ele>753.2857142857142</ele><time>2026-05-02T14:16:14.956Z</time></trkpt><trkpt lat="44.4398463" lon="7.3798201"><ele>755.0</ele><time>2026-05-02T14:16:18.955Z</time></trkpt><trkpt lat="44.4399171" lon="7.379765"><ele>755.0</ele><time>2026-05-02T14:16:23.954Z</time></trkpt><trkpt lat="44.4399831" lon="7.3797547"><ele>755.0</ele><time>2026-05-02T14:16:27.955Z</time></trkpt><trkpt lat="44.4400563" lon="7.3797609"><ele>755.0</ele><time>2026-05-02T14:16:34.955Z</time></trkpt><trkpt lat="44.4401302" lon="7.3797601"><ele>755.0</ele><time>2026-05-02T14:16:39.955Z</time></trkpt><trkpt lat="44.4402022" lon="7.3797574"><ele>755.0</ele><time>2026-05-02T14:16:44.955Z</time></trkpt><trkpt lat="44.440268" lon="7.3797167"><ele>755.0</ele><time>2026-05-02T14:16:49.956Z</time></trkpt><trkpt lat="44.4402972" lon="7.3796235"><ele>755.0</ele><time>2026-05-02T14:16:55.955Z</time></trkpt><trkpt lat="44.4403327" lon="7.379536"><ele>756.0</ele><time>2026-05-02T14:17:00.955Z</time></trkpt><trkpt lat="44.4403783" lon="7.3794715"><ele>757.0</ele><time>2026-05-02T14:17:05.955Z</time></trkpt><trkpt lat="44.4404368" lon="7.3794135"><ele>758.0</ele><time>2026-05-02T14:17:10.955Z</time></trkpt><trkpt lat="44.4404958" lon="7.3793713"><ele>759.0</ele><time>2026-05-02T14:17:14.954Z</time></trkpt><trkpt lat="44.4405584" lon="7.3793117"><ele>760.0</ele><time>2026-05-02T14:17:19.956Z</time></trkpt><trkpt lat="44.4406304" lon="7.3792776"><ele>761.0</ele><time>2026-05-02T14:17:24.954Z</time></trkpt><trkpt lat="44.440699" lon="7.3792424"><ele>762.0</ele><time>2026-05-02T14:17:28.955Z</time></trkpt><trkpt lat="44.4407618" lon="7.3791902"><ele>762.0</ele><time>2026-05-02T14:17:34.954Z</time></trkpt><trkpt lat="44.4408326" lon="7.3791584"><ele>762.0</ele><time>2026-05-02T14:17:39.956Z</time></trkpt><trkpt lat="44.4408921" lon="7.3790951"><ele>762.0</ele><time>2026-05-02T14:17:44.955Z</time></trkpt><trkpt lat="44.4409487" lon="7.3790203"><ele>762.0</ele><time>2026-05-02T14:17:49.956Z</time></trkpt><trkpt lat="44.4409645" lon="7.3789259"><ele>762.0</ele><time>2026-05-02T14:17:54.955Z</time></trkpt><trkpt lat="44.4409892" lon="7.3788267"><ele>762.0</ele><time>2026-05-02T14:17:59.955Z</time></trkpt><trkpt lat="44.4410145" lon="7.3787302"><ele>762.0</ele><time>2026-05-02T14:18:05.955Z</time></trkpt><trkpt lat="44.4410408" lon="7.3786384"><ele>760.8571428571428</ele><time>2026-05-02T14:18:09.954Z</time></trkpt><trkpt lat="44.4410737" lon="7.378546"><ele>759.7142857142858</ele><time>2026-05-02T14:18:14.956Z</time></trkpt><trkpt lat="44.4411221" lon="7.378484"><ele>758.5714285714286</ele><time>2026-05-02T14:18:18.954Z</time></trkpt><trkpt lat="44.4411741" lon="7.3784313"><ele>757.4285714285713</ele><time>2026-05-02T14:18:22.955Z</time></trkpt><trkpt lat="44.4412375" lon="7.3784073"><ele>756.2857142857142</ele><time>2026-05-02T14:18:26.955Z</time></trkpt><trkpt lat="44.44131" lon="7.3783979"><ele>755.1428571428571</ele><time>2026-05-02T14:18:30.955Z</time></trkpt><trkpt lat="44.4413692" lon="7.3783484"><ele>754.0</ele><time>2026-05-02T14:18:34.955Z</time></trkpt><trkpt lat="44.4413849" lon="7.378261"><ele>753.9999999999999</ele><time>2026-05-02T14:18:38.955Z</time></trkpt><trkpt lat="44.4413616" lon="7.3781705"><ele>754.0</ele><time>2026-05-02T14:18:43.955Z</time></trkpt><trkpt lat="44.4413415" lon="7.3780684"><ele>754.0</ele><time>2026-05-02T14:18:49.955Z</time></trkpt><trkpt lat="44.4413438" lon="7.3779699"><ele>754.0</ele><time>2026-05-02T14:18:54.955Z</time></trkpt><trkpt lat="44.4413754" lon="7.3778856"><ele>754.0</ele><time>2026-05-02T14:18:58.954Z</time></trkpt><trkpt lat="44.4414128" lon="7.3778016"><ele>753.9999999999999</ele><time>2026-05-02T14:19:02.955Z</time></trkpt><trkpt lat="44.4414505" lon="7.3777255"><ele>754.0</ele><time>2026-05-02T14:19:07.955Z</time></trkpt><trkpt lat="44.4414841" lon="7.3776379"><ele>754.9999999999999</ele><time>2026-05-02T14:19:12.955Z</time></trkpt><trkpt lat="44.4414807" lon="7.3775491"><ele>756.0</ele><time>2026-05-02T14:19:16.955Z</time></trkpt><trkpt lat="44.441441" lon="7.3774666"><ele>757.0</ele><time>2026-05-02T14:19:21.956Z</time></trkpt><trkpt lat="44.4413969" lon="7.3773853"><ele>758.0</ele><time>2026-05-02T14:19:26.956Z</time></trkpt><trkpt lat="44.4413441" lon="7.3773291"><ele>759.0</ele><time>2026-05-02T14:19:31.956Z</time></trkpt><trkpt lat="44.4412933" lon="7.3772676"><ele>759.9999999999999</ele><time>2026-05-02T14:19:36.954Z</time></trkpt><trkpt lat="44.4412435" lon="7.377184"><ele>761.0</ele><time>2026-05-02T14:19:41.956Z</time></trkpt><trkpt lat="44.4411896" lon="7.3771383"><ele>766.4285714285713</ele><time>2026-05-02T14:19:46.955Z</time></trkpt><trkpt lat="44.4411264" lon="7.3770707"><ele>771.8571428571429</ele><time>2026-05-02T14:19:51.955Z</time></trkpt><trkpt lat="44.4410717" lon="7.3770247"><ele>777.2857142857142</ele><time>2026-05-02T14:19:54.956Z</time></trkpt><trkpt lat="44.4410288" lon="7.3769598"><ele>782.7142857142857</ele><time>2026-05-02T14:19:58.955Z</time></trkpt><trkpt lat="44.4410168" lon="7.3768722"><ele>788.1428571428571</ele><time>2026-05-02T14:20:02.955Z</time></trkpt><trkpt lat="44.4409996" lon="7.3767869"><ele>793.5714285714286</ele><time>2026-05-02T14:20:06.955Z</time></trkpt><trkpt lat="44.4409923" lon="7.3766829"><ele>799.0</ele><time>2026-05-02T14:20:11.955Z</time></trkpt><trkpt lat="44.4409715" lon="7.3765834"><ele>799.0</ele><time>2026-05-02T14:20:16.955Z</time></trkpt><trkpt lat="44.4409544" lon="7.3764854"><ele>799.0</ele><time>2026-05-02T14:20:21.955Z</time></trkpt><trkpt lat="44.4409325" lon="7.3763804"><ele>799.0</ele><time>2026-05-02T14:20:26.955Z</time></trkpt><trkpt lat="44.4409197" lon="7.3762832"><ele>799.0</ele><time>2026-05-02T14:20:30.954Z</time></trkpt><trkpt lat="44.440937" lon="7.3761892"><ele>799.0</ele><time>2026-05-02T14:20:35.955Z</time></trkpt><trkpt lat="44.440976" lon="7.3761143"><ele>799.0</ele><time>2026-05-02T14:20:40.954Z</time></trkpt><trkpt lat="44.440997" lon="7.3760144"><ele>799.0</ele><time>2026-05-02T14:20:45.953Z</time></trkpt><trkpt lat="44.4409843" lon="7.3759213"><ele>798.2857142857143</ele><time>2026-05-02T14:20:49.954Z</time></trkpt><trkpt lat="44.4409485" lon="7.3758408"><ele>797.5714285714286</ele><time>2026-05-02T14:20:54.955Z</time></trkpt><trkpt lat="44.440899" lon="7.3757838"><ele>796.8571428571429</ele><time>2026-05-02T14:20:59.955Z</time></trkpt><trkpt lat="44.4408436" lon="7.3757358"><ele>796.1428571428571</ele><time>2026-05-02T14:21:04.954Z</time></trkpt><trkpt lat="44.4407793" lon="7.3756836"><ele>795.4285714285713</ele><time>2026-05-02T14:21:10.954Z</time></trkpt><trkpt lat="44.4407184" lon="7.3756303"><ele>794.7142857142857</ele><time>2026-05-02T14:21:15.953Z</time></trkpt><trkpt lat="44.4406612" lon="7.3755736"><ele>794.0</ele><time>2026-05-02T14:21:20.954Z</time></trkpt><trkpt lat="44.4406024" lon="7.375521"><ele>793.5714285714286</ele><time>2026-05-02T14:21:25.954Z</time></trkpt><trkpt lat="44.4405489" lon="7.3754622"><ele>793.1428571428571</ele><time>2026-05-02T14:21:29.955Z</time></trkpt><trkpt lat="44.4405111" lon="7.3753794"><ele>792.7142857142858</ele><time>2026-05-02T14:21:33.954Z</time></trkpt><trkpt lat="44.440484" lon="7.3752886"><ele>792.2857142857142</ele><time>2026-05-02T14:21:37.954Z</time></trkpt><trkpt lat="44.4404665" lon="7.3751992"><ele>791.8571428571429</ele><time>2026-05-02T14:21:43.954Z</time></trkpt><trkpt lat="44.4404343" lon="7.3751099"><ele>791.4285714285714</ele><time>2026-05-02T14:21:47.955Z</time></trkpt><trkpt lat="44.4404224" lon="7.375008"><ele>791.0</ele><time>2026-05-02T14:21:52.954Z</time></trkpt><trkpt lat="44.4404408" lon="7.3748951"><ele>791.0</ele><time>2026-05-02T14:21:57.954Z</time></trkpt><trkpt lat="44.4404837" lon="7.3748246"><ele>791.0</ele><time>2026-05-02T14:22:01.954Z</time></trkpt><trkpt lat="44.4405374" lon="7.3747667"><ele>791.0</ele><time>2026-05-02T14:22:05.954Z</time></trkpt><trkpt lat="44.4405843" lon="7.3746801"><ele>791.0</ele><time>2026-05-02T14:22:10.954Z</time></trkpt><trkpt lat="44.4406146" lon="7.3745873"><ele>791.0</ele><time>2026-05-02T14:22:15.955Z</time></trkpt><trkpt lat="44.4406257" lon="7.374486"><ele>791.0</ele><time>2026-05-02T14:22:20.955Z</time></trkpt><trkpt lat="44.440638" lon="7.374381"><ele>791.0</ele><time>2026-05-02T14:22:25.954Z</time></trkpt><trkpt lat="44.44062" lon="7.3742804"><ele>792.4285714285714</ele><time>2026-05-02T14:22:29.955Z</time></trkpt><trkpt lat="44.4405935" lon="7.3741879"><ele>793.8571428571429</ele><time>2026-05-02T14:22:33.954Z</time></trkpt><trkpt lat="44.4405741" lon="7.3740877"><ele>795.2857142857142</ele><time>2026-05-02T14:22:37.954Z</time></trkpt><trkpt lat="44.4405607" lon="7.3739853"><ele>796.7142857142858</ele><time>2026-05-02T14:22:43.954Z</time></trkpt><trkpt lat="44.4405718" lon="7.3738869"><ele>798.1428571428571</ele><time>2026-05-02T14:22:47.955Z</time></trkpt><trkpt lat="44.4406031" lon="7.3737982"><ele>799.5714285714286</ele><time>2026-05-02T14:22:51.954Z</time></trkpt><trkpt lat="44.4406208" lon="7.373713"><ele>801.0</ele><time>2026-05-02T14:22:55.953Z</time></trkpt><trkpt lat="44.4406072" lon="7.373618"><ele>802.1428571428571</ele><time>2026-05-02T14:23:00.954Z</time></trkpt><trkpt lat="44.4405878" lon="7.3735255"><ele>803.2857142857142</ele><time>2026-05-02T14:23:05.954Z</time></trkpt><trkpt lat="44.4405733" lon="7.3734193"><ele>804.4285714285714</ele><time>2026-05-02T14:23:10.954Z</time></trkpt><trkpt lat="44.4405654" lon="7.3733299"><ele>805.5714285714286</ele><time>2026-05-02T14:23:14.954Z</time></trkpt><trkpt lat="44.4405572" lon="7.373224"><ele>806.7142857142858</ele><time>2026-05-02T14:23:19.954Z</time></trkpt><trkpt lat="44.4405562" lon="7.3731247"><ele>807.8571428571429</ele><time>2026-05-02T14:23:24.955Z</time></trkpt><trkpt lat="44.440588" lon="7.3730271"><ele>809.0</ele><time>2026-05-02T14:23:30.954Z</time></trkpt><trkpt lat="44.4406167" lon="7.3729311"><ele>811.1428571428571</ele><time>2026-05-02T14:23:35.954Z</time></trkpt><trkpt lat="44.4406314" lon="7.3728255"><ele>813.2857142857143</ele><time>2026-05-02T14:23:40.954Z</time></trkpt><trkpt lat="44.4406528" lon="7.3727253"><ele>815.4285714285713</ele><time>2026-05-02T14:23:45.954Z</time></trkpt><trkpt lat="44.4406877" lon="7.3726335"><ele>817.5714285714286</ele><time>2026-05-02T14:23:50.954Z</time></trkpt><trkpt lat="44.440719" lon="7.3725457"><ele>819.7142857142857</ele><time>2026-05-02T14:23:55.954Z</time></trkpt><trkpt lat="44.4407636" lon="7.3724618"><ele>821.8571428571428</ele><time>2026-05-02T14:24:00.954Z</time></trkpt><trkpt lat="44.4408044" lon="7.3723738"><ele>824.0</ele><time>2026-05-02T14:24:05.955Z</time></trkpt><trkpt lat="44.4408522" lon="7.3723157"><ele>823.9999999999999</ele><time>2026-05-02T14:24:09.954Z</time></trkpt><trkpt lat="44.4409114" lon="7.3722509"><ele>824.0</ele><time>2026-05-02T14:24:14.953Z</time></trkpt><trkpt lat="44.440953" lon="7.3721832"><ele>824.0</ele><time>2026-05-02T14:24:19.954Z</time></trkpt><trkpt lat="44.4410064" lon="7.372119"><ele>824.0</ele><time>2026-05-02T14:24:23.955Z</time></trkpt><trkpt lat="44.4410425" lon="7.3720184"><ele>824.0</ele><time>2026-05-02T14:24:28.954Z</time></trkpt><trkpt lat="44.4410606" lon="7.3719069"><ele>823.9999999999999</ele><time>2026-05-02T14:24:33.954Z</time></trkpt><trkpt lat="44.4410819" lon="7.3718107"><ele>824.0</ele><time>2026-05-02T14:24:39.954Z</time></trkpt><trkpt lat="44.4410768" lon="7.3717113"><ele>826.1428571428571</ele><time>2026-05-02T14:24:44.954Z</time></trkpt><trkpt lat="44.441065" lon="7.3716165"><ele>828.2857142857142</ele><time>2026-05-02T14:24:49.955Z</time></trkpt><trkpt lat="44.441073" lon="7.3715185"><ele>830.4285714285713</ele><time>2026-05-02T14:24:54.954Z</time></trkpt><trkpt lat="44.4410479" lon="7.3714184"><ele>832.5714285714286</ele><time>2026-05-02T14:24:58.954Z</time></trkpt><trkpt lat="44.4410195" lon="7.3713355"><ele>834.7142857142858</ele><time>2026-05-02T14:25:03.955Z</time></trkpt><trkpt lat="44.4409839" lon="7.3712473"><ele>836.8571428571428</ele><time>2026-05-02T14:25:08.955Z</time></trkpt><trkpt lat="44.4409375" lon="7.371165"><ele>839.0</ele><time>2026-05-02T14:25:13.953Z</time></trkpt><trkpt lat="44.4408945" lon="7.3710849"><ele>839.1428571428571</ele><time>2026-05-02T14:25:18.954Z</time></trkpt><trkpt lat="44.4408551" lon="7.3709948"><ele>839.2857142857143</ele><time>2026-05-02T14:25:23.954Z</time></trkpt><trkpt lat="44.4408434" lon="7.3708989"><ele>839.4285714285714</ele><time>2026-05-02T14:25:28.953Z</time></trkpt><trkpt lat="44.4408338" lon="7.3707907"><ele>839.5714285714286</ele><time>2026-05-02T14:25:33.954Z</time></trkpt><trkpt lat="44.4408349" lon="7.3706852"><ele>839.7142857142858</ele><time>2026-05-02T14:25:38.953Z</time></trkpt><trkpt lat="44.4408506" lon="7.3705983"><ele>839.8571428571429</ele><time>2026-05-02T14:25:42.953Z</time></trkpt><trkpt lat="44.4408694" lon="7.3705014"><ele>840.0</ele><time>2026-05-02T14:25:47.954Z</time></trkpt><trkpt lat="44.4408964" lon="7.3704087"><ele>840.0</ele><time>2026-05-02T14:25:52.952Z</time></trkpt><trkpt lat="44.4409195" lon="7.3703106"><ele>840.0</ele><time>2026-05-02T14:25:57.953Z</time></trkpt><trkpt lat="44.4409022" lon="7.3702096"><ele>840.0</ele><time>2026-05-02T14:26:02.953Z</time></trkpt><trkpt lat="44.4408514" lon="7.3701373"><ele>840.0</ele><time>2026-05-02T14:26:06.952Z</time></trkpt><trkpt lat="44.440809" lon="7.3700592"><ele>840.0</ele><time>2026-05-02T14:26:10.953Z</time></trkpt><trkpt lat="44.4407699" lon="7.3699728"><ele>840.0</ele><time>2026-05-02T14:26:15.952Z</time></trkpt><trkpt lat="44.4407363" lon="7.3698905"><ele>840.0</ele><time>2026-05-02T14:26:20.953Z</time></trkpt><trkpt lat="44.4407138" lon="7.369796"><ele>840.0</ele><time>2026-05-02T14:26:25.953Z</time></trkpt><trkpt lat="44.4406826" lon="7.3697099"><ele>840.0</ele><time>2026-05-02T14:26:30.953Z</time></trkpt><trkpt lat="44.440659" lon="7.3696211"><ele>840.0</ele><time>2026-05-02T14:26:35.952Z</time></trkpt><trkpt lat="44.4406168" lon="7.3695425"><ele>840.0</ele><time>2026-05-02T14:26:41.954Z</time></trkpt><trkpt lat="44.4405632" lon="7.369485"><ele>840.0</ele><time>2026-05-02T14:26:46.954Z</time></trkpt><trkpt lat="44.4404888" lon="7.3694505"><ele>840.0</ele><time>2026-05-02T14:26:51.954Z</time></trkpt><trkpt lat="44.440414" lon="7.3694386"><ele>840.0</ele><time>2026-05-02T14:26:56.953Z</time></trkpt><trkpt lat="44.4403408" lon="7.3694135"><ele>841.1428571428571</ele><time>2026-05-02T14:27:01.953Z</time></trkpt><trkpt lat="44.4402792" lon="7.3693806"><ele>842.2857142857142</ele><time>2026-05-02T14:27:05.953Z</time></trkpt><trkpt lat="44.4402241" lon="7.3693274"><ele>843.4285714285714</ele><time>2026-05-02T14:27:09.953Z</time></trkpt><trkpt lat="44.4401886" lon="7.3692544"><ele>844.5714285714286</ele><time>2026-05-02T14:27:13.953Z</time></trkpt><trkpt lat="44.4401507" lon="7.3691559"><ele>845.7142857142857</ele><time>2026-05-02T14:27:18.953Z</time></trkpt><trkpt lat="44.4401256" lon="7.3690615"><ele>846.8571428571429</ele><time>2026-05-02T14:27:23.953Z</time></trkpt><trkpt lat="44.4401134" lon="7.3689629"><ele>848.0</ele><time>2026-05-02T14:27:29.954Z</time></trkpt><trkpt lat="44.4400875" lon="7.3688674"><ele>848.0</ele><time>2026-05-02T14:27:34.953Z</time></trkpt><trkpt lat="44.4400361" lon="7.3687944"><ele>848.0</ele><time>2026-05-02T14:27:39.954Z</time></trkpt><trkpt lat="44.4399727" lon="7.3687657"><ele>848.0</ele><time>2026-05-02T14:27:44.952Z</time></trkpt><trkpt lat="44.439911" lon="7.3687869"><ele>848.0</ele><time>2026-05-02T14:27:49.954Z</time></trkpt><trkpt lat="44.4398615" lon="7.368862"><ele>848.0</ele><time>2026-05-02T14:27:54.952Z</time></trkpt><trkpt lat="44.4398276" lon="7.3689623"><ele>848.0</ele><time>2026-05-02T14:27:59.954Z</time></trkpt><trkpt lat="44.4398132" lon="7.3690675"><ele>848.0</ele><time>2026-05-02T14:28:04.953Z</time></trkpt><trkpt lat="44.4397869" lon="7.3691526"><ele>848.0</ele><time>2026-05-02T14:28:08.954Z</time></trkpt><trkpt lat="44.4397598" lon="7.369238"><ele>848.0</ele><time>2026-05-02T14:28:12.953Z</time></trkpt><trkpt lat="44.439695" lon="7.369297"><ele>848.0</ele><time>2026-05-02T14:28:16.954Z</time></trkpt><trkpt lat="44.4396236" lon="7.3692986"><ele>848.0</ele><time>2026-05-02T14:28:19.953Z</time></trkpt><trkpt lat="44.4395719" lon="7.3692397"><ele>848.0</ele><time>2026-05-02T14:28:22.953Z</time></trkpt><trkpt lat="44.4395173" lon="7.3691701"><ele>848.0</ele><time>2026-05-02T14:28:25.953Z</time></trkpt><trkpt lat="44.4394646" lon="7.3690797"><ele>848.0</ele><time>2026-05-02T14:28:28.954Z</time></trkpt><trkpt lat="44.439415" lon="7.3689816"><ele>849.3333333333334</ele><time>2026-05-02T14:28:31.953Z</time></trkpt><trkpt lat="44.4393608" lon="7.3688908"><ele>850.6666666666667</ele><time>2026-05-02T14:28:34.952Z</time></trkpt><trkpt lat="44.4393011" lon="7.3688104"><ele>852.0</ele><time>2026-05-02T14:28:38.954Z</time></trkpt><trkpt lat="44.4392528" lon="7.368733"><ele>853.3333333333333</ele><time>2026-05-02T14:28:41.953Z</time></trkpt><trkpt lat="44.4392112" lon="7.368644"><ele>854.6666666666666</ele><time>2026-05-02T14:28:44.953Z</time></trkpt><trkpt lat="44.4391828" lon="7.3685588"><ele>856.0</ele><time>2026-05-02T14:28:47.953Z</time></trkpt><trkpt lat="44.4391555" lon="7.3684572"><ele>856.0000000000001</ele><time>2026-05-02T14:28:51.953Z</time></trkpt><trkpt lat="44.4390808" lon="7.3684443"><ele>856.0</ele><time>2026-05-02T14:28:55.953Z</time></trkpt><trkpt lat="44.4390043" lon="7.3684426"><ele>856.0</ele><time>2026-05-02T14:28:59.952Z</time></trkpt><trkpt lat="44.4389359" lon="7.3684143"><ele>856.0</ele><time>2026-05-02T14:29:03.952Z</time></trkpt><trkpt lat="44.4388684" lon="7.3683881"><ele>856.0</ele><time>2026-05-02T14:29:08.953Z</time></trkpt><trkpt lat="44.4388053" lon="7.3683337"><ele>856.0000000000001</ele><time>2026-05-02T14:29:13.953Z</time></trkpt><trkpt lat="44.4387424" lon="7.3682866"><ele>856.0</ele><time>2026-05-02T14:29:18.954Z</time></trkpt><trkpt lat="44.4386914" lon="7.3682212"><ele>860.1428571428572</ele><time>2026-05-02T14:29:22.953Z</time></trkpt><trkpt lat="44.4386618" lon="7.3681366"><ele>864.2857142857143</ele><time>2026-05-02T14:29:26.952Z</time></trkpt><trkpt lat="44.4386527" lon="7.3680447"><ele>868.4285714285714</ele><time>2026-05-02T14:29:31.954Z</time></trkpt><trkpt lat="44.4386469" lon="7.3679417"><ele>872.5714285714287</ele><time>2026-05-02T14:29:36.953Z</time></trkpt><trkpt lat="44.4386456" lon="7.3678387"><ele>876.7142857142857</ele><time>2026-05-02T14:29:41.954Z</time></trkpt><trkpt lat="44.4386343" lon="7.3677384"><ele>880.8571428571429</ele><time>2026-05-02T14:29:47.953Z</time></trkpt><trkpt lat="44.4386196" lon="7.3676472"><ele>885.0</ele><time>2026-05-02T14:29:53.952Z</time></trkpt><trkpt lat="44.4385947" lon="7.3675644"><ele>885.0</ele><time>2026-05-02T14:29:57.952Z</time></trkpt><trkpt lat="44.4385725" lon="7.3674714"><ele>885.0</ele><time>2026-05-02T14:30:02.953Z</time></trkpt><trkpt lat="44.4385474" lon="7.3673849"><ele>885.0</ele><time>2026-05-02T14:30:07.953Z</time></trkpt><trkpt lat="44.4385219" lon="7.3672962"><ele>885.0</ele><time>2026-05-02T14:30:12.953Z</time></trkpt><trkpt lat="44.438494" lon="7.3672014"><ele>885.0</ele><time>2026-05-02T14:30:18.953Z</time></trkpt><trkpt lat="44.4384653" lon="7.3671202"><ele>885.0</ele><time>2026-05-02T14:30:23.952Z</time></trkpt><trkpt lat="44.4384478" lon="7.3670346"><ele>885.0</ele><time>2026-05-02T14:30:27.952Z</time></trkpt><trkpt lat="44.4384538" lon="7.3669407"><ele>886.1428571428571</ele><time>2026-05-02T14:30:32.952Z</time></trkpt><trkpt lat="44.4384581" lon="7.3668444"><ele>887.2857142857142</ele><time>2026-05-02T14:30:37.952Z</time></trkpt><trkpt lat="44.4384861" lon="7.3667607"><ele>888.4285714285714</ele><time>2026-05-02T14:30:41.953Z</time></trkpt><trkpt lat="44.438534" lon="7.366675"><ele>889.5714285714286</ele><time>2026-05-02T14:30:46.951Z</time></trkpt><trkpt lat="44.438587" lon="7.3666179"><ele>890.7142857142858</ele><time>2026-05-02T14:30:50.952Z</time></trkpt><trkpt lat="44.4386473" lon="7.3665554"><ele>891.8571428571429</ele><time>2026-05-02T14:30:55.951Z</time></trkpt><trkpt lat="44.4387003" lon="7.3664838"><ele>893.0</ele><time>2026-05-02T14:31:00.953Z</time></trkpt><trkpt lat="44.4387485" lon="7.3664081"><ele>895.4285714285714</ele><time>2026-05-02T14:31:05.952Z</time></trkpt><trkpt lat="44.4387836" lon="7.366333"><ele>897.8571428571429</ele><time>2026-05-02T14:31:10.951Z</time></trkpt><trkpt lat="44.4387878" lon="7.3662231"><ele>900.2857142857142</ele><time>2026-05-02T14:31:15.952Z</time></trkpt><trkpt lat="44.4387923" lon="7.3661241"><ele>902.7142857142858</ele><time>2026-05-02T14:31:21.951Z</time></trkpt><trkpt lat="44.4387908" lon="7.3660305"><ele>905.1428571428571</ele><time>2026-05-02T14:31:26.952Z</time></trkpt><trkpt lat="44.4387934" lon="7.3659418"><ele>907.5714285714286</ele><time>2026-05-02T14:31:32.951Z</time></trkpt><trkpt lat="44.4387914" lon="7.3658522"><ele>910.0</ele><time>2026-05-02T14:31:38.951Z</time></trkpt><trkpt lat="44.438778" lon="7.3657484"><ele>910.0</ele><time>2026-05-02T14:31:42.952Z</time></trkpt><trkpt lat="44.4387655" lon="7.3656432"><ele>910.0</ele><time>2026-05-02T14:31:47.952Z</time></trkpt><trkpt lat="44.4387683" lon="7.3655449"><ele>910.0</ele><time>2026-05-02T14:31:52.953Z</time></trkpt><trkpt lat="44.4387431" lon="7.3654429"><ele>910.0</ele><time>2026-05-02T14:31:57.952Z</time></trkpt><trkpt lat="44.4387307" lon="7.3653491"><ele>910.0</ele><time>2026-05-02T14:32:02.952Z</time></trkpt><trkpt lat="44.4387248" lon="7.365249"><ele>910.0</ele><time>2026-05-02T14:32:07.952Z</time></trkpt><trkpt lat="44.4387093" lon="7.3651494"><ele>910.0</ele><time>2026-05-02T14:32:12.953Z</time></trkpt><trkpt lat="44.4387032" lon="7.3650486"><ele>911.2857142857142</ele><time>2026-05-02T14:32:18.952Z</time></trkpt><trkpt lat="44.4387066" lon="7.3649546"><ele>912.5714285714286</ele><time>2026-05-02T14:32:23.953Z</time></trkpt><trkpt lat="44.4387125" lon="7.3648662"><ele>913.8571428571429</ele><time>2026-05-02T14:32:28.952Z</time></trkpt><trkpt lat="44.4387121" lon="7.364773"><ele>915.1428571428571</ele><time>2026-05-02T14:32:33.952Z</time></trkpt><trkpt lat="44.4387235" lon="7.3646738"><ele>916.4285714285713</ele><time>2026-05-02T14:32:38.952Z</time></trkpt><trkpt lat="44.4387225" lon="7.3645755"><ele>917.7142857142857</ele><time>2026-05-02T14:32:43.951Z</time></trkpt><trkpt lat="44.4387422" lon="7.3644892"><ele>919.0</ele><time>2026-05-02T14:32:48.953Z</time></trkpt><trkpt lat="44.4387798" lon="7.3644148"><ele>919.1428571428571</ele><time>2026-05-02T14:32:54.952Z</time></trkpt><trkpt lat="44.4388103" lon="7.3643242"><ele>919.2857142857142</ele><time>2026-05-02T14:33:00.953Z</time></trkpt><trkpt lat="44.4388321" lon="7.3642244"><ele>919.4285714285713</ele><time>2026-05-02T14:33:06.953Z</time></trkpt><trkpt lat="44.4388183" lon="7.3641221"><ele>919.5714285714284</ele><time>2026-05-02T14:33:12.952Z</time></trkpt><trkpt lat="44.438758" lon="7.3640651"><ele>919.7142857142857</ele><time>2026-05-02T14:33:18.952Z</time></trkpt><trkpt lat="44.438696" lon="7.364038"><ele>919.8571428571427</ele><time>2026-05-02T14:33:23.952Z</time></trkpt><trkpt lat="44.4386295" lon="7.3639951"><ele>919.9999999999999</ele><time>2026-05-02T14:33:29.952Z</time></trkpt><trkpt lat="44.4385806" lon="7.3639328"><ele>918.5714285714284</ele><time>2026-05-02T14:33:35.952Z</time></trkpt><trkpt lat="44.4385321" lon="7.3638546"><ele>917.1428571428571</ele><time>2026-05-02T14:33:40.951Z</time></trkpt><trkpt lat="44.4384925" lon="7.363781"><ele>915.7142857142857</ele><time>2026-05-02T14:33:45.951Z</time></trkpt><trkpt lat="44.438468" lon="7.3636827"><ele>914.2857142857142</ele><time>2026-05-02T14:33:50.952Z</time></trkpt><trkpt lat="44.4384725" lon="7.3635911"><ele>912.8571428571429</ele><time>2026-05-02T14:33:55.952Z</time></trkpt><trkpt lat="44.4384539" lon="7.3634991"><ele>911.4285714285714</ele><time>2026-05-02T14:34:00.951Z</time></trkpt><trkpt lat="44.4383906" lon="7.3634312"><ele>910.0</ele><time>2026-05-02T14:34:05.953Z</time></trkpt><trkpt lat="44.4383164" lon="7.3633884"><ele>910.0</ele><time>2026-05-02T14:34:10.952Z</time></trkpt><trkpt lat="44.4382881" lon="7.3633094"><ele>910.0</ele><time>2026-05-02T14:34:13.952Z</time></trkpt><trkpt lat="44.4382749" lon="7.3632184"><ele>910.0</ele><time>2026-05-02T14:34:16.952Z</time></trkpt><trkpt lat="44.4382409" lon="7.3631326"><ele>910.0</ele><time>2026-05-02T14:34:20.951Z</time></trkpt><trkpt lat="44.4382004" lon="7.3630475"><ele>910.0</ele><time>2026-05-02T14:34:24.952Z</time></trkpt><trkpt lat="44.4381708" lon="7.3629582"><ele>910.0</ele><time>2026-05-02T14:34:28.952Z</time></trkpt><trkpt lat="44.4381631" lon="7.3628527"><ele>910.0</ele><time>2026-05-02T14:34:33.951Z</time></trkpt><trkpt lat="44.4381668" lon="7.3627548"><ele>912.4999999999999</ele><time>2026-05-02T14:34:38.952Z</time></trkpt><trkpt lat="44.4381269" lon="7.3626782"><ele>915.0</ele><time>2026-05-02T14:34:43.953Z</time></trkpt><trkpt lat="44.4380511" lon="7.3626332"><ele>917.5</ele><time>2026-05-02T14:34:47.953Z</time></trkpt><trkpt lat="44.4379716" lon="7.3625889"><ele>920.0</ele><time>2026-05-02T14:34:50.953Z</time></trkpt><trkpt lat="44.4378989" lon="7.3625728"><ele>922.4999999999999</ele><time>2026-05-02T14:34:52.952Z</time></trkpt><trkpt lat="44.4378246" lon="7.3625268"><ele>925.0</ele><time>2026-05-02T14:34:54.952Z</time></trkpt><trkpt lat="44.437759" lon="7.3624496"><ele>924.9999999999999</ele><time>2026-05-02T14:34:57.952Z</time></trkpt><trkpt lat="44.4376865" lon="7.3623802"><ele>925.0</ele><time>2026-05-02T14:35:00.951Z</time></trkpt><trkpt lat="44.4376209" lon="7.3622895"><ele>925.0</ele><time>2026-05-02T14:35:03.951Z</time></trkpt><trkpt lat="44.4375916" lon="7.3621923"><ele>925.0</ele><time>2026-05-02T14:35:05.951Z</time></trkpt><trkpt lat="44.4375687" lon="7.3620993"><ele>924.9999999999999</ele><time>2026-05-02T14:35:07.951Z</time></trkpt><trkpt lat="44.4375499" lon="7.3620104"><ele>925.0</ele><time>2026-05-02T14:35:09.951Z</time></trkpt><trkpt lat="44.4375353" lon="7.3619234"><ele>922.6666666666666</ele><time>2026-05-02T14:35:11.951Z</time></trkpt><trkpt lat="44.4375127" lon="7.3618106"><ele>920.3333333333333</ele><time>2026-05-02T14:35:14.95Z</time></trkpt><trkpt lat="44.4374917" lon="7.3616933"><ele>918.0</ele><time>2026-05-02T14:35:17.951Z</time></trkpt><trkpt lat="44.4374753" lon="7.3615916"><ele>915.6666666666667</ele><time>2026-05-02T14:35:19.951Z</time></trkpt><trkpt lat="44.4374603" lon="7.3614705"><ele>913.3333333333334</ele><time>2026-05-02T14:35:21.952Z</time></trkpt><trkpt lat="44.4374506" lon="7.3613467"><ele>911.0</ele><time>2026-05-02T14:35:23.951Z</time></trkpt><trkpt lat="44.4374465" lon="7.3612238"><ele>909.4</ele><time>2026-05-02T14:35:25.951Z</time></trkpt><trkpt lat="44.4374384" lon="7.3610959"><ele>907.8</ele><time>2026-05-02T14:35:27.952Z</time></trkpt><trkpt lat="44.437435" lon="7.3609574"><ele>906.1999999999999</ele><time>2026-05-02T14:35:29.951Z</time></trkpt><trkpt lat="44.4374227" lon="7.3608167"><ele>904.5999999999999</ele><time>2026-05-02T14:35:31.951Z</time></trkpt><trkpt lat="44.4374032" lon="7.3606638"><ele>903.0</ele><time>2026-05-02T14:35:33.951Z</time></trkpt><trkpt lat="44.4373876" lon="7.3605052"><ele>902.0</ele><time>2026-05-02T14:35:35.95Z</time></trkpt><trkpt lat="44.4373785" lon="7.3603466"><ele>901.0</ele><time>2026-05-02T14:35:37.951Z</time></trkpt><trkpt lat="44.437389" lon="7.3601783"><ele>900.0</ele><time>2026-05-02T14:35:39.952Z</time></trkpt><trkpt lat="44.4373892" lon="7.360088"><ele>899.0</ele><time>2026-05-02T14:35:40.951Z</time></trkpt><trkpt lat="44.4373966" lon="7.3599879"><ele>898.0</ele><time>2026-05-02T14:35:41.951Z</time></trkpt><trkpt lat="44.4374002" lon="7.3598992"><ele>897.0</ele><time>2026-05-02T14:35:42.95Z</time></trkpt><trkpt lat="44.437412" lon="7.3597303"><ele>895.2</ele><time>2026-05-02T14:35:44.951Z</time></trkpt><trkpt lat="44.4374178" lon="7.3595986"><ele>893.4000000000001</ele><time>2026-05-02T14:35:46.951Z</time></trkpt><trkpt lat="44.437367" lon="7.3595174"><ele>891.5999999999999</ele><time>2026-05-02T14:35:48.951Z</time></trkpt><trkpt lat="44.4372993" lon="7.3593878"><ele>889.8</ele><time>2026-05-02T14:35:50.95Z</time></trkpt><trkpt lat="44.437236" lon="7.3592499"><ele>888.0</ele><time>2026-05-02T14:35:52.951Z</time></trkpt><trkpt lat="44.4371716" lon="7.359113"><ele>891.3333333333334</ele><time>2026-05-02T14:35:54.952Z</time></trkpt><trkpt lat="44.4371031" lon="7.3589861"><ele>894.6666666666667</ele><time>2026-05-02T14:35:56.952Z</time></trkpt><trkpt lat="44.4370679" lon="7.3588804"><ele>898.0</ele><time>2026-05-02T14:35:57.951Z</time></trkpt><trkpt lat="44.4370789" lon="7.3587853"><ele>901.3333333333334</ele><time>2026-05-02T14:35:58.951Z</time></trkpt><trkpt lat="44.4370867" lon="7.3586875"><ele>904.6666666666667</ele><time>2026-05-02T14:35:59.951Z</time></trkpt><trkpt lat="44.4371294" lon="7.3586054"><ele>908.0</ele><time>2026-05-02T14:36:00.951Z</time></trkpt><trkpt lat="44.4371698" lon="7.3585338"><ele>908.0000000000001</ele><time>2026-05-02T14:36:01.951Z</time></trkpt><trkpt lat="44.437263" lon="7.3584978"><ele>908.0</ele><time>2026-05-02T14:36:03.95Z</time></trkpt><trkpt lat="44.4373376" lon="7.3584323"><ele>908.0</ele><time>2026-05-02T14:36:05.951Z</time></trkpt><trkpt lat="44.4373987" lon="7.3583587"><ele>908.0</ele><time>2026-05-02T14:36:07.951Z</time></trkpt><trkpt lat="44.4374531" lon="7.3582966"><ele>908.0000000000001</ele><time>2026-05-02T14:36:09.952Z</time></trkpt><trkpt lat="44.4375182" lon="7.3582085"><ele>908.0</ele><time>2026-05-02T14:36:12.95Z</time></trkpt><trkpt lat="44.4375698" lon="7.3581377"><ele>908.0</ele><time>2026-05-02T14:36:15.951Z</time></trkpt><trkpt lat="44.437625" lon="7.3580719"><ele>908.0000000000001</ele><time>2026-05-02T14:36:19.952Z</time></trkpt><trkpt lat="44.4376781" lon="7.3580069"><ele>908.0</ele><time>2026-05-02T14:36:24.951Z</time></trkpt><trkpt lat="44.4377268" lon="7.3579325"><ele>908.0</ele><time>2026-05-02T14:36:29.951Z</time></trkpt><trkpt lat="44.4377799" lon="7.3578631"><ele>908.0000000000001</ele><time>2026-05-02T14:36:34.951Z</time></trkpt><trkpt lat="44.4378268" lon="7.3577851"><ele>908.0</ele><time>2026-05-02T14:36:39.952Z</time></trkpt><trkpt lat="44.4378691" lon="7.3577071"><ele>908.0</ele><time>2026-05-02T14:36:44.952Z</time></trkpt><trkpt lat="44.4379102" lon="7.357626"><ele>907.4285714285714</ele><time>2026-05-02T14:36:49.952Z</time></trkpt><trkpt lat="44.437962" lon="7.3575456"><ele>906.8571428571429</ele><time>2026-05-02T14:36:54.952Z</time></trkpt><trkpt lat="44.4380085" lon="7.3574727"><ele>906.2857142857143</ele><time>2026-05-02T14:36:59.952Z</time></trkpt><trkpt lat="44.4380676" lon="7.3573967"><ele>905.7142857142858</ele><time>2026-05-02T14:37:04.952Z</time></trkpt><trkpt lat="44.4381121" lon="7.3573248"><ele>905.1428571428571</ele><time>2026-05-02T14:37:08.951Z</time></trkpt><trkpt lat="44.4381524" lon="7.3572319"><ele>904.5714285714287</ele><time>2026-05-02T14:37:13.952Z</time></trkpt><trkpt lat="44.4381828" lon="7.357154"><ele>904.0</ele><time>2026-05-02T14:37:17.951Z</time></trkpt><trkpt lat="44.4382156" lon="7.3570599"><ele>908.1428571428571</ele><time>2026-05-02T14:37:22.951Z</time></trkpt><trkpt lat="44.4382703" lon="7.3569779"><ele>912.2857142857142</ele><time>2026-05-02T14:37:27.951Z</time></trkpt><trkpt lat="44.4383291" lon="7.3569348"><ele>916.4285714285713</ele><time>2026-05-02T14:37:30.95Z</time></trkpt><trkpt lat="44.4383933" lon="7.3569506"><ele>920.5714285714286</ele><time>2026-05-02T14:37:33.952Z</time></trkpt><trkpt lat="44.4384637" lon="7.3569952"><ele>924.7142857142856</ele><time>2026-05-02T14:37:37.951Z</time></trkpt><trkpt lat="44.4385337" lon="7.357043"><ele>928.8571428571428</ele><time>2026-05-02T14:37:41.951Z</time></trkpt><trkpt lat="44.4386045" lon="7.35708"><ele>933.0</ele><time>2026-05-02T14:37:45.952Z</time></trkpt><trkpt lat="44.4386905" lon="7.3571053"><ele>933.0</ele><time>2026-05-02T14:37:49.95Z</time></trkpt><trkpt lat="44.4387684" lon="7.3571058"><ele>933.0</ele><time>2026-05-02T14:37:51.95Z</time></trkpt><trkpt lat="44.4388603" lon="7.3571357"><ele>933.0</ele><time>2026-05-02T14:37:53.951Z</time></trkpt><trkpt lat="44.4389186" lon="7.357234"><ele>933.0</ele><time>2026-05-02T14:37:55.951Z</time></trkpt><trkpt lat="44.4389687" lon="7.3573298"><ele>933.0</ele><time>2026-05-02T14:37:57.951Z</time></trkpt><trkpt lat="44.4390149" lon="7.3574104"><ele>933.0</ele><time>2026-05-02T14:37:59.951Z</time></trkpt><trkpt lat="44.4390796" lon="7.3574724"><ele>930.7142857142857</ele><time>2026-05-02T14:38:01.951Z</time></trkpt><trkpt lat="44.4391512" lon="7.3575303"><ele>928.4285714285713</ele><time>2026-05-02T14:38:03.951Z</time></trkpt><trkpt lat="44.4392061" lon="7.3575791"><ele>926.1428571428571</ele><time>2026-05-02T14:38:05.951Z</time></trkpt><trkpt lat="44.4392727" lon="7.3576585"><ele>923.8571428571429</ele><time>2026-05-02T14:38:08.952Z</time></trkpt><trkpt lat="44.4393184" lon="7.3577227"><ele>921.5714285714286</ele><time>2026-05-02T14:38:10.951Z</time></trkpt><trkpt lat="44.439367" lon="7.3577924"><ele>919.2857142857142</ele><time>2026-05-02T14:38:12.952Z</time></trkpt><trkpt lat="44.4394068" lon="7.3578697"><ele>917.0</ele><time>2026-05-02T14:38:14.952Z</time></trkpt><trkpt lat="44.4394627" lon="7.3579699"><ele>915.2857142857142</ele><time>2026-05-02T14:38:17.951Z</time></trkpt><trkpt lat="44.4395223" lon="7.3580553"><ele>913.5714285714286</ele><time>2026-05-02T14:38:20.952Z</time></trkpt><trkpt lat="44.4395674" lon="7.3581171"><ele>911.8571428571429</ele><time>2026-05-02T14:38:22.952Z</time></trkpt><trkpt lat="44.4396194" lon="7.3581726"><ele>910.1428571428571</ele><time>2026-05-02T14:38:24.952Z</time></trkpt><trkpt lat="44.4396754" lon="7.3582154"><ele>908.4285714285713</ele><time>2026-05-02T14:38:26.95Z</time></trkpt><trkpt lat="44.4397587" lon="7.3582123"><ele>906.7142857142857</ele><time>2026-05-02T14:38:29.951Z</time></trkpt><trkpt lat="44.4398416" lon="7.3581909"><ele>905.0</ele><time>2026-05-02T14:38:32.952Z</time></trkpt><trkpt lat="44.4399236" lon="7.3581894"><ele>905.0000000000001</ele><time>2026-05-02T14:38:35.951Z</time></trkpt><trkpt lat="44.4400154" lon="7.3582164"><ele>905.0</ele><time>2026-05-02T14:38:38.95Z</time></trkpt><trkpt lat="44.4400868" lon="7.3582294"><ele>905.0</ele><time>2026-05-02T14:38:40.951Z</time></trkpt><trkpt lat="44.440165" lon="7.3582197"><ele>905.0</ele><time>2026-05-02T14:38:42.951Z</time></trkpt><trkpt lat="44.4402408" lon="7.3581918"><ele>905.0000000000001</ele><time>2026-05-02T14:38:44.951Z</time></trkpt><trkpt lat="44.44032" lon="7.3581735"><ele>905.0</ele><time>2026-05-02T14:38:46.951Z</time></trkpt><trkpt lat="44.4403914" lon="7.358201"><ele>905.0</ele><time>2026-05-02T14:38:48.95Z</time></trkpt><trkpt lat="44.4404488" lon="7.3582493"><ele>904.9999999999999</ele><time>2026-05-02T14:38:50.951Z</time></trkpt><trkpt lat="44.4405031" lon="7.3582948"><ele>905.0</ele><time>2026-05-02T14:38:52.951Z</time></trkpt><trkpt lat="44.4405644" lon="7.3583324"><ele>905.0</ele><time>2026-05-02T14:38:54.951Z</time></trkpt><trkpt lat="44.4406386" lon="7.3583609"><ele>904.9999999999999</ele><time>2026-05-02T14:38:56.952Z</time></trkpt><trkpt lat="44.4407163" lon="7.3584078"><ele>905.0</ele><time>2026-05-02T14:38:58.951Z</time></trkpt><trkpt lat="44.4407789" lon="7.3584757"><ele>905.0</ele><time>2026-05-02T14:39:00.952Z</time></trkpt><trkpt lat="44.4408372" lon="7.3585493"><ele>906.8333333333334</ele><time>2026-05-02T14:39:02.95Z</time></trkpt><trkpt lat="44.4409037" lon="7.3586317"><ele>908.6666666666667</ele><time>2026-05-02T14:39:04.952Z</time></trkpt><trkpt lat="44.4409788" lon="7.358681"><ele>910.5</ele><time>2026-05-02T14:39:06.952Z</time></trkpt><trkpt lat="44.4410543" lon="7.3586738"><ele>912.3333333333333</ele><time>2026-05-02T14:39:08.951Z</time></trkpt><trkpt lat="44.4411291" lon="7.358667"><ele>914.1666666666666</ele><time>2026-05-02T14:39:10.95Z</time></trkpt><trkpt lat="44.4412109" lon="7.358692"><ele>916.0</ele><time>2026-05-02T14:39:12.951Z</time></trkpt><trkpt lat="44.4412985" lon="7.3587496"><ele>917.1666666666666</ele><time>2026-05-02T14:39:14.951Z</time></trkpt><trkpt lat="44.4413656" lon="7.3588386"><ele>918.3333333333333</ele><time>2026-05-02T14:39:16.952Z</time></trkpt><trkpt lat="44.4414283" lon="7.358916"><ele>919.5</ele><time>2026-05-02T14:39:18.951Z</time></trkpt><trkpt lat="44.4414875" lon="7.3589943"><ele>920.6666666666667</ele><time>2026-05-02T14:39:20.951Z</time></trkpt><trkpt lat="44.4415338" lon="7.3590577"><ele>921.8333333333334</ele><time>2026-05-02T14:39:22.951Z</time></trkpt><trkpt lat="44.4415885" lon="7.3591453"><ele>923.0</ele><time>2026-05-02T14:39:25.951Z</time></trkpt><trkpt lat="44.4416452" lon="7.3592039"><ele>919.1666666666667</ele><time>2026-05-02T14:39:27.952Z</time></trkpt><trkpt lat="44.441711" lon="7.3592572"><ele>915.3333333333334</ele><time>2026-05-02T14:39:29.951Z</time></trkpt><trkpt lat="44.4417835" lon="7.3592904"><ele>911.5</ele><time>2026-05-02T14:39:31.952Z</time></trkpt><trkpt lat="44.4418635" lon="7.3593102"><ele>907.6666666666667</ele><time>2026-05-02T14:39:33.951Z</time></trkpt><trkpt lat="44.441934" lon="7.3593031"><ele>903.8333333333334</ele><time>2026-05-02T14:39:35.95Z</time></trkpt><trkpt lat="44.4419967" lon="7.3592473"><ele>900.0</ele><time>2026-05-02T14:39:38.951Z</time></trkpt><trkpt lat="44.4420253" lon="7.3591514"><ele>900.0</ele><time>2026-05-02T14:39:43.951Z</time></trkpt><trkpt lat="44.4420256" lon="7.3590623"><ele>900.0</ele><time>2026-05-02T14:39:46.952Z</time></trkpt><trkpt lat="44.44201" lon="7.3589403"><ele>900.0</ele><time>2026-05-02T14:39:50.951Z</time></trkpt><trkpt lat="44.4420032" lon="7.3588157"><ele>900.0</ele><time>2026-05-02T14:39:53.952Z</time></trkpt><trkpt lat="44.4420053" lon="7.358726"><ele>900.0</ele><time>2026-05-02T14:39:55.951Z</time></trkpt><trkpt lat="44.4420386" lon="7.3586233"><ele>900.0</ele><time>2026-05-02T14:39:58.952Z</time></trkpt><trkpt lat="44.4420822" lon="7.3585216"><ele>903.8333333333334</ele><time>2026-05-02T14:40:01.951Z</time></trkpt><trkpt lat="44.442105" lon="7.3584088"><ele>907.6666666666667</ele><time>2026-05-02T14:40:05.951Z</time></trkpt><trkpt lat="44.4420718" lon="7.3583282"><ele>911.5</ele><time>2026-05-02T14:40:10.951Z</time></trkpt><trkpt lat="44.4420255" lon="7.3582366"><ele>915.3333333333334</ele><time>2026-05-02T14:40:13.951Z</time></trkpt><trkpt lat="44.4419856" lon="7.3581506"><ele>919.1666666666667</ele><time>2026-05-02T14:40:16.951Z</time></trkpt><trkpt lat="44.4419601" lon="7.358049"><ele>923.0</ele><time>2026-05-02T14:40:20.951Z</time></trkpt><trkpt lat="44.4419489" lon="7.3579534"><ele>925.1428571428571</ele><time>2026-05-02T14:40:24.95Z</time></trkpt><trkpt lat="44.4419426" lon="7.3578592"><ele>927.2857142857143</ele><time>2026-05-02T14:40:29.951Z</time></trkpt><trkpt lat="44.4419171" lon="7.3577657"><ele>929.4285714285714</ele><time>2026-05-02T14:40:34.951Z</time></trkpt><trkpt lat="44.4418842" lon="7.3576774"><ele>931.5714285714286</ele><time>2026-05-02T14:40:39.952Z</time></trkpt><trkpt lat="44.4418679" lon="7.3575815"><ele>933.7142857142858</ele><time>2026-05-02T14:40:43.95Z</time></trkpt><trkpt lat="44.4418857" lon="7.3574945"><ele>935.8571428571429</ele><time>2026-05-02T14:40:47.951Z</time></trkpt><trkpt lat="44.4419359" lon="7.3574207"><ele>938.0</ele><time>2026-05-02T14:40:51.95Z</time></trkpt><trkpt lat="44.4420041" lon="7.3573927"><ele>938.0</ele><time>2026-05-02T14:40:55.95Z</time></trkpt><trkpt lat="44.4420712" lon="7.3573989"><ele>938.0</ele><time>2026-05-02T14:40:59.949Z</time></trkpt><trkpt lat="44.4421393" lon="7.3574113"><ele>938.0</ele><time>2026-05-02T14:41:03.949Z</time></trkpt><trkpt lat="44.4422132" lon="7.3574352"><ele>938.0</ele><time>2026-05-02T14:41:08.95Z</time></trkpt><trkpt lat="44.4422733" lon="7.3574712"><ele>938.0</ele><time>2026-05-02T14:41:13.951Z</time></trkpt><trkpt lat="44.4423421" lon="7.3575005"><ele>938.0</ele><time>2026-05-02T14:41:18.95Z</time></trkpt><trkpt lat="44.4424084" lon="7.3575233"><ele>938.0</ele><time>2026-05-02T14:41:23.951Z</time></trkpt><trkpt lat="44.4424732" lon="7.3575451"><ele>935.8571428571429</ele><time>2026-05-02T14:41:28.95Z</time></trkpt><trkpt lat="44.4425469" lon="7.3575481"><ele>933.7142857142858</ele><time>2026-05-02T14:41:33.949Z</time></trkpt><trkpt lat="44.4426161" lon="7.3575304"><ele>931.5714285714286</ele><time>2026-05-02T14:41:38.95Z</time></trkpt><trkpt lat="44.4426867" lon="7.3575126"><ele>929.4285714285714</ele><time>2026-05-02T14:41:44.95Z</time></trkpt><trkpt lat="44.4427484" lon="7.3574754"><ele>927.2857142857143</ele><time>2026-05-02T14:41:49.95Z</time></trkpt><trkpt lat="44.4428077" lon="7.3574094"><ele>925.1428571428571</ele><time>2026-05-02T14:41:55.951Z</time></trkpt><trkpt lat="44.4428567" lon="7.3573314"><ele>923.0</ele><time>2026-05-02T14:42:01.95Z</time></trkpt><trkpt lat="44.4428949" lon="7.3572462"><ele>924.0</ele><time>2026-05-02T14:42:07.951Z</time></trkpt><trkpt lat="44.4429313" lon="7.3571709"><ele>925.0</ele><time>2026-05-02T14:42:12.95Z</time></trkpt><trkpt lat="44.4429603" lon="7.3570862"><ele>926.0</ele><time>2026-05-02T14:42:17.95Z</time></trkpt><trkpt lat="44.4429876" lon="7.3569993"><ele>927.0</ele><time>2026-05-02T14:42:22.95Z</time></trkpt><trkpt lat="44.4430082" lon="7.3568996"><ele>928.0</ele><time>2026-05-02T14:42:27.95Z</time></trkpt><trkpt lat="44.4430276" lon="7.3567957"><ele>929.0</ele><time>2026-05-02T14:42:32.951Z</time></trkpt><trkpt lat="44.443058" lon="7.3567107"><ele>930.0</ele><time>2026-05-02T14:42:37.949Z</time></trkpt><trkpt lat="44.4431031" lon="7.3566343"><ele>930.0</ele><time>2026-05-02T14:42:42.951Z</time></trkpt><trkpt lat="44.4431548" lon="7.3565736"><ele>930.0</ele><time>2026-05-02T14:42:47.95Z</time></trkpt><trkpt lat="44.4432055" lon="7.3565039"><ele>930.0</ele><time>2026-05-02T14:42:53.95Z</time></trkpt><trkpt lat="44.4432519" lon="7.3564316"><ele>930.0</ele><time>2026-05-02T14:42:59.95Z</time></trkpt><trkpt lat="44.4432922" lon="7.3563573"><ele>930.0</ele><time>2026-05-02T14:43:04.951Z</time></trkpt><trkpt lat="44.4433296" lon="7.3562794"><ele>930.0</ele><time>2026-05-02T14:43:09.95Z</time></trkpt><trkpt lat="44.4433782" lon="7.3561979"><ele>930.0</ele><time>2026-05-02T14:43:15.951Z</time></trkpt><trkpt lat="44.4434164" lon="7.3561117"><ele>932.7142857142857</ele><time>2026-05-02T14:43:20.95Z</time></trkpt><trkpt lat="44.4434462" lon="7.3560199"><ele>935.4285714285716</ele><time>2026-05-02T14:43:25.951Z</time></trkpt><trkpt lat="44.4434763" lon="7.3559253"><ele>938.1428571428572</ele><time>2026-05-02T14:43:30.95Z</time></trkpt><trkpt lat="44.4435078" lon="7.3558434"><ele>940.8571428571429</ele><time>2026-05-02T14:43:34.95Z</time></trkpt><trkpt lat="44.4435601" lon="7.3557848"><ele>943.5714285714287</ele><time>2026-05-02T14:43:38.95Z</time></trkpt><trkpt lat="44.443613" lon="7.3557299"><ele>946.2857142857144</ele><time>2026-05-02T14:43:43.95Z</time></trkpt><trkpt lat="44.4436729" lon="7.3556825"><ele>949.0000000000001</ele><time>2026-05-02T14:43:49.95Z</time></trkpt><trkpt lat="44.443695" lon="7.3555906"><ele>947.857142857143</ele><time>2026-05-02T14:43:54.95Z</time></trkpt><trkpt lat="44.4436738" lon="7.3554917"><ele>946.7142857142858</ele><time>2026-05-02T14:43:59.95Z</time></trkpt><trkpt lat="44.4436331" lon="7.3554083"><ele>945.5714285714286</ele><time>2026-05-02T14:44:04.95Z</time></trkpt><trkpt lat="44.4435885" lon="7.3553444"><ele>944.4285714285714</ele><time>2026-05-02T14:44:07.949Z</time></trkpt><trkpt lat="44.4435374" lon="7.3552689"><ele>943.2857142857142</ele><time>2026-05-02T14:44:10.949Z</time></trkpt><trkpt lat="44.4434812" lon="7.3551968"><ele>942.142857142857</ele><time>2026-05-02T14:44:13.95Z</time></trkpt><trkpt lat="44.4434224" lon="7.3551221"><ele>940.9999999999999</ele><time>2026-05-02T14:44:16.949Z</time></trkpt><trkpt lat="44.4433623" lon="7.3550498"><ele>941.0000000000001</ele><time>2026-05-02T14:44:19.95Z</time></trkpt><trkpt lat="44.4433005" lon="7.3549811"><ele>941.0</ele><time>2026-05-02T14:44:22.949Z</time></trkpt><trkpt lat="44.4432398" lon="7.35491"><ele>941.0</ele><time>2026-05-02T14:44:25.949Z</time></trkpt><trkpt lat="44.4431852" lon="7.3548379"><ele>941.0</ele><time>2026-05-02T14:44:28.95Z</time></trkpt><trkpt lat="44.443123" lon="7.3547623"><ele>941.0000000000001</ele><time>2026-05-02T14:44:31.95Z</time></trkpt><trkpt lat="44.4430547" lon="7.3547057"><ele>941.0</ele><time>2026-05-02T14:44:34.95Z</time></trkpt><trkpt lat="44.442985" lon="7.3546616"><ele>941.8333333333334</ele><time>2026-05-02T14:44:37.95Z</time></trkpt><trkpt lat="44.4429244" lon="7.3546119"><ele>942.6666666666667</ele><time>2026-05-02T14:44:40.95Z</time></trkpt><trkpt lat="44.4428506" lon="7.3545592"><ele>943.5</ele><time>2026-05-02T14:44:43.951Z</time></trkpt><trkpt lat="44.44278" lon="7.3545128"><ele>944.3333333333333</ele><time>2026-05-02T14:44:46.951Z</time></trkpt><trkpt lat="44.4427041" lon="7.3544721"><ele>945.1666666666666</ele><time>2026-05-02T14:44:49.951Z</time></trkpt><trkpt lat="44.4426175" lon="7.354428"><ele>946.0</ele><time>2026-05-02T14:44:52.95Z</time></trkpt><trkpt lat="44.4425657" lon="7.354374"><ele>945.9999999999999</ele><time>2026-05-02T14:44:54.95Z</time></trkpt><trkpt lat="44.4425086" lon="7.354278"><ele>946.0</ele><time>2026-05-02T14:44:57.95Z</time></trkpt><trkpt lat="44.4424722" lon="7.3541814"><ele>946.0</ele><time>2026-05-02T14:45:00.95Z</time></trkpt><trkpt lat="44.442425" lon="7.3540973"><ele>946.0</ele><time>2026-05-02T14:45:03.95Z</time></trkpt><trkpt lat="44.4423705" lon="7.3540256"><ele>945.9999999999999</ele><time>2026-05-02T14:45:06.95Z</time></trkpt><trkpt lat="44.4423008" lon="7.3539564"><ele>946.0</ele><time>2026-05-02T14:45:09.951Z</time></trkpt><trkpt lat="44.4422451" lon="7.3538866"><ele>943.4999999999999</ele><time>2026-05-02T14:45:12.951Z</time></trkpt><trkpt lat="44.4421907" lon="7.3538318"><ele>941.0</ele><time>2026-05-02T14:45:14.951Z</time></trkpt><trkpt lat="44.4421221" lon="7.3537562"><ele>938.5</ele><time>2026-05-02T14:45:17.95Z</time></trkpt><trkpt lat="44.4420637" lon="7.3536827"><ele>936.0</ele><time>2026-05-02T14:45:20.95Z</time></trkpt><trkpt lat="44.4420008" lon="7.3536144"><ele>933.4999999999999</ele><time>2026-05-02T14:45:23.951Z</time></trkpt><trkpt lat="44.4419345" lon="7.3535399"><ele>931.0</ele><time>2026-05-02T14:45:26.95Z</time></trkpt><trkpt lat="44.4418738" lon="7.3534724"><ele>935.2857142857142</ele><time>2026-05-02T14:45:29.95Z</time></trkpt><trkpt lat="44.441818" lon="7.3534256"><ele>939.5714285714286</ele><time>2026-05-02T14:45:32.95Z</time></trkpt><trkpt lat="44.4417589" lon="7.3533774"><ele>943.8571428571429</ele><time>2026-05-02T14:45:35.949Z</time></trkpt><trkpt lat="44.4417102" lon="7.3533198"><ele>948.1428571428571</ele><time>2026-05-02T14:45:38.949Z</time></trkpt><trkpt lat="44.4416538" lon="7.3532519"><ele>952.4285714285713</ele><time>2026-05-02T14:45:42.949Z</time></trkpt><trkpt lat="44.4415927" lon="7.3531774"><ele>956.7142857142857</ele><time>2026-05-02T14:45:46.949Z</time></trkpt><trkpt lat="44.4415277" lon="7.3531187"><ele>961.0</ele><time>2026-05-02T14:45:50.95Z</time></trkpt><trkpt lat="44.4414766" lon="7.3530576"><ele>961.2857142857142</ele><time>2026-05-02T14:45:54.95Z</time></trkpt><trkpt lat="44.4414253" lon="7.3529907"><ele>961.5714285714284</ele><time>2026-05-02T14:45:59.95Z</time></trkpt><trkpt lat="44.4413665" lon="7.3529418"><ele>961.8571428571429</ele><time>2026-05-02T14:46:04.95Z</time></trkpt><trkpt lat="44.4413266" lon="7.3528655"><ele>962.1428571428571</ele><time>2026-05-02T14:46:09.951Z</time></trkpt><trkpt lat="44.441355" lon="7.3527839"><ele>962.4285714285714</ele><time>2026-05-02T14:46:14.95Z</time></trkpt><trkpt lat="44.441405" lon="7.3527253"><ele>962.7142857142858</ele><time>2026-05-02T14:46:18.95Z</time></trkpt><trkpt lat="44.4414564" lon="7.3526616"><ele>963.0000000000001</ele><time>2026-05-02T14:46:24.95Z</time></trkpt><trkpt lat="44.4414662" lon="7.3525698"><ele>963.0000000000001</ele><time>2026-05-02T14:46:30.95Z</time></trkpt><trkpt lat="44.4414048" lon="7.3525328"><ele>963.0</ele><time>2026-05-02T14:46:36.95Z</time></trkpt><trkpt lat="44.4413398" lon="7.3525301"><ele>963.0000000000001</ele><time>2026-05-02T14:46:41.95Z</time></trkpt><trkpt lat="44.4412705" lon="7.3525522"><ele>963.0000000000001</ele><time>2026-05-02T14:46:45.95Z</time></trkpt><trkpt lat="44.4411984" lon="7.3525584"><ele>963.0</ele><time>2026-05-02T14:46:50.951Z</time></trkpt><trkpt lat="44.4411208" lon="7.3525743"><ele>963.0000000000001</ele><time>2026-05-02T14:46:55.95Z</time></trkpt><trkpt lat="44.4410562" lon="7.3526011"><ele>963.0000000000001</ele><time>2026-05-02T14:47:00.95Z</time></trkpt><trkpt lat="44.4409967" lon="7.3526477"><ele>965.0</ele><time>2026-05-02T14:47:04.95Z</time></trkpt><trkpt lat="44.4409265" lon="7.3526822"><ele>967.0</ele><time>2026-05-02T14:47:09.949Z</time></trkpt><trkpt lat="44.4408537" lon="7.352722"><ele>969.0</ele><time>2026-05-02T14:47:14.95Z</time></trkpt><trkpt lat="44.440786" lon="7.3527584"><ele>971.0</ele><time>2026-05-02T14:47:18.949Z</time></trkpt><trkpt lat="44.4407204" lon="7.3527718"><ele>973.0</ele><time>2026-05-02T14:47:22.948Z</time></trkpt><trkpt lat="44.4406577" lon="7.3526224"><ele>975.0</ele><time>2026-05-02T14:48:16.95Z</time></trkpt><trkpt lat="44.4407009" lon="7.3525577"><ele>975.0</ele><time>2026-05-02T14:48:19.949Z</time></trkpt><trkpt lat="44.4407541" lon="7.3524813"><ele>974.9999999999999</ele><time>2026-05-02T14:48:23.949Z</time></trkpt><trkpt lat="44.4408105" lon="7.3523996"><ele>975.0</ele><time>2026-05-02T14:48:27.948Z</time></trkpt><trkpt lat="44.4408705" lon="7.3523304"><ele>975.0</ele><time>2026-05-02T14:48:31.949Z</time></trkpt><trkpt lat="44.4409265" lon="7.3522729"><ele>974.9999999999999</ele><time>2026-05-02T14:48:36.949Z</time></trkpt><trkpt lat="44.440992" lon="7.352232"><ele>975.0</ele><time>2026-05-02T14:48:40.949Z</time></trkpt><trkpt lat="44.4410436" lon="7.3521656"><ele>975.0</ele><time>2026-05-02T14:48:44.948Z</time></trkpt><trkpt lat="44.44111" lon="7.3521039"><ele>976.0</ele><time>2026-05-02T14:48:49.949Z</time></trkpt><trkpt lat="44.4411727" lon="7.3520593"><ele>976.9999999999999</ele><time>2026-05-02T14:48:54.949Z</time></trkpt><trkpt lat="44.4412334" lon="7.3519911"><ele>978.0</ele><time>2026-05-02T14:48:59.949Z</time></trkpt><trkpt lat="44.441297" lon="7.3519196"><ele>979.0</ele><time>2026-05-02T14:49:04.949Z</time></trkpt><trkpt lat="44.4413444" lon="7.3518475"><ele>979.9999999999999</ele><time>2026-05-02T14:49:08.949Z</time></trkpt><trkpt lat="44.4413884" lon="7.3517747"><ele>981.0</ele><time>2026-05-02T14:49:12.949Z</time></trkpt><trkpt lat="44.4414494" lon="7.3517354"><ele>982.0</ele><time>2026-05-02T14:49:16.949Z</time></trkpt><trkpt lat="44.4415143" lon="7.3516928"><ele>982.0</ele><time>2026-05-02T14:49:20.95Z</time></trkpt><trkpt lat="44.4415831" lon="7.3516271"><ele>981.9999999999999</ele><time>2026-05-02T14:49:24.949Z</time></trkpt><trkpt lat="44.441662" lon="7.3516097"><ele>982.0</ele><time>2026-05-02T14:49:28.949Z</time></trkpt><trkpt lat="44.4417263" lon="7.3516315"><ele>982.0</ele><time>2026-05-02T14:49:32.949Z</time></trkpt><trkpt lat="44.4417903" lon="7.3516767"><ele>981.9999999999999</ele><time>2026-05-02T14:49:36.949Z</time></trkpt><trkpt lat="44.4418679" lon="7.3517064"><ele>982.0</ele><time>2026-05-02T14:49:41.949Z</time></trkpt><trkpt lat="44.4419268" lon="7.351664"><ele>982.0</ele><time>2026-05-02T14:49:45.948Z</time></trkpt><trkpt lat="44.4419951" lon="7.3516221"><ele>982.0</ele><time>2026-05-02T14:49:50.949Z</time></trkpt><trkpt lat="44.4420594" lon="7.3515908"><ele>981.9999999999999</ele><time>2026-05-02T14:49:56.949Z</time></trkpt><trkpt lat="44.4421361" lon="7.3515837"><ele>982.0</ele><time>2026-05-02T14:50:02.949Z</time></trkpt><trkpt lat="44.4421966" lon="7.3516166"><ele>982.0</ele><time>2026-05-02T14:50:06.949Z</time></trkpt><trkpt lat="44.4422621" lon="7.351591"><ele>981.9999999999999</ele><time>2026-05-02T14:50:11.949Z</time></trkpt><trkpt lat="44.4423045" lon="7.351523"><ele>982.0</ele><time>2026-05-02T14:50:17.948Z</time></trkpt><trkpt lat="44.4423413" lon="7.3514233"><ele>982.0</ele><time>2026-05-02T14:50:23.949Z</time></trkpt><trkpt lat="44.442384" lon="7.351354"><ele>984.7142857142857</ele><time>2026-05-02T14:50:28.95Z</time></trkpt><trkpt lat="44.4424182" lon="7.3512717"><ele>987.4285714285713</ele><time>2026-05-02T14:50:32.949Z</time></trkpt><trkpt lat="44.4424562" lon="7.3511951"><ele>990.1428571428571</ele><time>2026-05-02T14:50:37.95Z</time></trkpt><trkpt lat="44.4424985" lon="7.351127"><ele>992.8571428571429</ele><time>2026-05-02T14:50:41.95Z</time></trkpt><trkpt lat="44.4425488" lon="7.3510616"><ele>995.5714285714286</ele><time>2026-05-02T14:50:47.949Z</time></trkpt><trkpt lat="44.4425972" lon="7.3509894"><ele>998.2857142857142</ele><time>2026-05-02T14:50:54.949Z</time></trkpt><trkpt lat="44.4426396" lon="7.3509204"><ele>1001.0</ele><time>2026-05-02T14:50:59.95Z</time></trkpt><trkpt lat="44.4426714" lon="7.3508258"><ele>1001.0</ele><time>2026-05-02T14:51:04.949Z</time></trkpt><trkpt lat="44.4427039" lon="7.3507344"><ele>1001.0</ele><time>2026-05-02T14:51:09.948Z</time></trkpt><trkpt lat="44.4427323" lon="7.3506485"><ele>1001.0</ele><time>2026-05-02T14:51:14.949Z</time></trkpt><trkpt lat="44.4427604" lon="7.3505621"><ele>1001.0</ele><time>2026-05-02T14:51:21.949Z</time></trkpt><trkpt lat="44.4428131" lon="7.3504974"><ele>1001.0</ele><time>2026-05-02T14:51:27.949Z</time></trkpt><trkpt lat="44.4428559" lon="7.3504285"><ele>1001.0</ele><time>2026-05-02T14:51:31.949Z</time></trkpt><trkpt lat="44.4428713" lon="7.3503399"><ele>1001.0</ele><time>2026-05-02T14:51:36.949Z</time></trkpt><trkpt lat="44.4428727" lon="7.3502427"><ele>1001.7142857142858</ele><time>2026-05-02T14:51:40.949Z</time></trkpt><trkpt lat="44.4428891" lon="7.350156"><ele>1002.4285714285714</ele><time>2026-05-02T14:51:46.949Z</time></trkpt><trkpt lat="44.4429159" lon="7.3500489"><ele>1003.1428571428571</ele><time>2026-05-02T14:51:51.95Z</time></trkpt><trkpt lat="44.4429457" lon="7.3499636"><ele>1003.8571428571429</ele><time>2026-05-02T14:51:55.949Z</time></trkpt><trkpt lat="44.4429689" lon="7.3498651"><ele>1004.5714285714287</ele><time>2026-05-02T14:52:01.949Z</time></trkpt><trkpt lat="44.4430126" lon="7.3497977"><ele>1005.2857142857143</ele><time>2026-05-02T14:52:06.95Z</time></trkpt><trkpt lat="44.443049" lon="7.3497019"><ele>1006.0</ele><time>2026-05-02T14:52:11.949Z</time></trkpt><trkpt lat="44.4430685" lon="7.3496101"><ele>1007.8571428571429</ele><time>2026-05-02T14:52:16.949Z</time></trkpt><trkpt lat="44.4430763" lon="7.3495189"><ele>1009.7142857142858</ele><time>2026-05-02T14:52:19.949Z</time></trkpt><trkpt lat="44.4431091" lon="7.3494278"><ele>1011.5714285714287</ele><time>2026-05-02T14:52:22.949Z</time></trkpt><trkpt lat="44.4431791" lon="7.3494102"><ele>1013.4285714285716</ele><time>2026-05-02T14:52:28.95Z</time></trkpt><trkpt lat="44.4432525" lon="7.3493951"><ele>1015.2857142857143</ele><time>2026-05-02T14:52:33.949Z</time></trkpt><trkpt lat="44.443316" lon="7.3494005"><ele>1017.1428571428573</ele><time>2026-05-02T14:52:38.95Z</time></trkpt><trkpt lat="44.4433756" lon="7.3494321"><ele>1019.0000000000001</ele><time>2026-05-02T14:52:43.949Z</time></trkpt><trkpt lat="44.4434447" lon="7.3494654"><ele>1019.0000000000001</ele><time>2026-05-02T14:52:48.949Z</time></trkpt><trkpt lat="44.4435149" lon="7.3494804"><ele>1019.0</ele><time>2026-05-02T14:52:53.949Z</time></trkpt><trkpt lat="44.4435789" lon="7.3494947"><ele>1019.0000000000001</ele><time>2026-05-02T14:52:58.948Z</time></trkpt><trkpt lat="44.4436484" lon="7.3495178"><ele>1019.0000000000001</ele><time>2026-05-02T14:53:04.949Z</time></trkpt><trkpt lat="44.4437223" lon="7.3495085"><ele>1019.0</ele><time>2026-05-02T14:53:10.949Z</time></trkpt><trkpt lat="44.443778" lon="7.3494528"><ele>1019.0000000000001</ele><time>2026-05-02T14:53:15.95Z</time></trkpt><trkpt lat="44.4438329" lon="7.3493832"><ele>1019.0000000000001</ele><time>2026-05-02T14:53:20.949Z</time></trkpt><trkpt lat="44.4438742" lon="7.3493059"><ele>1019.0000000000001</ele><time>2026-05-02T14:53:25.949Z</time></trkpt><trkpt lat="44.4439269" lon="7.3492466"><ele>1019.0</ele><time>2026-05-02T14:53:31.949Z</time></trkpt><trkpt lat="44.4439728" lon="7.3491829"><ele>1019.0000000000001</ele><time>2026-05-02T14:53:36.949Z</time></trkpt><trkpt lat="44.4440029" lon="7.3490944"><ele>1019.0000000000001</ele><time>2026-05-02T14:53:41.95Z</time></trkpt><trkpt lat="44.4440033" lon="7.3490003"><ele>1019.0</ele><time>2026-05-02T14:53:46.948Z</time></trkpt><trkpt lat="44.4439401" lon="7.3489588"><ele>1019.0000000000001</ele><time>2026-05-02T14:53:50.95Z</time></trkpt><trkpt lat="44.4438663" lon="7.348941"><ele>1019.0000000000001</ele><time>2026-05-02T14:53:55.948Z</time></trkpt><trkpt lat="44.4437943" lon="7.348918"><ele>1019.0000000000001</ele><time>2026-05-02T14:54:01.949Z</time></trkpt><trkpt lat="44.4437249" lon="7.3489011"><ele>1019.0</ele><time>2026-05-02T14:54:06.948Z</time></trkpt><trkpt lat="44.4436611" lon="7.3488962"><ele>1019.0000000000001</ele><time>2026-05-02T14:54:12.948Z</time></trkpt><trkpt lat="44.4435673" lon="7.3489245"><ele>1019.0000000000001</ele><time>2026-05-02T14:59:12.948Z</time></trkpt><trkpt lat="44.443502" lon="7.3489155"><ele>1019.0</ele><time>2026-05-02T14:59:17.948Z</time></trkpt><trkpt lat="44.4434368" lon="7.3489139"><ele>1019.0000000000001</ele><time>2026-05-02T14:59:22.948Z</time></trkpt><trkpt lat="44.4433729" lon="7.3489096"><ele>1019.0000000000001</ele><time>2026-05-02T14:59:27.948Z</time></trkpt><trkpt lat="44.4433083" lon="7.3489107"><ele>1019.0000000000001</ele><time>2026-05-02T14:59:32.947Z</time></trkpt><trkpt lat="44.4432452" lon="7.3489013"><ele>1019.0</ele><time>2026-05-02T14:59:38.949Z</time></trkpt><trkpt lat="44.4431778" lon="7.3488944"><ele>1019.0000000000001</ele><time>2026-05-02T14:59:48.948Z</time></trkpt><trkpt lat="44.4431113" lon="7.3488809"><ele>1019.0000000000001</ele><time>2026-05-02T14:59:53.948Z</time></trkpt><trkpt lat="44.443034" lon="7.3488486"><ele>1019.0</ele><time>2026-05-02T14:59:59.947Z</time></trkpt><trkpt lat="44.4429715" lon="7.3488221"><ele>1019.0000000000001</ele><time>2026-05-02T15:00:03.947Z</time></trkpt><trkpt lat="44.4429004" lon="7.3487919"><ele>1019.0000000000001</ele><time>2026-05-02T15:00:07.946Z</time></trkpt><trkpt lat="44.4428284" lon="7.3487597"><ele>1020.5714285714287</ele><time>2026-05-02T15:00:11.947Z</time></trkpt><trkpt lat="44.4427516" lon="7.3487313"><ele>1022.1428571428571</ele><time>2026-05-02T15:00:15.947Z</time></trkpt><trkpt lat="44.4426883" lon="7.3487228"><ele>1023.7142857142858</ele><time>2026-05-02T15:00:19.947Z</time></trkpt><trkpt lat="44.4426159" lon="7.3487372"><ele>1025.2857142857142</ele><time>2026-05-02T15:00:24.946Z</time></trkpt><trkpt lat="44.4425458" lon="7.3487739"><ele>1026.857142857143</ele><time>2026-05-02T15:00:30.948Z</time></trkpt><trkpt lat="44.4424794" lon="7.3488183"><ele>1028.4285714285716</ele><time>2026-05-02T15:00:34.947Z</time></trkpt><trkpt lat="44.4424157" lon="7.3488445"><ele>1030.0</ele><time>2026-05-02T15:00:39.947Z</time></trkpt><trkpt lat="44.4423521" lon="7.3488912"><ele>1030.0</ele><time>2026-05-02T15:00:45.947Z</time></trkpt><trkpt lat="44.4423016" lon="7.3489478"><ele>1030.0</ele><time>2026-05-02T15:00:54.947Z</time></trkpt><trkpt lat="44.4422227" lon="7.3489909"><ele>1030.0</ele><time>2026-05-02T15:01:21.947Z</time></trkpt><trkpt lat="44.4421592" lon="7.3490628"><ele>1030.0</ele><time>2026-05-02T15:01:27.948Z</time></trkpt><trkpt lat="44.442092" lon="7.3490846"><ele>1030.0</ele><time>2026-05-02T15:01:31.948Z</time></trkpt><trkpt lat="44.4420225" lon="7.3490627"><ele>1030.0</ele><time>2026-05-02T15:01:35.948Z</time></trkpt><trkpt lat="44.4419602" lon="7.3490316"><ele>1030.0</ele><time>2026-05-02T15:01:39.947Z</time></trkpt><trkpt lat="44.4418925" lon="7.3489788"><ele>1031.5714285714287</ele><time>2026-05-02T15:01:43.948Z</time></trkpt><trkpt lat="44.4418229" lon="7.3489404"><ele>1033.142857142857</ele><time>2026-05-02T15:01:47.948Z</time></trkpt><trkpt lat="44.4417572" lon="7.3489121"><ele>1034.7142857142858</ele><time>2026-05-02T15:01:51.947Z</time></trkpt><trkpt lat="44.4416825" lon="7.34889"><ele>1036.2857142857142</ele><time>2026-05-02T15:01:56.948Z</time></trkpt><trkpt lat="44.4416157" lon="7.3488798"><ele>1037.857142857143</ele><time>2026-05-02T15:02:08.948Z</time></trkpt><trkpt lat="44.441542" lon="7.3488622"><ele>1039.4285714285716</ele><time>2026-05-02T15:02:12.948Z</time></trkpt><trkpt lat="44.4414674" lon="7.3488824"><ele>1041.0</ele><time>2026-05-02T15:02:17.948Z</time></trkpt><trkpt lat="44.4413874" lon="7.3489127"><ele>1041.0</ele><time>2026-05-02T15:02:47.948Z</time></trkpt><trkpt lat="44.4413161" lon="7.3488841"><ele>1041.0</ele><time>2026-05-02T15:02:51.946Z</time></trkpt><trkpt lat="44.4412507" lon="7.3488882"><ele>1041.0</ele><time>2026-05-02T15:03:03.948Z</time></trkpt><trkpt lat="44.4412026" lon="7.3488249"><ele>1041.0</ele><time>2026-05-02T15:03:07.947Z</time></trkpt><trkpt lat="44.4411514" lon="7.3487408"><ele>1041.0</ele><time>2026-05-02T15:03:10.947Z</time></trkpt><trkpt lat="44.441089" lon="7.3486448"><ele>1041.0</ele><time>2026-05-02T15:03:14.947Z</time></trkpt><trkpt lat="44.4410336" lon="7.348582"><ele>1041.0</ele><time>2026-05-02T15:03:16.947Z</time></trkpt><trkpt lat="44.4409912" lon="7.3484763"><ele>1044.5714285714287</ele><time>2026-05-02T15:03:18.947Z</time></trkpt><trkpt lat="44.4409586" lon="7.3483771"><ele>1048.1428571428573</ele><time>2026-05-02T15:03:20.947Z</time></trkpt><trkpt lat="44.4409105" lon="7.3482912"><ele>1051.7142857142858</ele><time>2026-05-02T15:03:23.947Z</time></trkpt><trkpt lat="44.4408492" lon="7.3482503"><ele>1055.2857142857142</ele><time>2026-05-02T15:03:27.946Z</time></trkpt><trkpt lat="44.440771" lon="7.348271"><ele>1058.8571428571427</ele><time>2026-05-02T15:03:31.948Z</time></trkpt><trkpt lat="44.4407126" lon="7.3483334"><ele>1062.4285714285713</ele><time>2026-05-02T15:03:36.947Z</time></trkpt><trkpt lat="44.4406742" lon="7.3484035"><ele>1066.0</ele><time>2026-05-02T15:03:40.947Z</time></trkpt><trkpt lat="44.4406366" lon="7.3484896"><ele>1066.0</ele><time>2026-05-02T15:03:45.967Z</time></trkpt><trkpt lat="44.4405992" lon="7.3485634"><ele>1066.0</ele><time>2026-05-02T15:03:50.948Z</time></trkpt><trkpt lat="44.4405624" lon="7.3486522"><ele>1066.0</ele><time>2026-05-02T15:03:55.947Z</time></trkpt><trkpt lat="44.4405141" lon="7.3487136"><ele>1066.0</ele><time>2026-05-02T15:04:00.965Z</time></trkpt><trkpt lat="44.4404698" lon="7.3487907"><ele>1066.0</ele><time>2026-05-02T15:04:05.947Z</time></trkpt><trkpt lat="44.4404158" lon="7.3488652"><ele>1066.0</ele><time>2026-05-02T15:04:10.947Z</time></trkpt><trkpt lat="44.4403608" lon="7.3489491"><ele>1066.0</ele><time>2026-05-02T15:04:16.948Z</time></trkpt><trkpt lat="44.4403151" lon="7.3490135"><ele>1068.857142857143</ele><time>2026-05-02T15:04:19.948Z</time></trkpt><trkpt lat="44.4402525" lon="7.3490755"><ele>1071.7142857142856</ele><time>2026-05-02T15:04:23.947Z</time></trkpt><trkpt lat="44.4401795" lon="7.3491234"><ele>1074.5714285714284</ele><time>2026-05-02T15:04:28.948Z</time></trkpt><trkpt lat="44.440133" lon="7.3492063"><ele>1077.4285714285713</ele><time>2026-05-02T15:04:31.947Z</time></trkpt><trkpt lat="44.4400791" lon="7.3492934"><ele>1080.2857142857142</ele><time>2026-05-02T15:04:35.947Z</time></trkpt><trkpt lat="44.4400372" lon="7.349368"><ele>1083.142857142857</ele><time>2026-05-02T15:04:38.947Z</time></trkpt><trkpt lat="44.4399999" lon="7.349442"><ele>1086.0</ele><time>2026-05-02T15:04:41.946Z</time></trkpt><trkpt lat="44.4399672" lon="7.3495487"><ele>1086.0</ele><time>2026-05-02T15:04:45.947Z</time></trkpt><trkpt lat="44.4399373" lon="7.3496364"><ele>1086.0</ele><time>2026-05-02T15:04:49.947Z</time></trkpt><trkpt lat="44.4399002" lon="7.349739"><ele>1086.0</ele><time>2026-05-02T15:04:53.948Z</time></trkpt><trkpt lat="44.439861" lon="7.3498147"><ele>1086.0</ele><time>2026-05-02T15:04:56.947Z</time></trkpt><trkpt lat="44.4398286" lon="7.3499062"><ele>1086.0</ele><time>2026-05-02T15:05:00.948Z</time></trkpt><trkpt lat="44.4398004" lon="7.3499934"><ele>1086.0</ele><time>2026-05-02T15:05:04.946Z</time></trkpt><trkpt lat="44.4397557" lon="7.3500664"><ele>1086.0</ele><time>2026-05-02T15:05:09.947Z</time></trkpt><trkpt lat="44.4397073" lon="7.3501449"><ele>1086.142857142857</ele><time>2026-05-02T15:05:13.947Z</time></trkpt><trkpt lat="44.4396585" lon="7.3502164"><ele>1086.2857142857142</ele><time>2026-05-02T15:05:18.947Z</time></trkpt><trkpt lat="44.4396034" lon="7.3502873"><ele>1086.4285714285713</ele><time>2026-05-02T15:05:24.947Z</time></trkpt><trkpt lat="44.4395456" lon="7.3503402"><ele>1086.5714285714284</ele><time>2026-05-02T15:05:30.946Z</time></trkpt><trkpt lat="44.4394863" lon="7.3504024"><ele>1086.7142857142856</ele><time>2026-05-02T15:05:35.947Z</time></trkpt><trkpt lat="44.4394216" lon="7.3504441"><ele>1086.857142857143</ele><time>2026-05-02T15:05:40.947Z</time></trkpt><trkpt lat="44.4393484" lon="7.3504575"><ele>1087.0</ele><time>2026-05-02T15:05:46.948Z</time></trkpt><trkpt lat="44.4392812" lon="7.350416"><ele>1087.0</ele><time>2026-05-02T15:05:51.947Z</time></trkpt><trkpt lat="44.4392079" lon="7.3503724"><ele>1087.0</ele><time>2026-05-02T15:05:55.945Z</time></trkpt><trkpt lat="44.4391373" lon="7.3503312"><ele>1087.0</ele><time>2026-05-02T15:05:59.946Z</time></trkpt><trkpt lat="44.4390787" lon="7.3504047"><ele>1087.0</ele><time>2026-05-02T15:06:04.946Z</time></trkpt><trkpt lat="44.4390381" lon="7.3504821"><ele>1087.0</ele><time>2026-05-02T15:06:09.947Z</time></trkpt><trkpt lat="44.438994" lon="7.3505614"><ele>1087.0</ele><time>2026-05-02T15:06:13.947Z</time></trkpt><trkpt lat="44.4389239" lon="7.3505975"><ele>1086.6666666666665</ele><time>2026-05-02T15:06:17.947Z</time></trkpt><trkpt lat="44.4388591" lon="7.3506274"><ele>1086.3333333333333</ele><time>2026-05-02T15:06:20.946Z</time></trkpt><trkpt lat="44.4388167" lon="7.350702"><ele>1086.0</ele><time>2026-05-02T15:06:23.946Z</time></trkpt><trkpt lat="44.4387652" lon="7.35079"><ele>1085.6666666666667</ele><time>2026-05-02T15:06:25.947Z</time></trkpt><trkpt lat="44.4386905" lon="7.3509018"><ele>1085.3333333333335</ele><time>2026-05-02T15:06:27.946Z</time></trkpt><trkpt lat="44.4386297" lon="7.3509656"><ele>1085.0</ele><time>2026-05-02T15:06:29.946Z</time></trkpt><trkpt lat="44.4385758" lon="7.3510856"><ele>1085.0</ele><time>2026-05-02T15:06:31.947Z</time></trkpt><trkpt lat="44.438533" lon="7.3511861"><ele>1085.0</ele><time>2026-05-02T15:06:33.946Z</time></trkpt><trkpt lat="44.4384884" lon="7.3512887"><ele>1085.0</ele><time>2026-05-02T15:06:35.946Z</time></trkpt><trkpt lat="44.4384268" lon="7.3513679"><ele>1085.0</ele><time>2026-05-02T15:06:37.945Z</time></trkpt><trkpt lat="44.4383676" lon="7.3514584"><ele>1085.0</ele><time>2026-05-02T15:06:39.945Z</time></trkpt><trkpt lat="44.4383414" lon="7.351568"><ele>1085.0</ele><time>2026-05-02T15:06:41.946Z</time></trkpt><trkpt lat="44.4383293" lon="7.3516659"><ele>1083.5714285714287</ele><time>2026-05-02T15:06:43.947Z</time></trkpt><trkpt lat="44.4383138" lon="7.3517602"><ele>1082.142857142857</ele><time>2026-05-02T15:06:47.947Z</time></trkpt><trkpt lat="44.4382819" lon="7.3518433"><ele>1080.7142857142858</ele><time>2026-05-02T15:06:50.946Z</time></trkpt><trkpt lat="44.4382549" lon="7.351932"><ele>1079.2857142857142</ele><time>2026-05-02T15:06:52.946Z</time></trkpt><trkpt lat="44.4382038" lon="7.352016"><ele>1077.857142857143</ele><time>2026-05-02T15:06:55.946Z</time></trkpt><trkpt lat="44.4381555" lon="7.3520954"><ele>1076.4285714285716</ele><time>2026-05-02T15:06:59.946Z</time></trkpt><trkpt lat="44.4381193" lon="7.3521685"><ele>1075.0</ele><time>2026-05-02T15:07:02.946Z</time></trkpt><trkpt lat="44.4380656" lon="7.3522368"><ele>1073.7142857142858</ele><time>2026-05-02T15:07:06.946Z</time></trkpt><trkpt lat="44.4380482" lon="7.3523364"><ele>1072.4285714285716</ele><time>2026-05-02T15:07:10.946Z</time></trkpt><trkpt lat="44.4380175" lon="7.3524253"><ele>1071.142857142857</ele><time>2026-05-02T15:07:15.946Z</time></trkpt><trkpt lat="44.4379534" lon="7.3524616"><ele>1069.857142857143</ele><time>2026-05-02T15:07:20.945Z</time></trkpt><trkpt lat="44.4378781" lon="7.3524808"><ele>1068.5714285714284</ele><time>2026-05-02T15:07:25.946Z</time></trkpt><trkpt lat="44.4378278" lon="7.3525411"><ele>1067.2857142857142</ele><time>2026-05-02T15:07:30.946Z</time></trkpt><trkpt lat="44.4377632" lon="7.3525412"><ele>1066.0</ele><time>2026-05-02T15:07:35.946Z</time></trkpt><trkpt lat="44.4377063" lon="7.3526031"><ele>1068.857142857143</ele><time>2026-05-02T15:07:40.946Z</time></trkpt><trkpt lat="44.4376409" lon="7.3526224"><ele>1071.7142857142856</ele><time>2026-05-02T15:07:45.946Z</time></trkpt><trkpt lat="44.4375778" lon="7.3526192"><ele>1074.5714285714284</ele><time>2026-05-02T15:07:50.946Z</time></trkpt><trkpt lat="44.4375131" lon="7.3525897"><ele>1077.4285714285713</ele><time>2026-05-02T15:07:55.946Z</time></trkpt><trkpt lat="44.4374413" lon="7.3525952"><ele>1080.2857142857142</ele><time>2026-05-02T15:08:00.945Z</time></trkpt><trkpt lat="44.4373779" lon="7.3526118"><ele>1083.142857142857</ele><time>2026-05-02T15:08:06.946Z</time></trkpt><trkpt lat="44.4373133" lon="7.3525988"><ele>1086.0</ele><time>2026-05-02T15:08:11.946Z</time></trkpt><trkpt lat="44.4372396" lon="7.352588"><ele>1086.0</ele><time>2026-05-02T15:08:17.946Z</time></trkpt><trkpt lat="44.4371733" lon="7.3526"><ele>1086.0</ele><time>2026-05-02T15:08:23.945Z</time></trkpt><trkpt lat="44.4370996" lon="7.3525845"><ele>1086.0</ele><time>2026-05-02T15:08:29.947Z</time></trkpt><trkpt lat="44.4370436" lon="7.3525425"><ele>1086.0</ele><time>2026-05-02T15:08:35.946Z</time></trkpt><trkpt lat="44.4369981" lon="7.3524793"><ele>1086.0</ele><time>2026-05-02T15:08:40.946Z</time></trkpt><trkpt lat="44.4369388" lon="7.3524206"><ele>1086.0</ele><time>2026-05-02T15:08:47.947Z</time></trkpt><trkpt lat="44.4368744" lon="7.352376"><ele>1086.0</ele><time>2026-05-02T15:08:53.945Z</time></trkpt><trkpt lat="44.4368003" lon="7.3523435"><ele>1086.7142857142858</ele><time>2026-05-02T15:08:58.946Z</time></trkpt><trkpt lat="44.4367321" lon="7.3523456"><ele>1087.4285714285713</ele><time>2026-05-02T15:09:03.947Z</time></trkpt><trkpt lat="44.4366628" lon="7.3523666"><ele>1088.142857142857</ele><time>2026-05-02T15:09:08.946Z</time></trkpt><trkpt lat="44.4365929" lon="7.3523923"><ele>1088.857142857143</ele><time>2026-05-02T15:09:14.945Z</time></trkpt><trkpt lat="44.4365416" lon="7.3524657"><ele>1089.5714285714287</ele><time>2026-05-02T15:09:21.946Z</time></trkpt><trkpt lat="44.4364853" lon="7.3525129"><ele>1090.2857142857142</ele><time>2026-05-02T15:09:25.946Z</time></trkpt><trkpt lat="44.4364285" lon="7.3525805"><ele>1091.0</ele><time>2026-05-02T15:09:30.947Z</time></trkpt><trkpt lat="44.4363784" lon="7.3526415"><ele>1091.0</ele><time>2026-05-02T15:09:34.946Z</time></trkpt><trkpt lat="44.4363198" lon="7.3526905"><ele>1091.0</ele><time>2026-05-02T15:09:38.946Z</time></trkpt><trkpt lat="44.4362838" lon="7.3527631"><ele>1091.0</ele><time>2026-05-02T15:09:42.946Z</time></trkpt><trkpt lat="44.4362266" lon="7.3528237"><ele>1091.0</ele><time>2026-05-02T15:09:49.947Z</time></trkpt><trkpt lat="44.436166" lon="7.3528486"><ele>1091.0</ele><time>2026-05-02T15:09:56.945Z</time></trkpt><trkpt lat="44.4361025" lon="7.3528652"><ele>1091.0</ele><time>2026-05-02T15:10:03.946Z</time></trkpt><trkpt lat="44.4360406" lon="7.3528971"><ele>1091.0</ele><time>2026-05-02T15:12:00.946Z</time></trkpt><trkpt lat="44.4360102" lon="7.35299"><ele>1091.0</ele><time>2026-05-02T15:12:04.946Z</time></trkpt><trkpt lat="44.4359681" lon="7.3530725"><ele>1091.0</ele><time>2026-05-02T15:12:07.947Z</time></trkpt><trkpt lat="44.43592" lon="7.3531617"><ele>1091.0</ele><time>2026-05-02T15:12:10.946Z</time></trkpt><trkpt lat="44.4358789" lon="7.3532412"><ele>1091.0</ele><time>2026-05-02T15:12:13.945Z</time></trkpt><trkpt lat="44.4358297" lon="7.353332"><ele>1091.0</ele><time>2026-05-02T15:12:17.945Z</time></trkpt><trkpt lat="44.4357854" lon="7.3534035"><ele>1091.0</ele><time>2026-05-02T15:12:20.946Z</time></trkpt><trkpt lat="44.4357437" lon="7.3534724"><ele>1091.0</ele><time>2026-05-02T15:12:23.946Z</time></trkpt><trkpt lat="44.4356992" lon="7.353553"><ele>1091.0</ele><time>2026-05-02T15:12:27.946Z</time></trkpt><trkpt lat="44.4356479" lon="7.3536339"><ele>1091.0</ele><time>2026-05-02T15:12:31.946Z</time></trkpt><trkpt lat="44.435607" lon="7.353721"><ele>1091.0</ele><time>2026-05-02T15:12:35.946Z</time></trkpt><trkpt lat="44.4355638" lon="7.3538103"><ele>1091.0</ele><time>2026-05-02T15:12:39.945Z</time></trkpt><trkpt lat="44.4355224" lon="7.3539025"><ele>1091.0</ele><time>2026-05-02T15:12:43.947Z</time></trkpt><trkpt lat="44.4354884" lon="7.3540002"><ele>1091.0</ele><time>2026-05-02T15:12:47.946Z</time></trkpt><trkpt lat="44.4354408" lon="7.3540965"><ele>1091.0</ele><time>2026-05-02T15:12:51.944Z</time></trkpt><trkpt lat="44.4353915" lon="7.3541785"><ele>1091.0</ele><time>2026-05-02T15:12:54.944Z</time></trkpt><trkpt lat="44.4353291" lon="7.3542788"><ele>1091.0</ele><time>2026-05-02T15:12:57.945Z</time></trkpt><trkpt lat="44.4352723" lon="7.3543495"><ele>1091.0</ele><time>2026-05-02T15:12:59.945Z</time></trkpt><trkpt lat="44.435202" lon="7.3544193"><ele>1091.0</ele><time>2026-05-02T15:13:01.946Z</time></trkpt><trkpt lat="44.4351233" lon="7.3544694"><ele>1091.0</ele><time>2026-05-02T15:13:03.944Z</time></trkpt><trkpt lat="44.4350254" lon="7.3544824"><ele>1091.0</ele><time>2026-05-02T15:13:05.945Z</time></trkpt><trkpt lat="44.4349114" lon="7.3544552"><ele>1091.0</ele><time>2026-05-02T15:13:07.945Z</time></trkpt><trkpt lat="44.4348467" lon="7.3544183"><ele>1091.0</ele><time>2026-05-02T15:13:08.944Z</time></trkpt><trkpt lat="44.4347808" lon="7.3543791"><ele>1091.0</ele><time>2026-05-02T15:13:09.946Z</time></trkpt><trkpt lat="44.4347102" lon="7.3543352"><ele>1091.0</ele><time>2026-05-02T15:13:10.945Z</time></trkpt><trkpt lat="44.4346405" lon="7.3543003"><ele>1091.0</ele><time>2026-05-02T15:13:11.945Z</time></trkpt><trkpt lat="44.4345788" lon="7.3542717"><ele>1090.0</ele><time>2026-05-02T15:13:12.944Z</time></trkpt><trkpt lat="44.4344639" lon="7.3542336"><ele>1089.0</ele><time>2026-05-02T15:13:14.945Z</time></trkpt><trkpt lat="44.4343571" lon="7.3541663"><ele>1088.0</ele><time>2026-05-02T15:13:16.945Z</time></trkpt><trkpt lat="44.4342615" lon="7.3541164"><ele>1087.0</ele><time>2026-05-02T15:13:18.946Z</time></trkpt><trkpt lat="44.4342456" lon="7.3540025"><ele>1086.0</ele><time>2026-05-02T15:13:22.945Z</time></trkpt><trkpt lat="44.4343422" lon="7.3539751"><ele>1086.0</ele><time>2026-05-02T15:13:25.946Z</time></trkpt><trkpt lat="44.4344938" lon="7.3540009"><ele>1086.0</ele><time>2026-05-02T15:13:27.944Z</time></trkpt><trkpt lat="44.4345614" lon="7.3540073"><ele>1086.0</ele><time>2026-05-02T15:13:28.945Z</time></trkpt><trkpt lat="44.4346954" lon="7.354006"><ele>1086.0</ele><time>2026-05-02T15:13:30.944Z</time></trkpt><trkpt lat="44.4347528" lon="7.3539575"><ele>1086.0</ele><time>2026-05-02T15:13:31.945Z</time></trkpt><trkpt lat="44.4347926" lon="7.3538094"><ele>1085.2857142857142</ele><time>2026-05-02T15:13:33.945Z</time></trkpt><trkpt lat="44.4348034" lon="7.3537076"><ele>1084.5714285714284</ele><time>2026-05-02T15:13:34.945Z</time></trkpt><trkpt lat="44.4348093" lon="7.3536009"><ele>1083.8571428571427</ele><time>2026-05-02T15:13:35.945Z</time></trkpt><trkpt lat="44.4348182" lon="7.3534934"><ele>1083.142857142857</ele><time>2026-05-02T15:13:36.945Z</time></trkpt><trkpt lat="44.4348221" lon="7.3533971"><ele>1082.4285714285713</ele><time>2026-05-02T15:13:37.945Z</time></trkpt><trkpt lat="44.4348268" lon="7.3532915"><ele>1081.7142857142856</ele><time>2026-05-02T15:13:38.945Z</time></trkpt><trkpt lat="44.434835" lon="7.3531955"><ele>1081.0</ele><time>2026-05-02T15:13:39.945Z</time></trkpt><trkpt lat="44.434846" lon="7.3530924"><ele>1078.8571428571427</ele><time>2026-05-02T15:13:40.944Z</time></trkpt><trkpt lat="44.4348623" lon="7.3529888"><ele>1076.7142857142858</ele><time>2026-05-02T15:13:41.946Z</time></trkpt><trkpt lat="44.4348868" lon="7.3528942"><ele>1074.5714285714284</ele><time>2026-05-02T15:13:42.945Z</time></trkpt><trkpt lat="44.4349225" lon="7.3528027"><ele>1072.4285714285713</ele><time>2026-05-02T15:13:43.944Z</time></trkpt><trkpt lat="44.4349841" lon="7.3527403"><ele>1070.2857142857142</ele><time>2026-05-02T15:13:44.945Z</time></trkpt><trkpt lat="44.4350418" lon="7.3526781"><ele>1068.142857142857</ele><time>2026-05-02T15:13:45.945Z</time></trkpt><trkpt lat="44.4350977" lon="7.3526271"><ele>1066.0</ele><time>2026-05-02T15:13:46.946Z</time></trkpt><trkpt lat="44.4351995" lon="7.3525557"><ele>1066.0</ele><time>2026-05-02T15:13:48.945Z</time></trkpt><trkpt lat="44.4352599" lon="7.3524811"><ele>1066.0</ele><time>2026-05-02T15:13:50.944Z</time></trkpt><trkpt lat="44.4352068" lon="7.3524054"><ele>1066.0</ele><time>2026-05-02T15:13:52.946Z</time></trkpt><trkpt lat="44.4351368" lon="7.3524023"><ele>1066.0</ele><time>2026-05-02T15:13:54.945Z</time></trkpt><trkpt lat="44.4350327" lon="7.3524465"><ele>1066.0</ele><time>2026-05-02T15:13:56.946Z</time></trkpt><trkpt lat="44.4349654" lon="7.3524673"><ele>1066.0</ele><time>2026-05-02T15:13:57.944Z</time></trkpt><trkpt lat="44.4349014" lon="7.3524874"><ele>1066.0</ele><time>2026-05-02T15:13:58.945Z</time></trkpt><trkpt lat="44.4348237" lon="7.3525161"><ele>1066.0</ele><time>2026-05-02T15:13:59.945Z</time></trkpt><trkpt lat="44.4347552" lon="7.3525454"><ele>1066.0</ele><time>2026-05-02T15:14:00.946Z</time></trkpt><trkpt lat="44.4346415" lon="7.3526001"><ele>1066.0</ele><time>2026-05-02T15:14:02.944Z</time></trkpt><trkpt lat="44.4345886" lon="7.352742"><ele>1066.0</ele><time>2026-05-02T15:14:04.945Z</time></trkpt><trkpt lat="44.434572" lon="7.3528364"><ele>1065.8</ele><time>2026-05-02T15:14:05.945Z</time></trkpt><trkpt lat="44.4345215" lon="7.3529979"><ele>1065.6</ele><time>2026-05-02T15:14:07.946Z</time></trkpt><trkpt lat="44.4344689" lon="7.3530633"><ele>1065.4</ele><time>2026-05-02T15:14:08.945Z</time></trkpt><trkpt lat="44.4343633" lon="7.3531387"><ele>1065.2</ele><time>2026-05-02T15:14:10.945Z</time></trkpt><trkpt lat="44.4342707" lon="7.3532008"><ele>1065.0</ele><time>2026-05-02T15:14:12.946Z</time></trkpt><trkpt lat="44.4341916" lon="7.3532456"><ele>1065.0</ele><time>2026-05-02T15:14:14.945Z</time></trkpt><trkpt lat="44.4342003" lon="7.3531356"><ele>1065.0</ele><time>2026-05-02T15:14:15.944Z</time></trkpt><trkpt lat="44.4342206" lon="7.3530289"><ele>1065.0</ele><time>2026-05-02T15:14:17.945Z</time></trkpt><trkpt lat="44.4342754" lon="7.3529232"><ele>1065.0</ele><time>2026-05-02T15:14:19.946Z</time></trkpt><trkpt lat="44.4342843" lon="7.3528255"><ele>1065.0</ele><time>2026-05-02T15:14:21.944Z</time></trkpt><trkpt lat="44.4341799" lon="7.3528236"><ele>1065.0</ele><time>2026-05-02T15:14:24.945Z</time></trkpt><trkpt lat="44.4341031" lon="7.3529148"><ele>1061.4</ele><time>2026-05-02T15:14:26.945Z</time></trkpt><trkpt lat="44.4339834" lon="7.3529437"><ele>1057.8</ele><time>2026-05-02T15:14:28.946Z</time></trkpt><trkpt lat="44.4338889" lon="7.3529315"><ele>1054.2</ele><time>2026-05-02T15:14:30.945Z</time></trkpt><trkpt lat="44.4337959" lon="7.3529014"><ele>1050.6</ele><time>2026-05-02T15:14:32.945Z</time></trkpt><trkpt lat="44.4336936" lon="7.3528843"><ele>1047.0</ele><time>2026-05-02T15:14:34.945Z</time></trkpt><trkpt lat="44.4336039" lon="7.3528787"><ele>1045.8</ele><time>2026-05-02T15:14:36.945Z</time></trkpt><trkpt lat="44.4335108" lon="7.3528993"><ele>1044.6</ele><time>2026-05-02T15:14:38.945Z</time></trkpt><trkpt lat="44.4334025" lon="7.3529706"><ele>1043.3999999999999</ele><time>2026-05-02T15:14:40.945Z</time></trkpt><trkpt lat="44.4333127" lon="7.3530694"><ele>1042.2</ele><time>2026-05-02T15:14:42.946Z</time></trkpt><trkpt lat="44.4332297" lon="7.3531553"><ele>1041.0</ele><time>2026-05-02T15:14:44.944Z</time></trkpt><trkpt lat="44.4331845" lon="7.3533219"><ele>1041.0</ele><time>2026-05-02T15:14:46.945Z</time></trkpt><trkpt lat="44.4331345" lon="7.3534385"><ele>1041.0</ele><time>2026-05-02T15:14:48.945Z</time></trkpt><trkpt lat="44.4330789" lon="7.3535563"><ele>1041.0</ele><time>2026-05-02T15:14:50.945Z</time></trkpt><trkpt lat="44.4330143" lon="7.3536508"><ele>1041.0</ele><time>2026-05-02T15:14:52.945Z</time></trkpt><trkpt lat="44.4329584" lon="7.3537408"><ele>1041.0</ele><time>2026-05-02T15:14:54.944Z</time></trkpt><trkpt lat="44.4328895" lon="7.3538199"><ele>1042.8333333333333</ele><time>2026-05-02T15:14:56.946Z</time></trkpt><trkpt lat="44.4328003" lon="7.3538645"><ele>1044.6666666666667</ele><time>2026-05-02T15:14:59.945Z</time></trkpt><trkpt lat="44.4326977" lon="7.3538757"><ele>1046.5</ele><time>2026-05-02T15:15:03.946Z</time></trkpt><trkpt lat="44.4326272" lon="7.3538319"><ele>1048.3333333333335</ele><time>2026-05-02T15:15:06.946Z</time></trkpt><trkpt lat="44.4325504" lon="7.3538171"><ele>1050.1666666666667</ele><time>2026-05-02T15:15:09.945Z</time></trkpt><trkpt lat="44.4324743" lon="7.3538046"><ele>1052.0</ele><time>2026-05-02T15:15:13.944Z</time></trkpt><trkpt lat="44.4323944" lon="7.3538024"><ele>1052.0</ele><time>2026-05-02T15:15:19.156Z</time></trkpt><trkpt lat="44.4323283" lon="7.353848"><ele>1052.0</ele><time>2026-05-02T15:15:23.945Z</time></trkpt><trkpt lat="44.4322931" lon="7.3539265"><ele>1052.0</ele><time>2026-05-02T15:15:28.944Z</time></trkpt><trkpt lat="44.4322742" lon="7.3540379"><ele>1052.0</ele><time>2026-05-02T15:15:34.945Z</time></trkpt><trkpt lat="44.4322427" lon="7.3541147"><ele>1052.0</ele><time>2026-05-02T15:15:37.945Z</time></trkpt><trkpt lat="44.4321818" lon="7.3541591"><ele>1052.0</ele><time>2026-05-02T15:15:41.945Z</time></trkpt><trkpt lat="44.4321199" lon="7.3541765"><ele>1052.0</ele><time>2026-05-02T15:15:44.894Z</time></trkpt><trkpt lat="44.4320501" lon="7.3541945"><ele>1050.142857142857</ele><time>2026-05-02T15:15:47.946Z</time></trkpt><trkpt lat="44.4319783" lon="7.3542241"><ele>1048.2857142857142</ele><time>2026-05-02T15:15:50.944Z</time></trkpt><trkpt lat="44.4319138" lon="7.3542027"><ele>1046.4285714285713</ele><time>2026-05-02T15:15:55.945Z</time></trkpt><trkpt lat="44.4318513" lon="7.3542203"><ele>1044.5714285714284</ele><time>2026-05-02T15:15:59.851Z</time></trkpt><trkpt lat="44.4317826" lon="7.3542481"><ele>1042.7142857142858</ele><time>2026-05-02T15:16:02.946Z</time></trkpt><trkpt lat="44.4317212" lon="7.3542769"><ele>1040.8571428571427</ele><time>2026-05-02T15:16:06.945Z</time></trkpt><trkpt lat="44.4316571" lon="7.3543085"><ele>1039.0</ele><time>2026-05-02T15:16:09.944Z</time></trkpt><trkpt lat="44.4315939" lon="7.3543529"><ele>1038.9999999999998</ele><time>2026-05-02T15:16:12.853Z</time></trkpt><trkpt lat="44.4315343" lon="7.3543862"><ele>1039.0</ele><time>2026-05-02T15:16:14.944Z</time></trkpt><trkpt lat="44.4314639" lon="7.3544402"><ele>1039.0</ele><time>2026-05-02T15:16:18.945Z</time></trkpt><trkpt lat="44.4313984" lon="7.354454"><ele>1039.0</ele><time>2026-05-02T15:16:22.945Z</time></trkpt><trkpt lat="44.4313245" lon="7.3545111"><ele>1039.0</ele><time>2026-05-02T15:16:28.946Z</time></trkpt><trkpt lat="44.431259" lon="7.3545687"><ele>1038.9999999999998</ele><time>2026-05-02T15:16:32.945Z</time></trkpt><trkpt lat="44.4311918" lon="7.3546026"><ele>1039.0</ele><time>2026-05-02T15:16:35.945Z</time></trkpt><trkpt lat="44.4311147" lon="7.3546299"><ele>1036.1666666666665</ele><time>2026-05-02T15:16:39.945Z</time></trkpt><trkpt lat="44.4310419" lon="7.3546558"><ele>1033.3333333333333</ele><time>2026-05-02T15:16:42.962Z</time></trkpt><trkpt lat="44.4309633" lon="7.3546726"><ele>1030.5</ele><time>2026-05-02T15:16:45.951Z</time></trkpt><trkpt lat="44.4308889" lon="7.3546777"><ele>1027.6666666666667</ele><time>2026-05-02T15:16:49.896Z</time></trkpt><trkpt lat="44.4308156" lon="7.3546712"><ele>1024.8333333333335</ele><time>2026-05-02T15:16:52.945Z</time></trkpt><trkpt lat="44.4307454" lon="7.3546668"><ele>1022.0</ele><time>2026-05-02T15:16:55.944Z</time></trkpt><trkpt lat="44.4306673" lon="7.3546793"><ele>1022.0</ele><time>2026-05-02T15:16:58.945Z</time></trkpt><trkpt lat="44.4305922" lon="7.3547025"><ele>1022.0</ele><time>2026-05-02T15:17:02.946Z</time></trkpt><trkpt lat="44.4305285" lon="7.3547406"><ele>1022.0</ele><time>2026-05-02T15:17:05.946Z</time></trkpt><trkpt lat="44.4304585" lon="7.3547983"><ele>1022.0</ele><time>2026-05-02T15:17:09.945Z</time></trkpt><trkpt lat="44.4303983" lon="7.3548627"><ele>1022.0</ele><time>2026-05-02T15:17:13.945Z</time></trkpt><trkpt lat="44.4303377" lon="7.3549117"><ele>1022.0</ele><time>2026-05-02T15:17:18.945Z</time></trkpt><trkpt lat="44.4302758" lon="7.3549475"><ele>1022.0</ele><time>2026-05-02T15:17:22.946Z</time></trkpt><trkpt lat="44.4302085" lon="7.3549688"><ele>1026.1666666666667</ele><time>2026-05-02T15:17:25.944Z</time></trkpt><trkpt lat="44.4301246" lon="7.3549857"><ele>1030.3333333333335</ele><time>2026-05-02T15:17:29.944Z</time></trkpt><trkpt lat="44.4300549" lon="7.3550167"><ele>1034.5</ele><time>2026-05-02T15:17:32.945Z</time></trkpt><trkpt lat="44.4299787" lon="7.3550613"><ele>1038.6666666666667</ele><time>2026-05-02T15:17:35.853Z</time></trkpt><trkpt lat="44.4299066" lon="7.3551109"><ele>1042.8333333333333</ele><time>2026-05-02T15:17:37.945Z</time></trkpt><trkpt lat="44.4298281" lon="7.3551567"><ele>1047.0</ele><time>2026-05-02T15:17:41.936Z</time></trkpt><trkpt lat="44.4297395" lon="7.3551866"><ele>1047.0000000000002</ele><time>2026-05-02T15:17:44.946Z</time></trkpt><trkpt lat="44.4296769" lon="7.3552157"><ele>1047.0</ele><time>2026-05-02T15:17:46.944Z</time></trkpt><trkpt lat="44.429614" lon="7.3552541"><ele>1047.0</ele><time>2026-05-02T15:17:48.915Z</time></trkpt><trkpt lat="44.4295564" lon="7.3552921"><ele>1047.0</ele><time>2026-05-02T15:17:50.945Z</time></trkpt><trkpt lat="44.4294878" lon="7.3553356"><ele>1047.0</ele><time>2026-05-02T15:17:53.952Z</time></trkpt><trkpt lat="44.4294176" lon="7.3553644"><ele>1047.0000000000002</ele><time>2026-05-02T15:17:57.945Z</time></trkpt><trkpt lat="44.4293345" lon="7.3554043"><ele>1047.0</ele><time>2026-05-02T15:18:00.946Z</time></trkpt><trkpt lat="44.4292757" lon="7.3554362"><ele>1045.6666666666667</ele><time>2026-05-02T15:18:02.946Z</time></trkpt><trkpt lat="44.4292029" lon="7.3554535"><ele>1044.3333333333333</ele><time>2026-05-02T15:18:05.973Z</time></trkpt><trkpt lat="44.4291269" lon="7.3554723"><ele>1043.0</ele><time>2026-05-02T15:18:07.945Z</time></trkpt><trkpt lat="44.4290621" lon="7.355495"><ele>1041.6666666666665</ele><time>2026-05-02T15:18:09.869Z</time></trkpt><trkpt lat="44.4289897" lon="7.3555405"><ele>1040.3333333333333</ele><time>2026-05-02T15:18:12.945Z</time></trkpt><trkpt lat="44.4289757" lon="7.3556471"><ele>1039.0</ele><time>2026-05-02T15:18:16.945Z</time></trkpt><trkpt lat="44.429042" lon="7.3557061"><ele>1039.0</ele><time>2026-05-02T15:18:19.945Z</time></trkpt><trkpt lat="44.4291098" lon="7.3557451"><ele>1039.0</ele><time>2026-05-02T15:18:22.913Z</time></trkpt><trkpt lat="44.4291716" lon="7.355805"><ele>1039.0</ele><time>2026-05-02T15:18:25.945Z</time></trkpt><trkpt lat="44.4292223" lon="7.3558933"><ele>1039.0</ele><time>2026-05-02T15:18:28.945Z</time></trkpt><trkpt lat="44.4292765" lon="7.3559756"><ele>1039.0</ele><time>2026-05-02T15:18:31.945Z</time></trkpt><trkpt lat="44.4293378" lon="7.3560584"><ele>1039.0</ele><time>2026-05-02T15:18:34.945Z</time></trkpt><trkpt lat="44.429394" lon="7.3561146"><ele>1038.9999999999998</ele><time>2026-05-02T15:18:36.944Z</time></trkpt><trkpt lat="44.4294455" lon="7.3561665"><ele>1039.0</ele><time>2026-05-02T15:18:38.946Z</time></trkpt><trkpt lat="44.4295009" lon="7.3562528"><ele>1039.0</ele><time>2026-05-02T15:18:41.944Z</time></trkpt><trkpt lat="44.4295552" lon="7.3563478"><ele>1039.0</ele><time>2026-05-02T15:18:44.945Z</time></trkpt><trkpt lat="44.429589" lon="7.3564298"><ele>1039.0</ele><time>2026-05-02T15:18:46.945Z</time></trkpt><trkpt lat="44.4296078" lon="7.3565165"><ele>1038.9999999999998</ele><time>2026-05-02T15:18:48.947Z</time></trkpt><trkpt lat="44.4296082" lon="7.3566139"><ele>1039.0</ele><time>2026-05-02T15:18:51.945Z</time></trkpt><trkpt lat="44.4296093" lon="7.3567327"><ele>1036.7142857142856</ele><time>2026-05-02T15:18:54.944Z</time></trkpt><trkpt lat="44.4296188" lon="7.3568253"><ele>1034.4285714285713</ele><time>2026-05-02T15:18:56.944Z</time></trkpt><trkpt lat="44.4296545" lon="7.3569008"><ele>1032.142857142857</ele><time>2026-05-02T15:18:58.944Z</time></trkpt><trkpt lat="44.42971" lon="7.356946"><ele>1029.8571428571427</ele><time>2026-05-02T15:19:00.943Z</time></trkpt><trkpt lat="44.4297706" lon="7.3569882"><ele>1027.5714285714284</ele><time>2026-05-02T15:19:02.944Z</time></trkpt><trkpt lat="44.429831" lon="7.3570322"><ele>1025.2857142857142</ele><time>2026-05-02T15:19:04.944Z</time></trkpt><trkpt lat="44.429911" lon="7.3570983"><ele>1023.0</ele><time>2026-05-02T15:19:07.944Z</time></trkpt><trkpt lat="44.4299725" lon="7.3571506"><ele>1025.5</ele><time>2026-05-02T15:19:09.944Z</time></trkpt><trkpt lat="44.4300237" lon="7.3572063"><ele>1028.0</ele><time>2026-05-02T15:19:11.951Z</time></trkpt><trkpt lat="44.4300873" lon="7.3572695"><ele>1030.5</ele><time>2026-05-02T15:19:14.945Z</time></trkpt><trkpt lat="44.4301641" lon="7.3573136"><ele>1033.0</ele><time>2026-05-02T15:19:18.944Z</time></trkpt><trkpt lat="44.4302366" lon="7.3573535"><ele>1035.5</ele><time>2026-05-02T15:19:21.945Z</time></trkpt><trkpt lat="44.430316" lon="7.3573768"><ele>1038.0</ele><time>2026-05-02T15:19:24.944Z</time></trkpt><trkpt lat="44.4303826" lon="7.3573901"><ele>1038.0</ele><time>2026-05-02T15:19:27.944Z</time></trkpt><trkpt lat="44.4304557" lon="7.3574291"><ele>1038.0</ele><time>2026-05-02T15:19:30.944Z</time></trkpt><trkpt lat="44.4305207" lon="7.3575067"><ele>1038.0</ele><time>2026-05-02T15:19:33.944Z</time></trkpt><trkpt lat="44.4305615" lon="7.357594"><ele>1038.0</ele><time>2026-05-02T15:19:35.944Z</time></trkpt><trkpt lat="44.430597" lon="7.3576898"><ele>1038.0</ele><time>2026-05-02T15:19:37.951Z</time></trkpt><trkpt lat="44.4306351" lon="7.3577771"><ele>1038.0</ele><time>2026-05-02T15:19:39.872Z</time></trkpt><trkpt lat="44.430686" lon="7.357857"><ele>1038.0</ele><time>2026-05-02T15:19:41.943Z</time></trkpt><trkpt lat="44.4307538" lon="7.3579182"><ele>1038.0</ele><time>2026-05-02T15:19:43.944Z</time></trkpt><trkpt lat="44.4308271" lon="7.3579629"><ele>1038.0</ele><time>2026-05-02T15:19:45.943Z</time></trkpt><trkpt lat="44.4308982" lon="7.3580344"><ele>1038.0</ele><time>2026-05-02T15:19:47.944Z</time></trkpt><trkpt lat="44.4309621" lon="7.3581164"><ele>1038.0</ele><time>2026-05-02T15:19:49.943Z</time></trkpt><trkpt lat="44.4310181" lon="7.3581849"><ele>1038.0</ele><time>2026-05-02T15:19:51.945Z</time></trkpt><trkpt lat="44.4310758" lon="7.3582435"><ele>1038.0</ele><time>2026-05-02T15:19:53.944Z</time></trkpt><trkpt lat="44.431144" lon="7.3583261"><ele>1038.0</ele><time>2026-05-02T15:19:55.944Z</time></trkpt><trkpt lat="44.4312094" lon="7.3584385"><ele>1038.0</ele><time>2026-05-02T15:19:57.944Z</time></trkpt><trkpt lat="44.4312827" lon="7.3585245"><ele>1038.0</ele><time>2026-05-02T15:19:59.944Z</time></trkpt><trkpt lat="44.4313277" lon="7.3585909"><ele>1038.0</ele><time>2026-05-02T15:20:01.945Z</time></trkpt><trkpt lat="44.4313754" lon="7.3586796"><ele>1038.0</ele><time>2026-05-02T15:20:03.945Z</time></trkpt><trkpt lat="44.4314136" lon="7.3587625"><ele>1034.3333333333333</ele><time>2026-05-02T15:20:05.944Z</time></trkpt><trkpt lat="44.43142" lon="7.3588845"><ele>1030.6666666666667</ele><time>2026-05-02T15:20:07.945Z</time></trkpt><trkpt lat="44.4313784" lon="7.3589738"><ele>1027.0</ele><time>2026-05-02T15:20:09.943Z</time></trkpt><trkpt lat="44.4313217" lon="7.3590821"><ele>1023.3333333333334</ele><time>2026-05-02T15:20:12.944Z</time></trkpt><trkpt lat="44.4312721" lon="7.3591889"><ele>1019.6666666666667</ele><time>2026-05-02T15:20:15.944Z</time></trkpt><trkpt lat="44.4312407" lon="7.3592924"><ele>1016.0</ele><time>2026-05-02T15:20:17.943Z</time></trkpt><trkpt lat="44.4312245" lon="7.3593876"><ele>1016.0000000000001</ele><time>2026-05-02T15:20:19.944Z</time></trkpt><trkpt lat="44.4312154" lon="7.3595125"><ele>1016.0</ele><time>2026-05-02T15:20:22.943Z</time></trkpt><trkpt lat="44.4311879" lon="7.359599"><ele>1016.0</ele><time>2026-05-02T15:20:25.943Z</time></trkpt><trkpt lat="44.4311407" lon="7.3596815"><ele>1016.0</ele><time>2026-05-02T15:20:28.943Z</time></trkpt><trkpt lat="44.4310989" lon="7.359772"><ele>1016.0000000000001</ele><time>2026-05-02T15:20:31.944Z</time></trkpt><trkpt lat="44.431041" lon="7.359859"><ele>1016.0</ele><time>2026-05-02T15:20:34.944Z</time></trkpt><trkpt lat="44.4309916" lon="7.3599408"><ele>1018.4285714285714</ele><time>2026-05-02T15:20:37.944Z</time></trkpt><trkpt lat="44.4309351" lon="7.3600012"><ele>1020.8571428571429</ele><time>2026-05-02T15:20:39.944Z</time></trkpt><trkpt lat="44.4308806" lon="7.3600738"><ele>1023.2857142857143</ele><time>2026-05-02T15:20:41.944Z</time></trkpt><trkpt lat="44.4308183" lon="7.3601407"><ele>1025.7142857142858</ele><time>2026-05-02T15:20:43.945Z</time></trkpt><trkpt lat="44.4307573" lon="7.3602055"><ele>1028.142857142857</ele><time>2026-05-02T15:20:45.944Z</time></trkpt><trkpt lat="44.4307119" lon="7.3602796"><ele>1030.5714285714287</ele><time>2026-05-02T15:20:47.943Z</time></trkpt><trkpt lat="44.4306885" lon="7.3603686"><ele>1033.0</ele><time>2026-05-02T15:20:49.944Z</time></trkpt><trkpt lat="44.4307094" lon="7.3604689"><ele>1033.0</ele><time>2026-05-02T15:20:51.943Z</time></trkpt><trkpt lat="44.4307493" lon="7.3605595"><ele>1033.0</ele><time>2026-05-02T15:20:53.944Z</time></trkpt><trkpt lat="44.4307972" lon="7.3606408"><ele>1033.0</ele><time>2026-05-02T15:20:55.945Z</time></trkpt><trkpt lat="44.4308491" lon="7.3607056"><ele>1033.0</ele><time>2026-05-02T15:20:57.944Z</time></trkpt><trkpt lat="44.4309013" lon="7.3607671"><ele>1033.0</ele><time>2026-05-02T15:20:59.944Z</time></trkpt><trkpt lat="44.4309551" lon="7.3608303"><ele>1033.0</ele><time>2026-05-02T15:21:01.944Z</time></trkpt><trkpt lat="44.4310108" lon="7.3609328"><ele>1033.0</ele><time>2026-05-02T15:21:04.944Z</time></trkpt><trkpt lat="44.4310525" lon="7.3610023"><ele>1033.0</ele><time>2026-05-02T15:21:06.945Z</time></trkpt><trkpt lat="44.4310758" lon="7.3610845"><ele>1033.0</ele><time>2026-05-02T15:21:08.944Z</time></trkpt><trkpt lat="44.4311023" lon="7.361205"><ele>1033.0</ele><time>2026-05-02T15:21:11.944Z</time></trkpt><trkpt lat="44.4311189" lon="7.3612969"><ele>1033.0</ele><time>2026-05-02T15:21:13.944Z</time></trkpt><trkpt lat="44.4311217" lon="7.3613995"><ele>1033.0</ele><time>2026-05-02T15:21:15.943Z</time></trkpt><trkpt lat="44.4310774" lon="7.3615187"><ele>1033.0000000000002</ele><time>2026-05-02T15:21:18.944Z</time></trkpt><trkpt lat="44.4310393" lon="7.361606"><ele>1033.0</ele><time>2026-05-02T15:21:20.836Z</time></trkpt><trkpt lat="44.4309928" lon="7.3616842"><ele>1033.0</ele><time>2026-05-02T15:21:22.942Z</time></trkpt><trkpt lat="44.4309578" lon="7.3617587"><ele>1033.0</ele><time>2026-05-02T15:21:24.944Z</time></trkpt><trkpt lat="44.4309155" lon="7.3618276"><ele>1033.0</ele><time>2026-05-02T15:21:26.944Z</time></trkpt><trkpt lat="44.4308705" lon="7.3618927"><ele>1033.0000000000002</ele><time>2026-05-02T15:21:28.944Z</time></trkpt><trkpt lat="44.4308139" lon="7.3619514"><ele>1033.0</ele><time>2026-05-02T15:21:30.943Z</time></trkpt><trkpt lat="44.430738" lon="7.3620585"><ele>1033.0000000000002</ele><time>2026-05-02T15:21:33.944Z</time></trkpt><trkpt lat="44.4307041" lon="7.3621524"><ele>1033.0</ele><time>2026-05-02T15:21:35.943Z</time></trkpt><trkpt lat="44.4306826" lon="7.3622466"><ele>1033.0</ele><time>2026-05-02T15:21:37.945Z</time></trkpt><trkpt lat="44.4306561" lon="7.3623313"><ele>1033.0</ele><time>2026-05-02T15:21:39.944Z</time></trkpt><trkpt lat="44.4306164" lon="7.3624145"><ele>1033.0</ele><time>2026-05-02T15:21:41.944Z</time></trkpt><trkpt lat="44.4305549" lon="7.3624892"><ele>1033.0000000000002</ele><time>2026-05-02T15:21:43.944Z</time></trkpt><trkpt lat="44.4304835" lon="7.3625466"><ele>1033.0</ele><time>2026-05-02T15:21:45.857Z</time></trkpt><trkpt lat="44.430391" lon="7.362596"><ele>1030.0000000000002</ele><time>2026-05-02T15:21:47.944Z</time></trkpt><trkpt lat="44.4303148" lon="7.36265"><ele>1027.0</ele><time>2026-05-02T15:21:49.944Z</time></trkpt><trkpt lat="44.4302428" lon="7.3627045"><ele>1024.0</ele><time>2026-05-02T15:21:51.975Z</time></trkpt><trkpt lat="44.4301804" lon="7.3627486"><ele>1021.0000000000001</ele><time>2026-05-02T15:21:53.944Z</time></trkpt><trkpt lat="44.430115" lon="7.3627839"><ele>1018.0</ele><time>2026-05-02T15:21:55.943Z</time></trkpt><trkpt lat="44.4300502" lon="7.3628175"><ele>1015.0000000000001</ele><time>2026-05-02T15:21:57.944Z</time></trkpt><trkpt lat="44.4299831" lon="7.3628571"><ele>1012.0000000000001</ele><time>2026-05-02T15:21:59.945Z</time></trkpt><trkpt lat="44.4299054" lon="7.3629371"><ele>1011.9999999999999</ele><time>2026-05-02T15:22:02.944Z</time></trkpt><trkpt lat="44.4298593" lon="7.3629993"><ele>1012.0</ele><time>2026-05-02T15:22:04.945Z</time></trkpt><trkpt lat="44.4298164" lon="7.3630689"><ele>1012.0</ele><time>2026-05-02T15:22:06.944Z</time></trkpt><trkpt lat="44.4297667" lon="7.3631747"><ele>1012.0</ele><time>2026-05-02T15:22:09.944Z</time></trkpt><trkpt lat="44.4297123" lon="7.3632684"><ele>1011.9999999999999</ele><time>2026-05-02T15:22:12.944Z</time></trkpt><trkpt lat="44.4296497" lon="7.3633668"><ele>1012.0</ele><time>2026-05-02T15:22:15.944Z</time></trkpt><trkpt lat="44.4295924" lon="7.3634395"><ele>1011.8333333333333</ele><time>2026-05-02T15:22:17.944Z</time></trkpt><trkpt lat="44.429519" lon="7.363521"><ele>1011.6666666666666</ele><time>2026-05-02T15:22:19.945Z</time></trkpt><trkpt lat="44.4294497" lon="7.3636037"><ele>1011.5</ele><time>2026-05-02T15:22:21.944Z</time></trkpt><trkpt lat="44.4293715" lon="7.3636754"><ele>1011.3333333333333</ele><time>2026-05-02T15:22:23.944Z</time></trkpt><trkpt lat="44.4293138" lon="7.3637257"><ele>1011.1666666666666</ele><time>2026-05-02T15:22:25.944Z</time></trkpt><trkpt lat="44.4292457" lon="7.3637788"><ele>1011.0</ele><time>2026-05-02T15:22:28.944Z</time></trkpt><trkpt lat="44.4292984" lon="7.3638525"><ele>1010.9999999999999</ele><time>2026-05-02T15:23:40.944Z</time></trkpt><trkpt lat="44.4293639" lon="7.3638443"><ele>1011.0</ele><time>2026-05-02T15:23:53.944Z</time></trkpt><trkpt lat="44.4294339" lon="7.3638321"><ele>1010.9999999999999</ele><time>2026-05-02T15:24:02.944Z</time></trkpt><trkpt lat="44.4294903" lon="7.3637912"><ele>1010.9999999999999</ele><time>2026-05-02T15:24:12.944Z</time></trkpt><trkpt lat="44.4295355" lon="7.3637231"><ele>1011.0</ele><time>2026-05-02T15:24:30.944Z</time></trkpt><trkpt lat="44.4296027" lon="7.3637646"><ele>1010.9999999999999</ele><time>2026-05-02T15:24:48.944Z</time></trkpt><trkpt lat="44.4296719" lon="7.3638215"><ele>1010.9999999999999</ele><time>2026-05-02T15:24:51.944Z</time></trkpt><trkpt lat="44.4297383" lon="7.3637892"><ele>1014.7142857142856</ele><time>2026-05-02T15:24:54.944Z</time></trkpt><trkpt lat="44.4298106" lon="7.3637843"><ele>1018.4285714285713</ele><time>2026-05-02T15:24:57.944Z</time></trkpt><trkpt lat="44.4298866" lon="7.3637881"><ele>1022.1428571428571</ele><time>2026-05-02T15:25:00.945Z</time></trkpt><trkpt lat="44.4299541" lon="7.3637852"><ele>1025.8571428571427</ele><time>2026-05-02T15:25:02.945Z</time></trkpt><trkpt lat="44.4300224" lon="7.3637929"><ele>1029.5714285714284</ele><time>2026-05-02T15:25:06.945Z</time></trkpt><trkpt lat="44.4300977" lon="7.3637774"><ele>1033.2857142857142</ele><time>2026-05-02T15:25:09.945Z</time></trkpt><trkpt lat="44.4301738" lon="7.363768"><ele>1037.0</ele><time>2026-05-02T15:25:12.945Z</time></trkpt><trkpt lat="44.4302486" lon="7.3637901"><ele>1037.0</ele><time>2026-05-02T15:25:15.944Z</time></trkpt><trkpt lat="44.4303146" lon="7.3637987"><ele>1037.0</ele><time>2026-05-02T15:25:22.944Z</time></trkpt><trkpt lat="44.4303826" lon="7.3637578"><ele>1037.0</ele><time>2026-05-02T15:25:25.945Z</time></trkpt><trkpt lat="44.4304603" lon="7.3637405"><ele>1037.0</ele><time>2026-05-02T15:25:28.944Z</time></trkpt><trkpt lat="44.4305288" lon="7.3637319"><ele>1037.0</ele><time>2026-05-02T15:25:31.943Z</time></trkpt><trkpt lat="44.4305972" lon="7.3637048"><ele>1037.0</ele><time>2026-05-02T15:25:34.943Z</time></trkpt><trkpt lat="44.4306718" lon="7.3636787"><ele>1037.0</ele><time>2026-05-02T15:25:37.943Z</time></trkpt><trkpt lat="44.4307477" lon="7.3636779"><ele>1038.857142857143</ele><time>2026-05-02T15:25:41.943Z</time></trkpt><trkpt lat="44.4308019" lon="7.363738"><ele>1040.7142857142858</ele><time>2026-05-02T15:25:44.943Z</time></trkpt><trkpt lat="44.4308684" lon="7.363727"><ele>1042.5714285714284</ele><time>2026-05-02T15:25:46.943Z</time></trkpt><trkpt lat="44.430945" lon="7.3637197"><ele>1044.4285714285716</ele><time>2026-05-02T15:25:50.943Z</time></trkpt><trkpt lat="44.4310131" lon="7.3637162"><ele>1046.2857142857142</ele><time>2026-05-02T15:25:53.943Z</time></trkpt><trkpt lat="44.4310949" lon="7.3637276"><ele>1048.142857142857</ele><time>2026-05-02T15:25:56.943Z</time></trkpt><trkpt lat="44.4311619" lon="7.3637477"><ele>1050.0</ele><time>2026-05-02T15:25:59.942Z</time></trkpt><trkpt lat="44.4312251" lon="7.3637497"><ele>1050.0</ele><time>2026-05-02T15:26:15.943Z</time></trkpt><trkpt lat="44.4312896" lon="7.3637769"><ele>1050.0</ele><time>2026-05-02T15:26:18.944Z</time></trkpt><trkpt lat="44.4313488" lon="7.3638093"><ele>1050.0</ele><time>2026-05-02T15:26:20.943Z</time></trkpt><trkpt lat="44.4314326" lon="7.3638533"><ele>1050.0</ele><time>2026-05-02T15:26:23.943Z</time></trkpt><trkpt lat="44.4315054" lon="7.3638881"><ele>1050.0</ele><time>2026-05-02T15:26:26.943Z</time></trkpt><trkpt lat="44.4315735" lon="7.3639211"><ele>1050.0</ele><time>2026-05-02T15:26:30.943Z</time></trkpt><trkpt lat="44.4316499" lon="7.3639618"><ele>1046.4285714285713</ele><time>2026-05-02T15:26:35.943Z</time></trkpt><trkpt lat="44.4317224" lon="7.3639914"><ele>1042.857142857143</ele><time>2026-05-02T15:26:38.942Z</time></trkpt><trkpt lat="44.4317976" lon="7.3640278"><ele>1039.2857142857142</ele><time>2026-05-02T15:26:42.943Z</time></trkpt><trkpt lat="44.4318667" lon="7.364043"><ele>1035.7142857142858</ele><time>2026-05-02T15:26:46.943Z</time></trkpt><trkpt lat="44.4319298" lon="7.3640162"><ele>1032.142857142857</ele><time>2026-05-02T15:26:49.943Z</time></trkpt><trkpt lat="44.4319931" lon="7.3639893"><ele>1028.5714285714284</ele><time>2026-05-02T15:26:51.942Z</time></trkpt><trkpt lat="44.4320592" lon="7.3639624"><ele>1025.0</ele><time>2026-05-02T15:26:53.944Z</time></trkpt><trkpt lat="44.4321438" lon="7.3639286"><ele>1024.3333333333335</ele><time>2026-05-02T15:26:56.942Z</time></trkpt><trkpt lat="44.4322494" lon="7.3639049"><ele>1023.6666666666667</ele><time>2026-05-02T15:26:59.943Z</time></trkpt><trkpt lat="44.4323403" lon="7.3638772"><ele>1023.0</ele><time>2026-05-02T15:27:02.943Z</time></trkpt><trkpt lat="44.4324339" lon="7.3638654"><ele>1022.3333333333333</ele><time>2026-05-02T15:27:05.923Z</time></trkpt><trkpt lat="44.4325223" lon="7.3638905"><ele>1021.6666666666666</ele><time>2026-05-02T15:27:08.943Z</time></trkpt><trkpt lat="44.4325873" lon="7.3638939"><ele>1021.0</ele><time>2026-05-02T15:27:10.943Z</time></trkpt><trkpt lat="44.4326701" lon="7.3638445"><ele>1021.4999999999999</ele><time>2026-05-02T15:27:13.944Z</time></trkpt><trkpt lat="44.4327406" lon="7.3637541"><ele>1022.0</ele><time>2026-05-02T15:27:15.943Z</time></trkpt><trkpt lat="44.432826" lon="7.363699"><ele>1022.5</ele><time>2026-05-02T15:27:18.943Z</time></trkpt><trkpt lat="44.4328822" lon="7.3636508"><ele>1023.0</ele><time>2026-05-02T15:27:20.943Z</time></trkpt><trkpt lat="44.4329537" lon="7.3636238"><ele>1023.4999999999999</ele><time>2026-05-02T15:27:22.943Z</time></trkpt><trkpt lat="44.433025" lon="7.3635634"><ele>1024.0</ele><time>2026-05-02T15:27:25.782Z</time></trkpt><trkpt lat="44.4330832" lon="7.3634638"><ele>1024.0</ele><time>2026-05-02T15:27:28.942Z</time></trkpt><trkpt lat="44.4331381" lon="7.3633961"><ele>1024.0</ele><time>2026-05-02T15:27:31.93Z</time></trkpt><trkpt lat="44.4332131" lon="7.3633326"><ele>1024.0</ele><time>2026-05-02T15:27:35.943Z</time></trkpt><trkpt lat="44.4332771" lon="7.3632959"><ele>1024.0</ele><time>2026-05-02T15:27:38.943Z</time></trkpt><trkpt lat="44.4334234" lon="7.3632482"><ele>1024.0</ele><time>2026-05-02T15:27:40.942Z</time></trkpt><trkpt lat="44.4335121" lon="7.363119"><ele>1023.9999999999999</ele><time>2026-05-02T15:27:42.942Z</time></trkpt><trkpt lat="44.4335739" lon="7.3630459"><ele>1024.0</ele><time>2026-05-02T15:27:44.944Z</time></trkpt><trkpt lat="44.4336138" lon="7.3629429"><ele>1024.0</ele><time>2026-05-02T15:27:47.943Z</time></trkpt><trkpt lat="44.433641" lon="7.3628606"><ele>1024.0</ele><time>2026-05-02T15:27:50.943Z</time></trkpt><trkpt lat="44.4336603" lon="7.3627035"><ele>1023.9999999999999</ele><time>2026-05-02T15:28:31.943Z</time></trkpt><trkpt lat="44.4337004" lon="7.3625932"><ele>1024.0</ele><time>2026-05-02T15:28:54.942Z</time></trkpt><trkpt lat="44.4337409" lon="7.3625244"><ele>1023.5714285714286</ele><time>2026-05-02T15:29:06.943Z</time></trkpt><trkpt lat="44.4337922" lon="7.362471"><ele>1023.1428571428571</ele><time>2026-05-02T15:29:15.943Z</time></trkpt><trkpt lat="44.433846" lon="7.3624089"><ele>1022.7142857142857</ele><time>2026-05-02T15:29:33.943Z</time></trkpt><trkpt lat="44.4339161" lon="7.362387"><ele>1022.2857142857142</ele><time>2026-05-02T15:29:37.943Z</time></trkpt><trkpt lat="44.4339871" lon="7.3623733"><ele>1021.8571428571429</ele><time>2026-05-02T15:29:41.944Z</time></trkpt><trkpt lat="44.4340644" lon="7.3623464"><ele>1021.4285714285713</ele><time>2026-05-02T15:29:45.943Z</time></trkpt><trkpt lat="44.4341371" lon="7.3623519"><ele>1021.0</ele><time>2026-05-02T15:29:49.943Z</time></trkpt><trkpt lat="44.4342092" lon="7.3623533"><ele>1021.0</ele><time>2026-05-02T15:29:53.943Z</time></trkpt><trkpt lat="44.4342746" lon="7.3623532"><ele>1021.0</ele><time>2026-05-02T15:29:56.943Z</time></trkpt><trkpt lat="44.4343567" lon="7.3623544"><ele>1021.0</ele><time>2026-05-02T15:30:00.942Z</time></trkpt><trkpt lat="44.4344196" lon="7.3623497"><ele>1021.0</ele><time>2026-05-02T15:30:02.943Z</time></trkpt><trkpt lat="44.4344894" lon="7.3623201"><ele>1021.0</ele><time>2026-05-02T15:30:05.943Z</time></trkpt><trkpt lat="44.4345636" lon="7.3622899"><ele>1021.0</ele><time>2026-05-02T15:30:08.944Z</time></trkpt><trkpt lat="44.4346473" lon="7.3622527"><ele>1021.0</ele><time>2026-05-02T15:30:11.943Z</time></trkpt><trkpt lat="44.4347213" lon="7.3622294"><ele>1023.4999999999999</ele><time>2026-05-02T15:30:13.943Z</time></trkpt><trkpt lat="44.4347905" lon="7.3622049"><ele>1026.0</ele><time>2026-05-02T15:30:15.944Z</time></trkpt><trkpt lat="44.434866" lon="7.3621293"><ele>1028.5</ele><time>2026-05-02T15:30:18.943Z</time></trkpt><trkpt lat="44.434943" lon="7.362085"><ele>1031.0</ele><time>2026-05-02T15:30:21.943Z</time></trkpt><trkpt lat="44.4350179" lon="7.3620289"><ele>1033.5</ele><time>2026-05-02T15:30:25.943Z</time></trkpt><trkpt lat="44.4350826" lon="7.3619976"><ele>1036.0</ele><time>2026-05-02T15:30:27.943Z</time></trkpt><trkpt lat="44.43516" lon="7.3619512"><ele>1036.0</ele><time>2026-05-02T15:30:30.943Z</time></trkpt><trkpt lat="44.4352523" lon="7.3619231"><ele>1036.0</ele><time>2026-05-02T15:30:43.944Z</time></trkpt><trkpt lat="44.4353178" lon="7.3619355"><ele>1036.0</ele><time>2026-05-02T15:30:47.943Z</time></trkpt><trkpt lat="44.43539" lon="7.361925"><ele>1036.0</ele><time>2026-05-02T15:30:50.943Z</time></trkpt><trkpt lat="44.435461" lon="7.3619224"><ele>1036.0</ele><time>2026-05-02T15:30:54.944Z</time></trkpt><trkpt lat="44.4355377" lon="7.3619228"><ele>1036.0</ele><time>2026-05-02T15:30:58.943Z</time></trkpt><trkpt lat="44.4356158" lon="7.3619257"><ele>1032.0</ele><time>2026-05-02T15:31:02.943Z</time></trkpt><trkpt lat="44.435693" lon="7.361952"><ele>1028.0</ele><time>2026-05-02T15:31:06.942Z</time></trkpt><trkpt lat="44.4357609" lon="7.3620195"><ele>1024.0</ele><time>2026-05-02T15:31:10.943Z</time></trkpt><trkpt lat="44.4358025" lon="7.3621115"><ele>1020.0</ele><time>2026-05-02T15:31:14.943Z</time></trkpt><trkpt lat="44.4358525" lon="7.3620474"><ele>1016.0</ele><time>2026-05-02T15:31:18.944Z</time></trkpt><trkpt lat="44.4358792" lon="7.3619519"><ele>1012.0</ele><time>2026-05-02T15:31:23.943Z</time></trkpt><trkpt lat="44.4358678" lon="7.361862"><ele>1008.0</ele><time>2026-05-02T15:31:27.942Z</time></trkpt><trkpt lat="44.435835" lon="7.3617849"><ele>1008.0</ele><time>2026-05-02T15:31:31.943Z</time></trkpt><trkpt lat="44.4358806" lon="7.3618725"><ele>1008.0</ele><time>2026-05-02T15:32:33.944Z</time></trkpt><trkpt lat="44.4358948" lon="7.3620022"><ele>1008.0</ele><time>2026-05-02T15:32:36.944Z</time></trkpt><trkpt lat="44.4359124" lon="7.362111"><ele>1008.0</ele><time>2026-05-02T15:32:38.944Z</time></trkpt><trkpt lat="44.4359317" lon="7.3622375"><ele>1008.0</ele><time>2026-05-02T15:32:40.943Z</time></trkpt><trkpt lat="44.4359287" lon="7.3623659"><ele>1008.0</ele><time>2026-05-02T15:32:42.944Z</time></trkpt><trkpt lat="44.4358768" lon="7.3624698"><ele>1004.4</ele><time>2026-05-02T15:32:44.943Z</time></trkpt><trkpt lat="44.4357531" lon="7.362469"><ele>1000.8</ele><time>2026-05-02T15:32:46.943Z</time></trkpt><trkpt lat="44.4356946" lon="7.3624198"><ele>997.2</ele><time>2026-05-02T15:32:47.942Z</time></trkpt><trkpt lat="44.4356155" lon="7.3623254"><ele>993.6</ele><time>2026-05-02T15:32:49.943Z</time></trkpt><trkpt lat="44.4355335" lon="7.3622957"><ele>990.0</ele><time>2026-05-02T15:32:51.941Z</time></trkpt><trkpt lat="44.4354801" lon="7.3623742"><ele>990.0</ele><time>2026-05-02T15:32:53.943Z</time></trkpt><trkpt lat="44.435525" lon="7.362481"><ele>990.0</ele><time>2026-05-02T15:32:55.943Z</time></trkpt><trkpt lat="44.4356213" lon="7.3625835"><ele>990.0</ele><time>2026-05-02T15:32:57.942Z</time></trkpt><trkpt lat="44.4356797" lon="7.3626382"><ele>990.0</ele><time>2026-05-02T15:32:58.943Z</time></trkpt><trkpt lat="44.4357469" lon="7.3626935"><ele>990.0</ele><time>2026-05-02T15:32:59.942Z</time></trkpt><trkpt lat="44.4358206" lon="7.3627467"><ele>990.0</ele><time>2026-05-02T15:33:00.942Z</time></trkpt><trkpt lat="44.4358971" lon="7.3628024"><ele>990.0</ele><time>2026-05-02T15:33:01.942Z</time></trkpt><trkpt lat="44.4359752" lon="7.3628695"><ele>990.0</ele><time>2026-05-02T15:33:02.942Z</time></trkpt><trkpt lat="44.4360523" lon="7.3629444"><ele>990.0</ele><time>2026-05-02T15:33:03.942Z</time></trkpt><trkpt lat="44.4361318" lon="7.3630181"><ele>990.0</ele><time>2026-05-02T15:33:04.942Z</time></trkpt><trkpt lat="44.4362118" lon="7.3630949"><ele>990.0</ele><time>2026-05-02T15:33:05.942Z</time></trkpt><trkpt lat="44.4362895" lon="7.363176"><ele>985.4</ele><time>2026-05-02T15:33:06.943Z</time></trkpt><trkpt lat="44.4363679" lon="7.3632523"><ele>980.8</ele><time>2026-05-02T15:33:07.942Z</time></trkpt><trkpt lat="44.4364433" lon="7.3633294"><ele>976.2</ele><time>2026-05-02T15:33:08.942Z</time></trkpt><trkpt lat="44.4365183" lon="7.3634052"><ele>971.6</ele><time>2026-05-02T15:33:09.942Z</time></trkpt><trkpt lat="44.436588" lon="7.3634802"><ele>967.0</ele><time>2026-05-02T15:33:10.942Z</time></trkpt><trkpt lat="44.4366532" lon="7.3635566"><ele>967.0</ele><time>2026-05-02T15:33:11.942Z</time></trkpt><trkpt lat="44.4367219" lon="7.3636343"><ele>967.0</ele><time>2026-05-02T15:33:12.942Z</time></trkpt><trkpt lat="44.436797" lon="7.3637152"><ele>967.0</ele><time>2026-05-02T15:33:13.942Z</time></trkpt><trkpt lat="44.4368575" lon="7.3638109"><ele>967.0</ele><time>2026-05-02T15:33:14.942Z</time></trkpt><trkpt lat="44.4369124" lon="7.3639214"><ele>967.0</ele><time>2026-05-02T15:33:15.942Z</time></trkpt><trkpt lat="44.4369537" lon="7.364049"><ele>964.75</ele><time>2026-05-02T15:33:16.941Z</time></trkpt><trkpt lat="44.4369763" lon="7.3641984"><ele>962.5</ele><time>2026-05-02T15:33:17.942Z</time></trkpt><trkpt lat="44.4369814" lon="7.3643562"><ele>960.25</ele><time>2026-05-02T15:33:18.942Z</time></trkpt><trkpt lat="44.4369946" lon="7.3645152"><ele>958.0</ele><time>2026-05-02T15:33:19.942Z</time></trkpt><trkpt lat="44.4370193" lon="7.3646818"><ele>955.5999999999999</ele><time>2026-05-02T15:33:20.942Z</time></trkpt><trkpt lat="44.4370385" lon="7.3648521"><ele>953.1999999999999</ele><time>2026-05-02T15:33:21.942Z</time></trkpt><trkpt lat="44.4370573" lon="7.3650006"><ele>950.8</ele><time>2026-05-02T15:33:22.943Z</time></trkpt><trkpt lat="44.4370714" lon="7.3651473"><ele>948.4</ele><time>2026-05-02T15:33:23.942Z</time></trkpt><trkpt lat="44.4370799" lon="7.3653032"><ele>946.0</ele><time>2026-05-02T15:33:24.943Z</time></trkpt><trkpt lat="44.4370974" lon="7.3654404"><ele>945.1666666666666</ele><time>2026-05-02T15:33:25.942Z</time></trkpt><trkpt lat="44.4371185" lon="7.3655724"><ele>944.3333333333333</ele><time>2026-05-02T15:33:26.942Z</time></trkpt><trkpt lat="44.4371408" lon="7.3656898"><ele>943.5</ele><time>2026-05-02T15:33:27.942Z</time></trkpt><trkpt lat="44.4371671" lon="7.3657849"><ele>942.6666666666667</ele><time>2026-05-02T15:33:28.943Z</time></trkpt><trkpt lat="44.4372112" lon="7.3658662"><ele>941.8333333333334</ele><time>2026-05-02T15:33:29.942Z</time></trkpt><trkpt lat="44.4372689" lon="7.3659186"><ele>941.0</ele><time>2026-05-02T15:33:30.942Z</time></trkpt><trkpt lat="44.4373646" lon="7.3659951"><ele>941.0000000000001</ele><time>2026-05-02T15:33:32.942Z</time></trkpt><trkpt lat="44.4373307" lon="7.3661063"><ele>941.0</ele><time>2026-05-02T15:33:34.942Z</time></trkpt><trkpt lat="44.4372262" lon="7.3660923"><ele>941.0</ele><time>2026-05-02T15:33:36.942Z</time></trkpt><trkpt lat="44.4371677" lon="7.3660569"><ele>941.0</ele><time>2026-05-02T15:33:37.942Z</time></trkpt><trkpt lat="44.4371094" lon="7.3660029"><ele>941.0000000000001</ele><time>2026-05-02T15:33:38.942Z</time></trkpt><trkpt lat="44.4370638" lon="7.3659343"><ele>941.0</ele><time>2026-05-02T15:33:39.941Z</time></trkpt><trkpt lat="44.4370063" lon="7.3657938"><ele>939.5000000000001</ele><time>2026-05-02T15:33:41.941Z</time></trkpt><trkpt lat="44.4369235" lon="7.3657387"><ele>938.0</ele><time>2026-05-02T15:33:43.943Z</time></trkpt><trkpt lat="44.4368802" lon="7.3658256"><ele>936.5</ele><time>2026-05-02T15:33:45.942Z</time></trkpt><trkpt lat="44.436925" lon="7.3659659"><ele>935.0</ele><time>2026-05-02T15:33:47.942Z</time></trkpt><trkpt lat="44.436958" lon="7.3660462"><ele>933.5000000000001</ele><time>2026-05-02T15:33:48.942Z</time></trkpt><trkpt lat="44.4369929" lon="7.366133"><ele>932.0</ele><time>2026-05-02T15:33:49.942Z</time></trkpt><trkpt lat="44.4370376" lon="7.3662247"><ele>932.0</ele><time>2026-05-02T15:33:50.942Z</time></trkpt><trkpt lat="44.4370874" lon="7.3663147"><ele>932.0</ele><time>2026-05-02T15:33:51.941Z</time></trkpt><trkpt lat="44.4371469" lon="7.3664122"><ele>932.0</ele><time>2026-05-02T15:33:52.942Z</time></trkpt><trkpt lat="44.4372086" lon="7.3665192"><ele>932.0</ele><time>2026-05-02T15:33:53.942Z</time></trkpt><trkpt lat="44.4372638" lon="7.3666442"><ele>932.0</ele><time>2026-05-02T15:33:54.943Z</time></trkpt><trkpt lat="44.4373029" lon="7.3667886"><ele>930.5</ele><time>2026-05-02T15:33:55.943Z</time></trkpt><trkpt lat="44.4373383" lon="7.3669386"><ele>929.0</ele><time>2026-05-02T15:33:56.943Z</time></trkpt><trkpt lat="44.4373727" lon="7.3670984"><ele>927.5</ele><time>2026-05-02T15:33:57.943Z</time></trkpt><trkpt lat="44.437402" lon="7.3672626"><ele>926.0</ele><time>2026-05-02T15:33:58.943Z</time></trkpt><trkpt lat="44.437427" lon="7.3674176"><ele>924.8</ele><time>2026-05-02T15:33:59.942Z</time></trkpt><trkpt lat="44.4374463" lon="7.3675567"><ele>923.5999999999999</ele><time>2026-05-02T15:34:00.942Z</time></trkpt><trkpt lat="44.4374554" lon="7.3676977"><ele>922.4</ele><time>2026-05-02T15:34:01.942Z</time></trkpt><trkpt lat="44.4374583" lon="7.3678373"><ele>921.2</ele><time>2026-05-02T15:34:02.942Z</time></trkpt><trkpt lat="44.4374534" lon="7.3679789"><ele>920.0</ele><time>2026-05-02T15:34:03.942Z</time></trkpt><trkpt lat="44.437443" lon="7.3681189"><ele>919.2</ele><time>2026-05-02T15:34:04.942Z</time></trkpt><trkpt lat="44.4374294" lon="7.3682548"><ele>918.4</ele><time>2026-05-02T15:34:05.941Z</time></trkpt><trkpt lat="44.4374115" lon="7.3683929"><ele>917.5999999999999</ele><time>2026-05-02T15:34:06.941Z</time></trkpt><trkpt lat="44.4373917" lon="7.368533"><ele>916.8</ele><time>2026-05-02T15:34:07.943Z</time></trkpt><trkpt lat="44.4373702" lon="7.3686723"><ele>916.0</ele><time>2026-05-02T15:34:08.943Z</time></trkpt><trkpt lat="44.4373473" lon="7.3688073"><ele>916.3333333333333</ele><time>2026-05-02T15:34:09.943Z</time></trkpt><trkpt lat="44.4373106" lon="7.3689324"><ele>916.6666666666666</ele><time>2026-05-02T15:34:10.942Z</time></trkpt><trkpt lat="44.4372649" lon="7.369047"><ele>917.0</ele><time>2026-05-02T15:34:11.942Z</time></trkpt><trkpt lat="44.4372243" lon="7.3691578"><ele>917.3333333333333</ele><time>2026-05-02T15:34:12.942Z</time></trkpt><trkpt lat="44.4371958" lon="7.3692614"><ele>917.6666666666666</ele><time>2026-05-02T15:34:13.942Z</time></trkpt><trkpt lat="44.4371778" lon="7.3693615"><ele>918.0</ele><time>2026-05-02T15:34:14.942Z</time></trkpt><trkpt lat="44.437167" lon="7.369455"><ele>918.0</ele><time>2026-05-02T15:34:15.943Z</time></trkpt><trkpt lat="44.43716" lon="7.3695441"><ele>918.0</ele><time>2026-05-02T15:34:16.942Z</time></trkpt><trkpt lat="44.4371628" lon="7.3696955"><ele>918.0</ele><time>2026-05-02T15:34:18.943Z</time></trkpt><trkpt lat="44.4371858" lon="7.3698158"><ele>918.0</ele><time>2026-05-02T15:34:20.942Z</time></trkpt><trkpt lat="44.4372033" lon="7.3699225"><ele>918.0</ele><time>2026-05-02T15:34:22.943Z</time></trkpt><trkpt lat="44.4372081" lon="7.3700451"><ele>918.0</ele><time>2026-05-02T15:34:24.942Z</time></trkpt><trkpt lat="44.4371638" lon="7.370154"><ele>919.3333333333334</ele><time>2026-05-02T15:34:26.942Z</time></trkpt><trkpt lat="44.437092" lon="7.3702235"><ele>920.6666666666667</ele><time>2026-05-02T15:34:28.942Z</time></trkpt><trkpt lat="44.437055" lon="7.3703149"><ele>922.0</ele><time>2026-05-02T15:34:30.942Z</time></trkpt><trkpt lat="44.4370512" lon="7.3704353"><ele>923.3333333333334</ele><time>2026-05-02T15:34:32.942Z</time></trkpt><trkpt lat="44.4370917" lon="7.3705417"><ele>924.6666666666667</ele><time>2026-05-02T15:34:34.941Z</time></trkpt><trkpt lat="44.4371595" lon="7.3706238"><ele>926.0</ele><time>2026-05-02T15:34:36.942Z</time></trkpt><trkpt lat="44.4372312" lon="7.3707014"><ele>926.0000000000001</ele><time>2026-05-02T15:34:38.942Z</time></trkpt><trkpt lat="44.437301" lon="7.3707822"><ele>926.0</ele><time>2026-05-02T15:34:40.942Z</time></trkpt><trkpt lat="44.4373695" lon="7.370874"><ele>926.0</ele><time>2026-05-02T15:34:42.943Z</time></trkpt><trkpt lat="44.4374058" lon="7.370982"><ele>926.0</ele><time>2026-05-02T15:34:44.942Z</time></trkpt><trkpt lat="44.4374221" lon="7.3710874"><ele>926.0000000000001</ele><time>2026-05-02T15:34:46.942Z</time></trkpt><trkpt lat="44.4374545" lon="7.3712154"><ele>926.0</ele><time>2026-05-02T15:34:48.943Z</time></trkpt><trkpt lat="44.437515" lon="7.3713267"><ele>924.0000000000001</ele><time>2026-05-02T15:34:50.942Z</time></trkpt><trkpt lat="44.4375844" lon="7.3714572"><ele>922.0</ele><time>2026-05-02T15:34:52.943Z</time></trkpt><trkpt lat="44.4376063" lon="7.3715427"><ele>920.0</ele><time>2026-05-02T15:34:53.941Z</time></trkpt><trkpt lat="44.4376156" lon="7.371631"><ele>918.0</ele><time>2026-05-02T15:34:54.941Z</time></trkpt><trkpt lat="44.4376204" lon="7.3717208"><ele>916.0000000000001</ele><time>2026-05-02T15:34:55.942Z</time></trkpt><trkpt lat="44.4376179" lon="7.3718942"><ele>914.0</ele><time>2026-05-02T15:34:57.942Z</time></trkpt><trkpt lat="44.4376239" lon="7.3720566"><ele>913.2</ele><time>2026-05-02T15:34:59.942Z</time></trkpt><trkpt lat="44.4376302" lon="7.3722063"><ele>912.4000000000001</ele><time>2026-05-02T15:35:01.941Z</time></trkpt><trkpt lat="44.4376522" lon="7.372347"><ele>911.6</ele><time>2026-05-02T15:35:03.941Z</time></trkpt><trkpt lat="44.4376822" lon="7.3724825"><ele>910.8</ele><time>2026-05-02T15:35:05.942Z</time></trkpt><trkpt lat="44.4377272" lon="7.3726233"><ele>910.0</ele><time>2026-05-02T15:35:07.942Z</time></trkpt><trkpt lat="44.4377516" lon="7.3727724"><ele>910.0</ele><time>2026-05-02T15:35:09.941Z</time></trkpt><trkpt lat="44.437734" lon="7.3729301"><ele>910.0</ele><time>2026-05-02T15:35:11.942Z</time></trkpt><trkpt lat="44.4376832" lon="7.3730565"><ele>910.0</ele><time>2026-05-02T15:35:13.942Z</time></trkpt><trkpt lat="44.4376035" lon="7.3731782"><ele>910.0</ele><time>2026-05-02T15:35:15.942Z</time></trkpt><trkpt lat="44.4375217" lon="7.3732904"><ele>911.4</ele><time>2026-05-02T15:35:17.942Z</time></trkpt><trkpt lat="44.4374409" lon="7.3733928"><ele>912.8</ele><time>2026-05-02T15:35:19.943Z</time></trkpt><trkpt lat="44.4373674" lon="7.3734929"><ele>914.2</ele><time>2026-05-02T15:35:21.942Z</time></trkpt><trkpt lat="44.4373025" lon="7.3735951"><ele>915.6</ele><time>2026-05-02T15:35:23.943Z</time></trkpt><trkpt lat="44.4372451" lon="7.373708"><ele>917.0</ele><time>2026-05-02T15:35:25.943Z</time></trkpt><trkpt lat="44.4371975" lon="7.3738286"><ele>918.4000000000001</ele><time>2026-05-02T15:35:27.942Z</time></trkpt><trkpt lat="44.4371554" lon="7.3739538"><ele>919.8000000000001</ele><time>2026-05-02T15:35:29.942Z</time></trkpt><trkpt lat="44.4371199" lon="7.3740804"><ele>921.2</ele><time>2026-05-02T15:35:31.943Z</time></trkpt><trkpt lat="44.4370852" lon="7.3742165"><ele>922.6</ele><time>2026-05-02T15:35:33.942Z</time></trkpt><trkpt lat="44.437056" lon="7.3743599"><ele>924.0</ele><time>2026-05-02T15:35:35.943Z</time></trkpt><trkpt lat="44.4370375" lon="7.3744712"><ele>921.1666666666666</ele><time>2026-05-02T15:35:37.942Z</time></trkpt><trkpt lat="44.4370156" lon="7.3745796"><ele>918.3333333333333</ele><time>2026-05-02T15:35:39.942Z</time></trkpt><trkpt lat="44.4369785" lon="7.374685"><ele>915.5</ele><time>2026-05-02T15:35:41.943Z</time></trkpt><trkpt lat="44.4369705" lon="7.3747763"><ele>912.6666666666666</ele><time>2026-05-02T15:35:43.942Z</time></trkpt><trkpt lat="44.4369872" lon="7.3748792"><ele>909.8333333333333</ele><time>2026-05-02T15:38:48.942Z</time></trkpt><trkpt lat="44.4370122" lon="7.3749827"><ele>907.0</ele><time>2026-05-02T15:38:51.942Z</time></trkpt><trkpt lat="44.4370381" lon="7.3751121"><ele>907.0000000000001</ele><time>2026-05-02T15:38:54.942Z</time></trkpt><trkpt lat="44.4370569" lon="7.3751985"><ele>907.0</ele><time>2026-05-02T15:38:56.942Z</time></trkpt><trkpt lat="44.4370744" lon="7.3752984"><ele>907.0000000000001</ele><time>2026-05-02T15:38:58.86Z</time></trkpt><trkpt lat="44.4370926" lon="7.3753893"><ele>907.0000000000001</ele><time>2026-05-02T15:39:00.942Z</time></trkpt><trkpt lat="44.4371072" lon="7.375482"><ele>907.0</ele><time>2026-05-02T15:39:02.903Z</time></trkpt><trkpt lat="44.4371274" lon="7.3755776"><ele>907.0000000000001</ele><time>2026-05-02T15:39:04.941Z</time></trkpt><trkpt lat="44.4371322" lon="7.3756756"><ele>907.0000000000001</ele><time>2026-05-02T15:39:06.929Z</time></trkpt><trkpt lat="44.4371322" lon="7.375792"><ele>907.8333333333333</ele><time>2026-05-02T15:39:09.943Z</time></trkpt><trkpt lat="44.4371185" lon="7.375902"><ele>908.6666666666666</ele><time>2026-05-02T15:39:12.942Z</time></trkpt><trkpt lat="44.4370951" lon="7.3759906"><ele>909.5</ele><time>2026-05-02T15:39:14.942Z</time></trkpt><trkpt lat="44.4370759" lon="7.376079"><ele>910.3333333333333</ele><time>2026-05-02T15:39:16.861Z</time></trkpt><trkpt lat="44.4370389" lon="7.3761875"><ele>911.1666666666666</ele><time>2026-05-02T15:39:19.942Z</time></trkpt><trkpt lat="44.4370263" lon="7.3762768"><ele>912.0</ele><time>2026-05-02T15:39:23.942Z</time></trkpt><trkpt lat="44.4370819" lon="7.376368"><ele>912.6666666666666</ele><time>2026-05-02T15:39:27.943Z</time></trkpt><trkpt lat="44.4371737" lon="7.3763474"><ele>913.3333333333333</ele><time>2026-05-02T15:39:29.942Z</time></trkpt><trkpt lat="44.4372424" lon="7.376302"><ele>914.0</ele><time>2026-05-02T15:39:30.943Z</time></trkpt><trkpt lat="44.4373464" lon="7.3762107"><ele>914.6666666666666</ele><time>2026-05-02T15:39:32.942Z</time></trkpt><trkpt lat="44.4374021" lon="7.3761625"><ele>915.3333333333333</ele><time>2026-05-02T15:39:33.942Z</time></trkpt><trkpt lat="44.4374592" lon="7.3761136"><ele>916.0</ele><time>2026-05-02T15:39:34.943Z</time></trkpt><trkpt lat="44.4375164" lon="7.376056"><ele>915.9999999999999</ele><time>2026-05-02T15:39:35.942Z</time></trkpt><trkpt lat="44.4375715" lon="7.375986"><ele>916.0</ele><time>2026-05-02T15:39:36.942Z</time></trkpt><trkpt lat="44.4376247" lon="7.3759027"><ele>916.0</ele><time>2026-05-02T15:39:37.943Z</time></trkpt><trkpt lat="44.4376729" lon="7.3758142"><ele>916.0</ele><time>2026-05-02T15:39:38.942Z</time></trkpt><trkpt lat="44.4377278" lon="7.3757007"><ele>915.9999999999999</ele><time>2026-05-02T15:39:40.943Z</time></trkpt><trkpt lat="44.4377622" lon="7.3755843"><ele>916.0</ele><time>2026-05-02T15:39:43.942Z</time></trkpt><trkpt lat="44.4378231" lon="7.3756158"><ele>915.9999999999999</ele><time>2026-05-02T15:39:49.942Z</time></trkpt><trkpt lat="44.4377749" lon="7.3757443"><ele>916.0</ele><time>2026-05-02T15:39:52.942Z</time></trkpt><trkpt lat="44.4377516" lon="7.3758279"><ele>916.0</ele><time>2026-05-02T15:39:54.942Z</time></trkpt><trkpt lat="44.4378039" lon="7.3757605"><ele>916.0</ele><time>2026-05-02T15:40:01.942Z</time></trkpt><trkpt lat="44.4378459" lon="7.3756617"><ele>915.9999999999999</ele><time>2026-05-02T15:40:03.942Z</time></trkpt><trkpt lat="44.4378662" lon="7.3755461"><ele>916.0</ele><time>2026-05-02T15:40:05.942Z</time></trkpt><trkpt lat="44.4379043" lon="7.375418"><ele>917.5999999999999</ele><time>2026-05-02T15:40:07.942Z</time></trkpt><trkpt lat="44.4379442" lon="7.3753357"><ele>919.1999999999999</ele><time>2026-05-02T15:40:09.942Z</time></trkpt><trkpt lat="44.438018" lon="7.3752409"><ele>920.8000000000001</ele><time>2026-05-02T15:40:11.942Z</time></trkpt><trkpt lat="44.4381059" lon="7.3751214"><ele>922.4000000000001</ele><time>2026-05-02T15:40:13.942Z</time></trkpt><trkpt lat="44.4381335" lon="7.3750417"><ele>924.0</ele><time>2026-05-02T15:40:14.942Z</time></trkpt><trkpt lat="44.4382025" lon="7.3749054"><ele>918.6</ele><time>2026-05-02T15:40:16.943Z</time></trkpt><trkpt lat="44.4382352" lon="7.3747657"><ele>913.2</ele><time>2026-05-02T15:40:18.942Z</time></trkpt><trkpt lat="44.4382679" lon="7.3746136"><ele>907.8000000000001</ele><time>2026-05-02T15:40:20.941Z</time></trkpt><trkpt lat="44.4383015" lon="7.3744926"><ele>902.4000000000001</ele><time>2026-05-02T15:40:22.942Z</time></trkpt><trkpt lat="44.4383369" lon="7.3743704"><ele>897.0</ele><time>2026-05-02T15:40:24.941Z</time></trkpt><trkpt lat="44.4383712" lon="7.3742496"><ele>897.0</ele><time>2026-05-02T15:40:26.942Z</time></trkpt><trkpt lat="44.4384267" lon="7.3740783"><ele>897.0</ele><time>2026-05-02T15:40:28.941Z</time></trkpt><trkpt lat="44.4384533" lon="7.3739836"><ele>897.0</ele><time>2026-05-02T15:40:29.941Z</time></trkpt><trkpt lat="44.4384815" lon="7.3738854"><ele>897.0</ele><time>2026-05-02T15:40:30.941Z</time></trkpt><trkpt lat="44.4385129" lon="7.3737206"><ele>897.0</ele><time>2026-05-02T15:40:32.941Z</time></trkpt><trkpt lat="44.4385232" lon="7.3736305"><ele>898.0</ele><time>2026-05-02T15:40:33.941Z</time></trkpt><trkpt lat="44.4385405" lon="7.3734702"><ele>899.0</ele><time>2026-05-02T15:40:35.941Z</time></trkpt><trkpt lat="44.4385604" lon="7.3733734"><ele>900.0</ele><time>2026-05-02T15:40:36.941Z</time></trkpt><trkpt lat="44.4386157" lon="7.3732816"><ele>901.0</ele><time>2026-05-02T15:40:37.941Z</time></trkpt><trkpt lat="44.4386668" lon="7.3731826"><ele>902.0</ele><time>2026-05-02T15:40:38.94Z</time></trkpt><trkpt lat="44.4387199" lon="7.3730867"><ele>903.0</ele><time>2026-05-02T15:40:39.941Z</time></trkpt><trkpt lat="44.4387974" lon="7.3729517"><ele>899.0</ele><time>2026-05-02T15:40:41.94Z</time></trkpt><trkpt lat="44.4388386" lon="7.3728755"><ele>895.0</ele><time>2026-05-02T15:40:42.942Z</time></trkpt><trkpt lat="44.4388853" lon="7.372815"><ele>891.0</ele><time>2026-05-02T15:40:43.941Z</time></trkpt><trkpt lat="44.43893" lon="7.3727495"><ele>887.0</ele><time>2026-05-02T15:40:44.941Z</time></trkpt><trkpt lat="44.4389884" lon="7.3726957"><ele>883.0</ele><time>2026-05-02T15:40:45.941Z</time></trkpt><trkpt lat="44.4390043" lon="7.3725856"><ele>879.0</ele><time>2026-05-02T15:40:47.941Z</time></trkpt><trkpt lat="44.4390413" lon="7.3724777"><ele>875.0</ele><time>2026-05-02T15:40:49.941Z</time></trkpt><trkpt lat="44.4390967" lon="7.3723739"><ele>875.0</ele><time>2026-05-02T15:40:52.942Z</time></trkpt><trkpt lat="44.4392007" lon="7.3723393"><ele>875.0</ele><time>2026-05-02T15:40:54.94Z</time></trkpt><trkpt lat="44.4393422" lon="7.3723598"><ele>875.0</ele><time>2026-05-02T15:40:56.941Z</time></trkpt><trkpt lat="44.4394154" lon="7.3722787"><ele>875.0</ele><time>2026-05-02T15:40:59.941Z</time></trkpt><trkpt lat="44.4394887" lon="7.3722676"><ele>875.0</ele><time>2026-05-02T15:41:00.941Z</time></trkpt><trkpt lat="44.4395736" lon="7.3722003"><ele>872.4</ele><time>2026-05-02T15:41:02.941Z</time></trkpt><trkpt lat="44.4396533" lon="7.3721269"><ele>869.8</ele><time>2026-05-02T15:41:04.941Z</time></trkpt><trkpt lat="44.4397615" lon="7.3721013"><ele>867.2</ele><time>2026-05-02T15:41:06.941Z</time></trkpt><trkpt lat="44.4398592" lon="7.3720217"><ele>864.6</ele><time>2026-05-02T15:41:08.941Z</time></trkpt><trkpt lat="44.439939" lon="7.3719222"><ele>862.0</ele><time>2026-05-02T15:41:10.941Z</time></trkpt><trkpt lat="44.4400612" lon="7.3718709"><ele>861.9999999999999</ele><time>2026-05-02T15:41:12.941Z</time></trkpt><trkpt lat="44.4401288" lon="7.3718504"><ele>862.0</ele><time>2026-05-02T15:41:13.942Z</time></trkpt><trkpt lat="44.4401997" lon="7.3717963"><ele>862.0</ele><time>2026-05-02T15:41:14.941Z</time></trkpt><trkpt lat="44.4402664" lon="7.371759"><ele>862.0</ele><time>2026-05-02T15:41:15.941Z</time></trkpt><trkpt lat="44.4403296" lon="7.3717303"><ele>861.9999999999999</ele><time>2026-05-02T15:41:16.941Z</time></trkpt><trkpt lat="44.4404407" lon="7.3716929"><ele>862.0</ele><time>2026-05-02T15:41:18.942Z</time></trkpt><trkpt lat="44.4405258" lon="7.3716269"><ele>857.8</ele><time>2026-05-02T15:41:20.942Z</time></trkpt><trkpt lat="44.4405976" lon="7.371498"><ele>853.6</ele><time>2026-05-02T15:41:22.942Z</time></trkpt><trkpt lat="44.4406273" lon="7.3713545"><ele>849.4</ele><time>2026-05-02T15:41:24.941Z</time></trkpt><trkpt lat="44.4406059" lon="7.371171"><ele>845.1999999999999</ele><time>2026-05-02T15:41:26.941Z</time></trkpt><trkpt lat="44.4406192" lon="7.3710741"><ele>841.0</ele><time>2026-05-02T15:41:27.941Z</time></trkpt><trkpt lat="44.440596" lon="7.3709843"><ele>841.0</ele><time>2026-05-02T15:41:28.941Z</time></trkpt><trkpt lat="44.4406105" lon="7.3708263"><ele>841.0</ele><time>2026-05-02T15:41:30.941Z</time></trkpt><trkpt lat="44.4406641" lon="7.3707668"><ele>841.0</ele><time>2026-05-02T15:41:31.941Z</time></trkpt><trkpt lat="44.4407026" lon="7.3706289"><ele>841.0</ele><time>2026-05-02T15:41:33.941Z</time></trkpt><trkpt lat="44.4407419" lon="7.3704636"><ele>841.0</ele><time>2026-05-02T15:41:35.942Z</time></trkpt><trkpt lat="44.4407486" lon="7.3703606"><ele>840.8333333333333</ele><time>2026-05-02T15:41:37.942Z</time></trkpt><trkpt lat="44.4407944" lon="7.3702767"><ele>840.6666666666666</ele><time>2026-05-02T15:41:39.942Z</time></trkpt><trkpt lat="44.4408583" lon="7.3702162"><ele>840.5</ele><time>2026-05-02T15:41:41.941Z</time></trkpt><trkpt lat="44.4408446" lon="7.370115"><ele>840.3333333333333</ele><time>2026-05-02T15:41:47.942Z</time></trkpt><trkpt lat="44.4407886" lon="7.370026"><ele>840.1666666666666</ele><time>2026-05-02T15:41:51.942Z</time></trkpt><trkpt lat="44.4407691" lon="7.3699207"><ele>840.0</ele><time>2026-05-02T15:41:55.941Z</time></trkpt><trkpt lat="44.4408049" lon="7.3698244"><ele>840.0</ele><time>2026-05-02T15:41:58.941Z</time></trkpt><trkpt lat="44.4408428" lon="7.3697081"><ele>840.0</ele><time>2026-05-02T15:42:00.941Z</time></trkpt><trkpt lat="44.4408935" lon="7.3695994"><ele>840.0</ele><time>2026-05-02T15:42:02.941Z</time></trkpt><trkpt lat="44.4409572" lon="7.3694901"><ele>840.0</ele><time>2026-05-02T15:42:04.942Z</time></trkpt><trkpt lat="44.4410131" lon="7.3693654"><ele>840.0</ele><time>2026-05-02T15:42:06.942Z</time></trkpt><trkpt lat="44.441093" lon="7.3692385"><ele>839.0</ele><time>2026-05-02T15:42:08.942Z</time></trkpt><trkpt lat="44.4411649" lon="7.3691001"><ele>838.0</ele><time>2026-05-02T15:42:10.941Z</time></trkpt><trkpt lat="44.4412318" lon="7.3689676"><ele>837.0</ele><time>2026-05-02T15:42:12.941Z</time></trkpt><trkpt lat="44.4413079" lon="7.368872"><ele>836.0</ele><time>2026-05-02T15:42:14.941Z</time></trkpt><trkpt lat="44.4413636" lon="7.3687965"><ele>835.0</ele><time>2026-05-02T15:42:16.941Z</time></trkpt><trkpt lat="44.4414106" lon="7.3687217"><ele>833.5714285714287</ele><time>2026-05-02T15:42:18.941Z</time></trkpt><trkpt lat="44.4414546" lon="7.3686471"><ele>832.1428571428571</ele><time>2026-05-02T15:42:20.941Z</time></trkpt><trkpt lat="44.4413998" lon="7.3685833"><ele>830.7142857142858</ele><time>2026-05-02T15:42:21.942Z</time></trkpt><trkpt lat="44.4413397" lon="7.3685164"><ele>829.2857142857143</ele><time>2026-05-02T15:42:23.941Z</time></trkpt><trkpt lat="44.4412784" lon="7.3684567"><ele>827.8571428571429</ele><time>2026-05-02T15:42:25.941Z</time></trkpt><trkpt lat="44.4412278" lon="7.3683771"><ele>826.4285714285714</ele><time>2026-05-02T15:42:27.941Z</time></trkpt><trkpt lat="44.4411907" lon="7.3682784"><ele>825.0</ele><time>2026-05-02T15:42:29.94Z</time></trkpt><trkpt lat="44.4411508" lon="7.3681418"><ele>825.0</ele><time>2026-05-02T15:42:31.941Z</time></trkpt><trkpt lat="44.4411145" lon="7.3680146"><ele>825.0</ele><time>2026-05-02T15:42:33.942Z</time></trkpt><trkpt lat="44.4410704" lon="7.3679263"><ele>825.0</ele><time>2026-05-02T15:42:35.941Z</time></trkpt><trkpt lat="44.4409687" lon="7.3679391"><ele>825.0</ele><time>2026-05-02T15:42:38.941Z</time></trkpt><trkpt lat="44.4409054" lon="7.3679988"><ele>825.0</ele><time>2026-05-02T15:42:40.942Z</time></trkpt><trkpt lat="44.4408289" lon="7.3680516"><ele>825.0</ele><time>2026-05-02T15:42:42.941Z</time></trkpt><trkpt lat="44.4407643" lon="7.3681102"><ele>825.0</ele><time>2026-05-02T15:42:44.941Z</time></trkpt><trkpt lat="44.4407021" lon="7.3681624"><ele>825.0</ele><time>2026-05-02T15:42:46.941Z</time></trkpt><trkpt lat="44.4406176" lon="7.3680895"><ele>825.0</ele><time>2026-05-02T15:42:48.942Z</time></trkpt><trkpt lat="44.44056" lon="7.3679989"><ele>825.0</ele><time>2026-05-02T15:42:50.94Z</time></trkpt><trkpt lat="44.4405107" lon="7.3679324"><ele>825.0</ele><time>2026-05-02T15:42:51.941Z</time></trkpt><trkpt lat="44.4404709" lon="7.3678425"><ele>825.0</ele><time>2026-05-02T15:42:52.941Z</time></trkpt><trkpt lat="44.4404242" lon="7.3677376"><ele>824.4</ele><time>2026-05-02T15:42:54.94Z</time></trkpt><trkpt lat="44.4403476" lon="7.3677047"><ele>823.8</ele><time>2026-05-02T15:42:56.941Z</time></trkpt><trkpt lat="44.4402748" lon="7.3676934"><ele>823.2</ele><time>2026-05-02T15:42:58.941Z</time></trkpt><trkpt lat="44.4401509" lon="7.3676624"><ele>822.6</ele><time>2026-05-02T15:43:00.941Z</time></trkpt><trkpt lat="44.4400403" lon="7.3676271"><ele>822.0</ele><time>2026-05-02T15:43:02.941Z</time></trkpt><trkpt lat="44.4399803" lon="7.367578"><ele>822.0</ele><time>2026-05-02T15:43:04.942Z</time></trkpt><trkpt lat="44.4400222" lon="7.3674544"><ele>822.0</ele><time>2026-05-02T15:43:07.941Z</time></trkpt><trkpt lat="44.4400876" lon="7.3673975"><ele>822.0</ele><time>2026-05-02T15:43:09.859Z</time></trkpt><trkpt lat="44.4401376" lon="7.3672905"><ele>822.0</ele><time>2026-05-02T15:43:11.959Z</time></trkpt><trkpt lat="44.4401215" lon="7.3671557"><ele>822.0</ele><time>2026-05-02T15:43:13.941Z</time></trkpt><trkpt lat="44.4400472" lon="7.3670538"><ele>822.3333333333334</ele><time>2026-05-02T15:43:15.941Z</time></trkpt><trkpt lat="44.4400066" lon="7.3669482"><ele>822.6666666666667</ele><time>2026-05-02T15:43:17.941Z</time></trkpt><trkpt lat="44.4400456" lon="7.3668434"><ele>823.0</ele><time>2026-05-02T15:43:19.941Z</time></trkpt><trkpt lat="44.440133" lon="7.3668173"><ele>823.3333333333334</ele><time>2026-05-02T15:43:21.941Z</time></trkpt><trkpt lat="44.4401991" lon="7.3667565"><ele>823.6666666666667</ele><time>2026-05-02T15:43:23.942Z</time></trkpt><trkpt lat="44.4402392" lon="7.3666134"><ele>824.0</ele><time>2026-05-02T15:43:25.94Z</time></trkpt><trkpt lat="44.4402734" lon="7.3664522"><ele>825.8000000000001</ele><time>2026-05-02T15:43:27.941Z</time></trkpt><trkpt lat="44.4403453" lon="7.3663142"><ele>827.6</ele><time>2026-05-02T15:43:29.941Z</time></trkpt><trkpt lat="44.440397" lon="7.366176"><ele>829.4</ele><time>2026-05-02T15:43:31.942Z</time></trkpt><trkpt lat="44.4404011" lon="7.3660297"><ele>831.2</ele><time>2026-05-02T15:43:33.941Z</time></trkpt><trkpt lat="44.4403772" lon="7.3658844"><ele>833.0</ele><time>2026-05-02T15:43:35.941Z</time></trkpt><trkpt lat="44.440333" lon="7.3657518"><ele>833.0</ele><time>2026-05-02T15:43:37.941Z</time></trkpt><trkpt lat="44.440318" lon="7.3655827"><ele>833.0</ele><time>2026-05-02T15:43:39.941Z</time></trkpt><trkpt lat="44.4403014" lon="7.3654267"><ele>833.0</ele><time>2026-05-02T15:43:41.94Z</time></trkpt><trkpt lat="44.4403777" lon="7.3654342"><ele>833.0</ele><time>2026-05-02T15:43:43.94Z</time></trkpt><trkpt lat="44.4404566" lon="7.3654638"><ele>833.0</ele><time>2026-05-02T15:43:44.941Z</time></trkpt><trkpt lat="44.4405705" lon="7.3654694"><ele>828.5000000000001</ele><time>2026-05-02T15:43:46.941Z</time></trkpt><trkpt lat="44.4406406" lon="7.3654021"><ele>824.0</ele><time>2026-05-02T15:43:48.941Z</time></trkpt><trkpt lat="44.4406517" lon="7.3653054"><ele>819.5</ele><time>2026-05-02T15:43:50.941Z</time></trkpt><trkpt lat="44.4406748" lon="7.3651918"><ele>815.0</ele><time>2026-05-02T15:43:52.94Z</time></trkpt><trkpt lat="44.4406954" lon="7.365074"><ele>810.5000000000001</ele><time>2026-05-02T15:43:54.94Z</time></trkpt><trkpt lat="44.4407266" lon="7.3649575"><ele>806.0</ele><time>2026-05-02T15:43:56.941Z</time></trkpt><trkpt lat="44.4407529" lon="7.3648595"><ele>806.0</ele><time>2026-05-02T15:43:58.942Z</time></trkpt><trkpt lat="44.4408083" lon="7.3647684"><ele>806.0</ele><time>2026-05-02T15:44:00.941Z</time></trkpt><trkpt lat="44.4408476" lon="7.3646654"><ele>806.0</ele><time>2026-05-02T15:44:02.941Z</time></trkpt><trkpt lat="44.4409084" lon="7.3645619"><ele>806.0</ele><time>2026-05-02T15:44:04.941Z</time></trkpt><trkpt lat="44.4409751" lon="7.3644637"><ele>806.0</ele><time>2026-05-02T15:44:06.941Z</time></trkpt><trkpt lat="44.4410003" lon="7.3643122"><ele>805.8</ele><time>2026-05-02T15:44:08.942Z</time></trkpt><trkpt lat="44.4410356" lon="7.3641604"><ele>805.5999999999999</ele><time>2026-05-02T15:44:10.941Z</time></trkpt><trkpt lat="44.4410751" lon="7.3640205"><ele>805.4</ele><time>2026-05-02T15:44:12.942Z</time></trkpt><trkpt lat="44.4410995" lon="7.363898"><ele>805.2</ele><time>2026-05-02T15:44:14.942Z</time></trkpt><trkpt lat="44.4410838" lon="7.3637901"><ele>805.0</ele><time>2026-05-02T15:44:16.94Z</time></trkpt><trkpt lat="44.4410377" lon="7.3636807"><ele>805.0</ele><time>2026-05-02T15:44:18.941Z</time></trkpt><trkpt lat="44.4409741" lon="7.3635781"><ele>805.0</ele><time>2026-05-02T15:44:20.94Z</time></trkpt><trkpt lat="44.4409073" lon="7.3634821"><ele>805.0</ele><time>2026-05-02T15:44:22.941Z</time></trkpt><trkpt lat="44.440841" lon="7.3633849"><ele>805.0</ele><time>2026-05-02T15:44:24.941Z</time></trkpt><trkpt lat="44.4407807" lon="7.3632867"><ele>805.0</ele><time>2026-05-02T15:44:26.94Z</time></trkpt><trkpt lat="44.4407151" lon="7.3631892"><ele>804.9999999999999</ele><time>2026-05-02T15:44:28.942Z</time></trkpt><trkpt lat="44.4406454" lon="7.3630981"><ele>805.0</ele><time>2026-05-02T15:44:30.941Z</time></trkpt><trkpt lat="44.4405836" lon="7.3630057"><ele>805.0</ele><time>2026-05-02T15:44:32.94Z</time></trkpt><trkpt lat="44.4405311" lon="7.3629269"><ele>805.0</ele><time>2026-05-02T15:44:34.941Z</time></trkpt><trkpt lat="44.4404765" lon="7.3628518"><ele>804.9999999999999</ele><time>2026-05-02T15:44:36.941Z</time></trkpt><trkpt lat="44.4404306" lon="7.3627793"><ele>805.0</ele><time>2026-05-02T15:44:38.941Z</time></trkpt><trkpt lat="44.4403795" lon="7.3627022"><ele>807.1666666666666</ele><time>2026-05-02T15:44:41.941Z</time></trkpt><trkpt lat="44.4403145" lon="7.3626365"><ele>809.3333333333333</ele><time>2026-05-02T15:44:45.94Z</time></trkpt><trkpt lat="44.4402644" lon="7.3625803"><ele>811.5</ele><time>2026-05-02T15:44:48.942Z</time></trkpt><trkpt lat="44.4402004" lon="7.3625036"><ele>813.6666666666667</ele><time>2026-05-02T15:44:51.942Z</time></trkpt><trkpt lat="44.4401268" lon="7.3624685"><ele>815.8333333333334</ele><time>2026-05-02T15:44:53.941Z</time></trkpt><trkpt lat="44.4400304" lon="7.3624231"><ele>818.0</ele><time>2026-05-02T15:44:55.941Z</time></trkpt><trkpt lat="44.4399744" lon="7.3623701"><ele>818.0000000000001</ele><time>2026-05-02T15:44:56.941Z</time></trkpt><trkpt lat="44.4399319" lon="7.3622969"><ele>818.0</ele><time>2026-05-02T15:44:57.94Z</time></trkpt><trkpt lat="44.4399019" lon="7.3621896"><ele>818.0</ele><time>2026-05-02T15:44:58.941Z</time></trkpt><trkpt lat="44.4398876" lon="7.3620695"><ele>818.0</ele><time>2026-05-02T15:44:59.941Z</time></trkpt><trkpt lat="44.4398815" lon="7.3619476"><ele>818.0000000000001</ele><time>2026-05-02T15:45:00.941Z</time></trkpt><trkpt lat="44.4398746" lon="7.3618232"><ele>818.0</ele><time>2026-05-02T15:45:01.941Z</time></trkpt><trkpt lat="44.4398583" lon="7.3617057"><ele>814.8333333333334</ele><time>2026-05-02T15:45:02.941Z</time></trkpt><trkpt lat="44.439835" lon="7.3615867"><ele>811.6666666666667</ele><time>2026-05-02T15:45:03.941Z</time></trkpt><trkpt lat="44.4398082" lon="7.3614681"><ele>808.5</ele><time>2026-05-02T15:45:04.941Z</time></trkpt><trkpt lat="44.4397784" lon="7.3613493"><ele>805.3333333333333</ele><time>2026-05-02T15:45:05.94Z</time></trkpt><trkpt lat="44.4397494" lon="7.3612424"><ele>802.1666666666666</ele><time>2026-05-02T15:45:06.941Z</time></trkpt><trkpt lat="44.4397183" lon="7.3611462"><ele>799.0</ele><time>2026-05-02T15:45:07.94Z</time></trkpt><trkpt lat="44.4396886" lon="7.3610601"><ele>799.0</ele><time>2026-05-02T15:45:08.94Z</time></trkpt><trkpt lat="44.4396656" lon="7.3608951"><ele>799.0</ele><time>2026-05-02T15:45:10.941Z</time></trkpt><trkpt lat="44.4397161" lon="7.3607772"><ele>799.0</ele><time>2026-05-02T15:45:12.941Z</time></trkpt><trkpt lat="44.4398381" lon="7.3607748"><ele>799.0</ele><time>2026-05-02T15:45:14.941Z</time></trkpt><trkpt lat="44.4398982" lon="7.3608313"><ele>799.0</ele><time>2026-05-02T15:45:15.941Z</time></trkpt><trkpt lat="44.4399544" lon="7.3608997"><ele>799.0</ele><time>2026-05-02T15:45:16.941Z</time></trkpt><trkpt lat="44.4400225" lon="7.3609646"><ele>799.0</ele><time>2026-05-02T15:45:17.941Z</time></trkpt><trkpt lat="44.4400999" lon="7.3610308"><ele>799.0</ele><time>2026-05-02T15:45:18.941Z</time></trkpt><trkpt lat="44.4401813" lon="7.3610941"><ele>799.0</ele><time>2026-05-02T15:45:19.941Z</time></trkpt><trkpt lat="44.440267" lon="7.3611607"><ele>799.0</ele><time>2026-05-02T15:45:20.941Z</time></trkpt><trkpt lat="44.4403582" lon="7.3612268"><ele>799.0</ele><time>2026-05-02T15:45:21.941Z</time></trkpt><trkpt lat="44.4404542" lon="7.361297"><ele>799.0</ele><time>2026-05-02T15:45:22.941Z</time></trkpt><trkpt lat="44.4405519" lon="7.3613716"><ele>799.0</ele><time>2026-05-02T15:45:23.941Z</time></trkpt><trkpt lat="44.4406541" lon="7.3614456"><ele>799.0</ele><time>2026-05-02T15:45:24.942Z</time></trkpt><trkpt lat="44.4407616" lon="7.361511"><ele>794.5</ele><time>2026-05-02T15:45:25.942Z</time></trkpt><trkpt lat="44.440875" lon="7.3615632"><ele>790.0</ele><time>2026-05-02T15:45:26.942Z</time></trkpt><trkpt lat="44.440994" lon="7.3616066"><ele>785.5</ele><time>2026-05-02T15:45:27.942Z</time></trkpt><trkpt lat="44.4411137" lon="7.3616642"><ele>781.0</ele><time>2026-05-02T15:45:28.94Z</time></trkpt><trkpt lat="44.4412295" lon="7.3617463"><ele>781.5</ele><time>2026-05-02T15:45:29.94Z</time></trkpt><trkpt lat="44.4413475" lon="7.3618308"><ele>782.0</ele><time>2026-05-02T15:45:30.941Z</time></trkpt><trkpt lat="44.441476" lon="7.3618891"><ele>782.5</ele><time>2026-05-02T15:45:31.94Z</time></trkpt><trkpt lat="44.4416039" lon="7.3619389"><ele>783.0</ele><time>2026-05-02T15:45:32.941Z</time></trkpt><trkpt lat="44.4417329" lon="7.3619834"><ele>783.0</ele><time>2026-05-02T15:45:33.942Z</time></trkpt><trkpt lat="44.4418615" lon="7.3620296"><ele>783.0</ele><time>2026-05-02T15:45:34.942Z</time></trkpt><trkpt lat="44.4419836" lon="7.3620697"><ele>783.0</ele><time>2026-05-02T15:45:35.941Z</time></trkpt><trkpt lat="44.4421071" lon="7.3620987"><ele>783.0</ele><time>2026-05-02T15:45:36.941Z</time></trkpt><trkpt lat="44.4422344" lon="7.3621263"><ele>783.5</ele><time>2026-05-02T15:45:37.941Z</time></trkpt><trkpt lat="44.4423621" lon="7.362144"><ele>784.0</ele><time>2026-05-02T15:45:38.941Z</time></trkpt><trkpt lat="44.4424909" lon="7.3621509"><ele>784.5</ele><time>2026-05-02T15:45:39.941Z</time></trkpt><trkpt lat="44.4426236" lon="7.3621587"><ele>785.0</ele><time>2026-05-02T15:45:40.941Z</time></trkpt><trkpt lat="44.4427573" lon="7.3621634"><ele>785.0</ele><time>2026-05-02T15:45:41.941Z</time></trkpt><trkpt lat="44.4428931" lon="7.3621649"><ele>785.0</ele><time>2026-05-02T15:45:42.942Z</time></trkpt><trkpt lat="44.4430263" lon="7.3621621"><ele>785.0</ele><time>2026-05-02T15:45:43.942Z</time></trkpt><trkpt lat="44.443159" lon="7.362177"><ele>785.0</ele><time>2026-05-02T15:45:44.941Z</time></trkpt><trkpt lat="44.4432995" lon="7.362171"><ele>782.0</ele><time>2026-05-02T15:45:45.941Z</time></trkpt><trkpt lat="44.4434383" lon="7.3621546"><ele>779.0</ele><time>2026-05-02T15:45:46.941Z</time></trkpt><trkpt lat="44.4435758" lon="7.3621209"><ele>776.0</ele><time>2026-05-02T15:45:47.941Z</time></trkpt><trkpt lat="44.4437133" lon="7.362079"><ele>773.0</ele><time>2026-05-02T15:45:48.941Z</time></trkpt><trkpt lat="44.4438523" lon="7.3620392"><ele>769.75</ele><time>2026-05-02T15:45:49.941Z</time></trkpt><trkpt lat="44.4439896" lon="7.3620052"><ele>766.5</ele><time>2026-05-02T15:45:50.94Z</time></trkpt><trkpt lat="44.444129" lon="7.3619869"><ele>763.25</ele><time>2026-05-02T15:45:51.942Z</time></trkpt><trkpt lat="44.4442679" lon="7.3619695"><ele>760.0</ele><time>2026-05-02T15:45:52.942Z</time></trkpt><trkpt lat="44.4444042" lon="7.3619677"><ele>760.0</ele><time>2026-05-02T15:45:53.942Z</time></trkpt><trkpt lat="44.4445324" lon="7.3619663"><ele>760.0</ele><time>2026-05-02T15:45:54.942Z</time></trkpt><trkpt lat="44.4446576" lon="7.3619573"><ele>760.0</ele><time>2026-05-02T15:45:55.942Z</time></trkpt><trkpt lat="44.4447839" lon="7.3619416"><ele>760.0</ele><time>2026-05-02T15:45:56.942Z</time></trkpt><trkpt lat="44.4449083" lon="7.3619144"><ele>755.25</ele><time>2026-05-02T15:45:57.94Z</time></trkpt><trkpt lat="44.4450308" lon="7.3618732"><ele>750.5</ele><time>2026-05-02T15:45:58.941Z</time></trkpt><trkpt lat="44.4451471" lon="7.361826"><ele>745.75</ele><time>2026-05-02T15:45:59.94Z</time></trkpt><trkpt lat="44.4452502" lon="7.3617886"><ele>741.0</ele><time>2026-05-02T15:46:00.941Z</time></trkpt><trkpt lat="44.4453461" lon="7.3617671"><ele>741.0</ele><time>2026-05-02T15:46:01.941Z</time></trkpt><trkpt lat="44.4454489" lon="7.3617944"><ele>741.0</ele><time>2026-05-02T15:46:02.941Z</time></trkpt><trkpt lat="44.4455479" lon="7.3618589"><ele>741.0</ele><time>2026-05-02T15:46:03.941Z</time></trkpt><trkpt lat="44.4456345" lon="7.3619536"><ele>741.0</ele><time>2026-05-02T15:46:04.941Z</time></trkpt><trkpt lat="44.4457219" lon="7.362054"><ele>741.0</ele><time>2026-05-02T15:46:05.94Z</time></trkpt><trkpt lat="44.4458117" lon="7.3621579"><ele>736.5</ele><time>2026-05-02T15:46:06.941Z</time></trkpt><trkpt lat="44.4459052" lon="7.3622659"><ele>732.0</ele><time>2026-05-02T15:46:07.941Z</time></trkpt><trkpt lat="44.4460004" lon="7.3623744"><ele>727.5</ele><time>2026-05-02T15:46:08.941Z</time></trkpt><trkpt lat="44.4460969" lon="7.3624863"><ele>723.0</ele><time>2026-05-02T15:46:09.941Z</time></trkpt><trkpt lat="44.446202" lon="7.3625822"><ele>724.5</ele><time>2026-05-02T15:46:10.942Z</time></trkpt><trkpt lat="44.4463164" lon="7.3626687"><ele>726.0</ele><time>2026-05-02T15:46:11.942Z</time></trkpt><trkpt lat="44.4464366" lon="7.3627406"><ele>727.5</ele><time>2026-05-02T15:46:12.941Z</time></trkpt><trkpt lat="44.4465637" lon="7.36279"><ele>729.0</ele><time>2026-05-02T15:46:13.941Z</time></trkpt><trkpt lat="44.4466937" lon="7.3628176"><ele>729.0</ele><time>2026-05-02T15:46:14.94Z</time></trkpt><trkpt lat="44.4468152" lon="7.3628253"><ele>729.0</ele><time>2026-05-02T15:46:15.94Z</time></trkpt><trkpt lat="44.4469573" lon="7.3628279"><ele>729.0</ele><time>2026-05-02T15:46:16.941Z</time></trkpt><trkpt lat="44.4470982" lon="7.3628304"><ele>729.0</ele><time>2026-05-02T15:46:17.941Z</time></trkpt><trkpt lat="44.4472398" lon="7.3628294"><ele>727.0</ele><time>2026-05-02T15:46:18.941Z</time></trkpt><trkpt lat="44.4473851" lon="7.362824"><ele>725.0</ele><time>2026-05-02T15:46:19.941Z</time></trkpt><trkpt lat="44.4475318" lon="7.3628175"><ele>723.0</ele><time>2026-05-02T15:46:20.941Z</time></trkpt><trkpt lat="44.447678" lon="7.3627976"><ele>721.0</ele><time>2026-05-02T15:46:21.94Z</time></trkpt><trkpt lat="44.4478195" lon="7.3627494"><ele>721.0</ele><time>2026-05-02T15:46:22.94Z</time></trkpt><trkpt lat="44.4479579" lon="7.3626934"><ele>721.0</ele><time>2026-05-02T15:46:23.941Z</time></trkpt><trkpt lat="44.4480877" lon="7.3626312"><ele>721.0</ele><time>2026-05-02T15:46:24.942Z</time></trkpt><trkpt lat="44.4482145" lon="7.3625604"><ele>721.0</ele><time>2026-05-02T15:46:25.942Z</time></trkpt><trkpt lat="44.4483351" lon="7.3625037"><ele>716.0</ele><time>2026-05-02T15:46:26.942Z</time></trkpt><trkpt lat="44.448461" lon="7.3624839"><ele>711.0</ele><time>2026-05-02T15:46:27.941Z</time></trkpt><trkpt lat="44.4485896" lon="7.3624917"><ele>706.0</ele><time>2026-05-02T15:46:28.94Z</time></trkpt><trkpt lat="44.4487118" lon="7.362504"><ele>701.0</ele><time>2026-05-02T15:46:29.941Z</time></trkpt><trkpt lat="44.4488333" lon="7.3625032"><ele>699.8</ele><time>2026-05-02T15:46:30.94Z</time></trkpt><trkpt lat="44.4489502" lon="7.3624834"><ele>698.5999999999999</ele><time>2026-05-02T15:46:31.941Z</time></trkpt><trkpt lat="44.4490644" lon="7.3624531"><ele>697.4</ele><time>2026-05-02T15:46:32.941Z</time></trkpt><trkpt lat="44.4491748" lon="7.3624289"><ele>696.2</ele><time>2026-05-02T15:46:33.941Z</time></trkpt><trkpt lat="44.4492646" lon="7.362391"><ele>695.0</ele><time>2026-05-02T15:46:34.941Z</time></trkpt><trkpt lat="44.4493466" lon="7.3623574"><ele>695.0</ele><time>2026-05-02T15:46:35.942Z</time></trkpt><trkpt lat="44.4494299" lon="7.3623559"><ele>695.0</ele><time>2026-05-02T15:46:36.942Z</time></trkpt><trkpt lat="44.4495076" lon="7.3624106"><ele>695.0</ele><time>2026-05-02T15:46:37.94Z</time></trkpt><trkpt lat="44.4495655" lon="7.3625033"><ele>695.0</ele><time>2026-05-02T15:46:38.941Z</time></trkpt><trkpt lat="44.4496067" lon="7.3626116"><ele>695.0</ele><time>2026-05-02T15:46:39.94Z</time></trkpt><trkpt lat="44.4496412" lon="7.3627291"><ele>695.0</ele><time>2026-05-02T15:46:40.941Z</time></trkpt><trkpt lat="44.4496716" lon="7.3628491"><ele>693.8</ele><time>2026-05-02T15:46:41.942Z</time></trkpt><trkpt lat="44.4497074" lon="7.362974"><ele>692.6</ele><time>2026-05-02T15:46:42.941Z</time></trkpt><trkpt lat="44.4497487" lon="7.3631039"><ele>691.4000000000001</ele><time>2026-05-02T15:46:43.94Z</time></trkpt><trkpt lat="44.4498028" lon="7.3632294"><ele>690.2</ele><time>2026-05-02T15:46:44.941Z</time></trkpt><trkpt lat="44.4498717" lon="7.3633405"><ele>689.0</ele><time>2026-05-02T15:46:45.942Z</time></trkpt><trkpt lat="44.4499522" lon="7.3634387"><ele>689.0</ele><time>2026-05-02T15:46:46.941Z</time></trkpt><trkpt lat="44.4500333" lon="7.3635143"><ele>689.0</ele><time>2026-05-02T15:46:47.941Z</time></trkpt><trkpt lat="44.4501004" lon="7.3635791"><ele>689.0</ele><time>2026-05-02T15:46:48.941Z</time></trkpt><trkpt lat="44.4501612" lon="7.3636304"><ele>689.0</ele><time>2026-05-02T15:46:49.942Z</time></trkpt><trkpt lat="44.4502332" lon="7.3636915"><ele>689.0</ele><time>2026-05-02T15:46:51.941Z</time></trkpt><trkpt lat="44.4502354" lon="7.3637826"><ele>689.0</ele><time>2026-05-02T15:46:54.941Z</time></trkpt><trkpt lat="44.450151" lon="7.3637545"><ele>689.0</ele><time>2026-05-02T15:46:57.94Z</time></trkpt><trkpt lat="44.4500803" lon="7.3637194"><ele>689.0</ele><time>2026-05-02T15:46:59.941Z</time></trkpt><trkpt lat="44.4500125" lon="7.3636964"><ele>689.0</ele><time>2026-05-02T15:47:01.941Z</time></trkpt><trkpt lat="44.4499459" lon="7.3636897"><ele>689.0</ele><time>2026-05-02T15:47:03.941Z</time></trkpt><trkpt lat="44.4498793" lon="7.3636886"><ele>689.0</ele><time>2026-05-02T15:47:05.941Z</time></trkpt><trkpt lat="44.4498047" lon="7.3636942"><ele>689.0</ele><time>2026-05-02T15:47:07.941Z</time></trkpt><trkpt lat="44.4497232" lon="7.3637157"><ele>689.0</ele><time>2026-05-02T15:47:09.941Z</time></trkpt><trkpt lat="44.4496482" lon="7.3637474"><ele>687.0</ele><time>2026-05-02T15:47:11.94Z</time></trkpt><trkpt lat="44.4496067" lon="7.3638777"><ele>685.0</ele><time>2026-05-02T15:47:13.941Z</time></trkpt><trkpt lat="44.449602" lon="7.3640568"><ele>683.0</ele><time>2026-05-02T15:47:15.94Z</time></trkpt><trkpt lat="44.4495818" lon="7.3641615"><ele>681.0</ele><time>2026-05-02T15:47:16.941Z</time></trkpt><trkpt lat="44.4495447" lon="7.3642649"><ele>679.0</ele><time>2026-05-02T15:47:17.94Z</time></trkpt><trkpt lat="44.4495022" lon="7.3643689"><ele>679.0</ele><time>2026-05-02T15:47:18.941Z</time></trkpt><trkpt lat="44.4494574" lon="7.3644544"><ele>679.0</ele><time>2026-05-02T15:47:19.941Z</time></trkpt><trkpt lat="44.449414" lon="7.3645207"><ele>679.0</ele><time>2026-05-02T15:47:20.941Z</time></trkpt><trkpt lat="44.4493459" lon="7.3646271"><ele>679.0</ele><time>2026-05-02T15:47:22.942Z</time></trkpt><trkpt lat="44.4493364" lon="7.3647816"><ele>679.0</ele><time>2026-05-02T15:47:24.941Z</time></trkpt><trkpt lat="44.4493774" lon="7.3649487"><ele>677.3333333333334</ele><time>2026-05-02T15:47:26.941Z</time></trkpt><trkpt lat="44.4493986" lon="7.3650397"><ele>675.6666666666667</ele><time>2026-05-02T15:47:27.94Z</time></trkpt><trkpt lat="44.4494249" lon="7.3651457"><ele>674.0</ele><time>2026-05-02T15:47:28.941Z</time></trkpt><trkpt lat="44.4494371" lon="7.3652552"><ele>672.3333333333334</ele><time>2026-05-02T15:47:29.941Z</time></trkpt><trkpt lat="44.4494445" lon="7.3653812"><ele>670.6666666666666</ele><time>2026-05-02T15:47:30.941Z</time></trkpt><trkpt lat="44.4494469" lon="7.3655004"><ele>669.0</ele><time>2026-05-02T15:47:31.941Z</time></trkpt><trkpt lat="44.4494511" lon="7.3656136"><ele>668.5</ele><time>2026-05-02T15:47:32.94Z</time></trkpt><trkpt lat="44.4494686" lon="7.3657211"><ele>668.0</ele><time>2026-05-02T15:47:33.94Z</time></trkpt><trkpt lat="44.4494925" lon="7.3658167"><ele>667.5</ele><time>2026-05-02T15:47:34.94Z</time></trkpt><trkpt lat="44.4495142" lon="7.3659027"><ele>667.0</ele><time>2026-05-02T15:47:35.941Z</time></trkpt><trkpt lat="44.4495781" lon="7.3660219"><ele>666.5</ele><time>2026-05-02T15:47:37.941Z</time></trkpt><trkpt lat="44.4496461" lon="7.3660913"><ele>666.0</ele><time>2026-05-02T15:47:39.941Z</time></trkpt><trkpt lat="44.4497224" lon="7.3661338"><ele>665.4</ele><time>2026-05-02T15:47:41.941Z</time></trkpt><trkpt lat="44.4498185" lon="7.3661615"><ele>664.8</ele><time>2026-05-02T15:47:43.942Z</time></trkpt><trkpt lat="44.4499131" lon="7.3662038"><ele>664.1999999999999</ele><time>2026-05-02T15:47:45.941Z</time></trkpt><trkpt lat="44.450018" lon="7.3662357"><ele>663.5999999999999</ele><time>2026-05-02T15:47:47.941Z</time></trkpt><trkpt lat="44.4501307" lon="7.3662845"><ele>663.0</ele><time>2026-05-02T15:47:49.942Z</time></trkpt><trkpt lat="44.4502421" lon="7.3663327"><ele>662.9999999999999</ele><time>2026-05-02T15:47:51.942Z</time></trkpt><trkpt lat="44.4503638" lon="7.3663653"><ele>663.0</ele><time>2026-05-02T15:47:53.941Z</time></trkpt><trkpt lat="44.4504276" lon="7.3663746"><ele>663.0</ele><time>2026-05-02T15:47:54.942Z</time></trkpt><trkpt lat="44.4504908" lon="7.3663886"><ele>663.0</ele><time>2026-05-02T15:47:55.942Z</time></trkpt><trkpt lat="44.450557" lon="7.3664007"><ele>663.0</ele><time>2026-05-02T15:47:56.942Z</time></trkpt><trkpt lat="44.4506198" lon="7.3664132"><ele>662.9999999999999</ele><time>2026-05-02T15:47:57.941Z</time></trkpt><trkpt lat="44.4506819" lon="7.3664309"><ele>663.0</ele><time>2026-05-02T15:47:58.941Z</time></trkpt><trkpt lat="44.450798" lon="7.3664881"><ele>663.0</ele><time>2026-05-02T15:48:00.941Z</time></trkpt><trkpt lat="44.4509026" lon="7.3665552"><ele>663.0</ele><time>2026-05-02T15:48:02.942Z</time></trkpt><trkpt lat="44.4510071" lon="7.3666151"><ele>663.0</ele><time>2026-05-02T15:48:04.941Z</time></trkpt><trkpt lat="44.4511224" lon="7.3666606"><ele>663.0</ele><time>2026-05-02T15:48:06.942Z</time></trkpt><trkpt lat="44.4512458" lon="7.3666684"><ele>661.7142857142857</ele><time>2026-05-02T15:48:08.941Z</time></trkpt><trkpt lat="44.451315" lon="7.3666933"><ele>660.4285714285714</ele><time>2026-05-02T15:48:09.941Z</time></trkpt><trkpt lat="44.4513841" lon="7.3667141"><ele>659.1428571428571</ele><time>2026-05-02T15:48:10.941Z</time></trkpt><trkpt lat="44.4514531" lon="7.3667381"><ele>657.8571428571429</ele><time>2026-05-02T15:48:11.941Z</time></trkpt><trkpt lat="44.4515202" lon="7.3667585"><ele>656.5714285714286</ele><time>2026-05-02T15:48:12.94Z</time></trkpt><trkpt lat="44.4515935" lon="7.3667832"><ele>655.2857142857142</ele><time>2026-05-02T15:48:13.941Z</time></trkpt><trkpt lat="44.4516638" lon="7.3668051"><ele>654.0</ele><time>2026-05-02T15:48:14.94Z</time></trkpt><trkpt lat="44.4517319" lon="7.3668328"><ele>654.0</ele><time>2026-05-02T15:48:15.94Z</time></trkpt><trkpt lat="44.4517994" lon="7.3668646"><ele>654.0</ele><time>2026-05-02T15:48:16.94Z</time></trkpt><trkpt lat="44.4518627" lon="7.3668924"><ele>654.0</ele><time>2026-05-02T15:48:17.94Z</time></trkpt><trkpt lat="44.4519231" lon="7.3669252"><ele>654.0</ele><time>2026-05-02T15:48:18.939Z</time></trkpt><trkpt lat="44.4519865" lon="7.3669516"><ele>654.0</ele><time>2026-05-02T15:48:19.94Z</time></trkpt><trkpt lat="44.4520483" lon="7.366984"><ele>654.0</ele><time>2026-05-02T15:48:20.94Z</time></trkpt><trkpt lat="44.4521139" lon="7.3670113"><ele>654.0</ele><time>2026-05-02T15:48:21.941Z</time></trkpt><trkpt lat="44.4521775" lon="7.3670404"><ele>655.0</ele><time>2026-05-02T15:48:22.94Z</time></trkpt><trkpt lat="44.4522395" lon="7.3670614"><ele>656.0</ele><time>2026-05-02T15:48:23.939Z</time></trkpt><trkpt lat="44.4523031" lon="7.3670862"><ele>657.0</ele><time>2026-05-02T15:48:24.941Z</time></trkpt><trkpt lat="44.4523671" lon="7.3671137"><ele>658.0</ele><time>2026-05-02T15:48:25.94Z</time></trkpt><trkpt lat="44.4524325" lon="7.3671417"><ele>659.0</ele><time>2026-05-02T15:48:26.94Z</time></trkpt><trkpt lat="44.4524973" lon="7.3671659"><ele>660.0</ele><time>2026-05-02T15:48:27.94Z</time></trkpt><trkpt lat="44.4525582" lon="7.3671931"><ele>661.0</ele><time>2026-05-02T15:48:28.941Z</time></trkpt><trkpt lat="44.4526214" lon="7.3672239"><ele>661.0</ele><time>2026-05-02T15:48:29.94Z</time></trkpt><trkpt lat="44.4526848" lon="7.3672486"><ele>661.0</ele><time>2026-05-02T15:48:30.94Z</time></trkpt><trkpt lat="44.4527457" lon="7.3672766"><ele>661.0</ele><time>2026-05-02T15:48:31.94Z</time></trkpt><trkpt lat="44.452809" lon="7.3673026"><ele>661.0</ele><time>2026-05-02T15:48:32.94Z</time></trkpt><trkpt lat="44.4528723" lon="7.3673251"><ele>661.0</ele><time>2026-05-02T15:48:33.939Z</time></trkpt><trkpt lat="44.4529943" lon="7.3673577"><ele>661.0</ele><time>2026-05-02T15:48:35.94Z</time></trkpt><trkpt lat="44.4531106" lon="7.3673957"><ele>657.8</ele><time>2026-05-02T15:48:37.94Z</time></trkpt><trkpt lat="44.453225" lon="7.367444"><ele>654.5999999999999</ele><time>2026-05-02T15:48:39.941Z</time></trkpt><trkpt lat="44.4533438" lon="7.3674883"><ele>651.4</ele><time>2026-05-02T15:48:41.94Z</time></trkpt><trkpt lat="44.4534618" lon="7.3675366"><ele>648.2</ele><time>2026-05-02T15:48:43.939Z</time></trkpt><trkpt lat="44.4535229" lon="7.3675621"><ele>645.0</ele><time>2026-05-02T15:48:44.94Z</time></trkpt><trkpt lat="44.4535867" lon="7.3675872"><ele>645.0</ele><time>2026-05-02T15:48:45.94Z</time></trkpt><trkpt lat="44.4536514" lon="7.3676121"><ele>645.0</ele><time>2026-05-02T15:48:46.94Z</time></trkpt><trkpt lat="44.4537153" lon="7.3676485"><ele>645.0</ele><time>2026-05-02T15:48:47.939Z</time></trkpt><trkpt lat="44.4537805" lon="7.3676873"><ele>645.0</ele><time>2026-05-02T15:48:48.941Z</time></trkpt><trkpt lat="44.4538436" lon="7.3677216"><ele>645.0</ele><time>2026-05-02T15:48:49.941Z</time></trkpt><trkpt lat="44.4539047" lon="7.3677531"><ele>645.0</ele><time>2026-05-02T15:48:50.941Z</time></trkpt><trkpt lat="44.4539684" lon="7.3677718"><ele>645.0</ele><time>2026-05-02T15:48:51.941Z</time></trkpt><trkpt lat="44.4540355" lon="7.3677869"><ele>643.7142857142858</ele><time>2026-05-02T15:48:52.94Z</time></trkpt><trkpt lat="44.4541025" lon="7.3678004"><ele>642.4285714285713</ele><time>2026-05-02T15:48:53.941Z</time></trkpt><trkpt lat="44.4541719" lon="7.3677979"><ele>641.1428571428571</ele><time>2026-05-02T15:48:54.94Z</time></trkpt><trkpt lat="44.4542415" lon="7.3677744"><ele>639.8571428571429</ele><time>2026-05-02T15:48:55.94Z</time></trkpt><trkpt lat="44.4543095" lon="7.3677404"><ele>638.5714285714287</ele><time>2026-05-02T15:48:56.94Z</time></trkpt><trkpt lat="44.4543756" lon="7.3677011"><ele>637.2857142857142</ele><time>2026-05-02T15:48:57.94Z</time></trkpt><trkpt lat="44.4544427" lon="7.3676613"><ele>636.0</ele><time>2026-05-02T15:48:58.94Z</time></trkpt><trkpt lat="44.4545109" lon="7.3676306"><ele>636.0</ele><time>2026-05-02T15:48:59.941Z</time></trkpt><trkpt lat="44.4545814" lon="7.3676017"><ele>636.0</ele><time>2026-05-02T15:49:00.94Z</time></trkpt><trkpt lat="44.4546492" lon="7.3675701"><ele>636.0</ele><time>2026-05-02T15:49:01.94Z</time></trkpt><trkpt lat="44.4547133" lon="7.3675327"><ele>636.0</ele><time>2026-05-02T15:49:02.941Z</time></trkpt><trkpt lat="44.4547792" lon="7.3674924"><ele>636.0</ele><time>2026-05-02T15:49:03.941Z</time></trkpt><trkpt lat="44.4548425" lon="7.3674576"><ele>636.0</ele><time>2026-05-02T15:49:04.941Z</time></trkpt><trkpt lat="44.4549028" lon="7.3674218"><ele>636.0</ele><time>2026-05-02T15:49:05.941Z</time></trkpt><trkpt lat="44.4549646" lon="7.3673922"><ele>635.6666666666666</ele><time>2026-05-02T15:49:06.94Z</time></trkpt><trkpt lat="44.4550855" lon="7.3673369"><ele>635.3333333333334</ele><time>2026-05-02T15:49:08.94Z</time></trkpt><trkpt lat="44.4551485" lon="7.3673193"><ele>635.0</ele><time>2026-05-02T15:49:09.94Z</time></trkpt><trkpt lat="44.4552117" lon="7.3673089"><ele>634.6666666666667</ele><time>2026-05-02T15:49:10.94Z</time></trkpt><trkpt lat="44.45534" lon="7.3673086"><ele>634.3333333333334</ele><time>2026-05-02T15:49:12.941Z</time></trkpt><trkpt lat="44.4554032" lon="7.3673123"><ele>634.0</ele><time>2026-05-02T15:49:13.94Z</time></trkpt><trkpt lat="44.4554688" lon="7.3673197"><ele>633.4285714285714</ele><time>2026-05-02T15:49:14.94Z</time></trkpt><trkpt lat="44.4555352" lon="7.3673291"><ele>632.8571428571429</ele><time>2026-05-02T15:49:15.94Z</time></trkpt><trkpt lat="44.4555999" lon="7.3673404"><ele>632.2857142857142</ele><time>2026-05-02T15:49:16.94Z</time></trkpt><trkpt lat="44.4556681" lon="7.367345"><ele>631.7142857142858</ele><time>2026-05-02T15:49:17.94Z</time></trkpt><trkpt lat="44.4557346" lon="7.3673487"><ele>631.1428571428571</ele><time>2026-05-02T15:49:18.94Z</time></trkpt><trkpt lat="44.4558033" lon="7.3673507"><ele>630.5714285714286</ele><time>2026-05-02T15:49:19.94Z</time></trkpt><trkpt lat="44.4558722" lon="7.3673487"><ele>630.0</ele><time>2026-05-02T15:49:20.94Z</time></trkpt><trkpt lat="44.4559387" lon="7.3673432"><ele>630.0</ele><time>2026-05-02T15:49:21.94Z</time></trkpt><trkpt lat="44.4560063" lon="7.3673363"><ele>630.0</ele><time>2026-05-02T15:49:22.94Z</time></trkpt><trkpt lat="44.4560711" lon="7.3673203"><ele>630.0</ele><time>2026-05-02T15:49:23.94Z</time></trkpt><trkpt lat="44.456136" lon="7.3673073"><ele>630.0</ele><time>2026-05-02T15:49:24.941Z</time></trkpt><trkpt lat="44.456202" lon="7.3672894"><ele>630.0</ele><time>2026-05-02T15:49:25.941Z</time></trkpt><trkpt lat="44.4562662" lon="7.3672678"><ele>630.0</ele><time>2026-05-02T15:49:26.941Z</time></trkpt><trkpt lat="44.4563305" lon="7.3672494"><ele>630.0</ele><time>2026-05-02T15:49:27.941Z</time></trkpt><trkpt lat="44.4563933" lon="7.3672327"><ele>629.6</ele><time>2026-05-02T15:49:28.941Z</time></trkpt><trkpt lat="44.4565088" lon="7.3671995"><ele>629.2</ele><time>2026-05-02T15:49:30.941Z</time></trkpt><trkpt lat="44.4566111" lon="7.3671684"><ele>628.8</ele><time>2026-05-02T15:49:32.941Z</time></trkpt><trkpt lat="44.4566906" lon="7.3671497"><ele>628.4</ele><time>2026-05-02T15:49:34.94Z</time></trkpt><trkpt lat="44.4567219" lon="7.3672783"><ele>628.0</ele><time>2026-05-02T15:49:37.94Z</time></trkpt><trkpt lat="44.4567013" lon="7.3674148"><ele>627.75</ele><time>2026-05-02T15:49:39.941Z</time></trkpt><trkpt lat="44.4566743" lon="7.3675713"><ele>627.5</ele><time>2026-05-02T15:49:41.94Z</time></trkpt><trkpt lat="44.4566594" lon="7.3677461"><ele>627.25</ele><time>2026-05-02T15:49:43.939Z</time></trkpt><trkpt lat="44.456652" lon="7.3679109"><ele>627.0</ele><time>2026-05-02T15:49:45.94Z</time></trkpt><trkpt lat="44.4566549" lon="7.3680681"><ele>626.6</ele><time>2026-05-02T15:49:47.94Z</time></trkpt><trkpt lat="44.4566618" lon="7.3682183"><ele>626.2</ele><time>2026-05-02T15:49:49.94Z</time></trkpt><trkpt lat="44.4566735" lon="7.3683666"><ele>625.8</ele><time>2026-05-02T15:49:51.939Z</time></trkpt><trkpt lat="44.4566778" lon="7.3685102"><ele>625.4</ele><time>2026-05-02T15:49:53.94Z</time></trkpt><trkpt lat="44.4566822" lon="7.3686498"><ele>625.0</ele><time>2026-05-02T15:49:55.94Z</time></trkpt><trkpt lat="44.4567052" lon="7.3687868"><ele>626.0</ele><time>2026-05-02T15:49:57.94Z</time></trkpt><trkpt lat="44.4567208" lon="7.3689183"><ele>627.0</ele><time>2026-05-02T15:49:59.939Z</time></trkpt><trkpt lat="44.4567148" lon="7.3690417"><ele>628.0</ele><time>2026-05-02T15:50:01.941Z</time></trkpt><trkpt lat="44.4566835" lon="7.3691545"><ele>629.0</ele><time>2026-05-02T15:50:03.94Z</time></trkpt><trkpt lat="44.4566362" lon="7.369249"><ele>630.0</ele><time>2026-05-02T15:50:05.94Z</time></trkpt><trkpt lat="44.4565906" lon="7.3693488"><ele>631.0</ele><time>2026-05-02T15:50:07.94Z</time></trkpt><trkpt lat="44.4565797" lon="7.369476"><ele>631.0</ele><time>2026-05-02T15:50:09.94Z</time></trkpt><trkpt lat="44.4565971" lon="7.369601"><ele>631.0</ele><time>2026-05-02T15:50:11.941Z</time></trkpt><trkpt lat="44.4566193" lon="7.3697318"><ele>631.0</ele><time>2026-05-02T15:50:13.939Z</time></trkpt><trkpt lat="44.4566419" lon="7.3698741"><ele>631.0</ele><time>2026-05-02T15:50:15.941Z</time></trkpt><trkpt lat="44.456659" lon="7.3700158"><ele>631.0</ele><time>2026-05-02T15:50:17.94Z</time></trkpt><trkpt lat="44.4566686" lon="7.3701505"><ele>632.1666666666667</ele><time>2026-05-02T15:50:19.94Z</time></trkpt><trkpt lat="44.4566879" lon="7.3702771"><ele>633.3333333333334</ele><time>2026-05-02T15:50:21.941Z</time></trkpt><trkpt lat="44.4567054" lon="7.3703968"><ele>634.5</ele><time>2026-05-02T15:50:23.94Z</time></trkpt><trkpt lat="44.4567044" lon="7.3705195"><ele>635.6666666666666</ele><time>2026-05-02T15:50:25.941Z</time></trkpt><trkpt lat="44.456699" lon="7.3706421"><ele>636.8333333333333</ele><time>2026-05-02T15:50:27.94Z</time></trkpt><trkpt lat="44.4567002" lon="7.3707688"><ele>638.0</ele><time>2026-05-02T15:50:29.941Z</time></trkpt><trkpt lat="44.4567112" lon="7.3708906"><ele>638.0</ele><time>2026-05-02T15:50:31.94Z</time></trkpt><trkpt lat="44.4567346" lon="7.3710199"><ele>638.0</ele><time>2026-05-02T15:50:33.939Z</time></trkpt><trkpt lat="44.4567515" lon="7.3711489"><ele>638.0</ele><time>2026-05-02T15:50:35.94Z</time></trkpt><trkpt lat="44.4567724" lon="7.3712752"><ele>638.0</ele><time>2026-05-02T15:50:37.941Z</time></trkpt><trkpt lat="44.4567888" lon="7.371402"><ele>638.0</ele><time>2026-05-02T15:50:39.941Z</time></trkpt><trkpt lat="44.4568065" lon="7.3715226"><ele>637.6666666666666</ele><time>2026-05-02T15:50:41.94Z</time></trkpt><trkpt lat="44.4568172" lon="7.3716346"><ele>637.3333333333333</ele><time>2026-05-02T15:50:43.941Z</time></trkpt><trkpt lat="44.4568334" lon="7.3717495"><ele>637.0</ele><time>2026-05-02T15:50:45.941Z</time></trkpt><trkpt lat="44.4568515" lon="7.371865"><ele>636.6666666666666</ele><time>2026-05-02T15:50:47.94Z</time></trkpt><trkpt lat="44.4568721" lon="7.3719832"><ele>636.3333333333334</ele><time>2026-05-02T15:50:49.939Z</time></trkpt><trkpt lat="44.4568639" lon="7.372091"><ele>636.0</ele><time>2026-05-02T15:50:51.94Z</time></trkpt><trkpt lat="44.45686" lon="7.3721805"><ele>635.5</ele><time>2026-05-02T15:50:53.94Z</time></trkpt><trkpt lat="44.4568691" lon="7.3722692"><ele>635.0</ele><time>2026-05-02T15:50:55.94Z</time></trkpt><trkpt lat="44.4568877" lon="7.3723744"><ele>634.5</ele><time>2026-05-02T15:50:57.94Z</time></trkpt><trkpt lat="44.4569082" lon="7.3725029"><ele>634.0</ele><time>2026-05-02T15:50:59.941Z</time></trkpt><trkpt lat="44.4569107" lon="7.3726356"><ele>633.5</ele><time>2026-05-02T15:51:01.94Z</time></trkpt><trkpt lat="44.4569094" lon="7.3727633"><ele>633.0</ele><time>2026-05-02T15:51:03.939Z</time></trkpt><trkpt lat="44.456894" lon="7.3728858"><ele>633.0</ele><time>2026-05-02T15:51:05.94Z</time></trkpt><trkpt lat="44.4568922" lon="7.3729965"><ele>633.0</ele><time>2026-05-02T15:51:07.941Z</time></trkpt><trkpt lat="44.4568826" lon="7.3731069"><ele>633.0</ele><time>2026-05-02T15:51:09.939Z</time></trkpt><trkpt lat="44.4568629" lon="7.3732182"><ele>633.0</ele><time>2026-05-02T15:51:11.94Z</time></trkpt><trkpt lat="44.4568288" lon="7.3733223"><ele>633.0</ele><time>2026-05-02T15:51:13.94Z</time></trkpt><trkpt lat="44.456798" lon="7.3734307"><ele>633.0</ele><time>2026-05-02T15:51:15.938Z</time></trkpt><trkpt lat="44.4567598" lon="7.3735487"><ele>631.8</ele><time>2026-05-02T15:51:17.94Z</time></trkpt><trkpt lat="44.4567443" lon="7.3736748"><ele>630.5999999999999</ele><time>2026-05-02T15:51:19.94Z</time></trkpt><trkpt lat="44.4567263" lon="7.3738043"><ele>629.4000000000001</ele><time>2026-05-02T15:51:21.939Z</time></trkpt><trkpt lat="44.4566918" lon="7.3739436"><ele>628.2</ele><time>2026-05-02T15:51:23.939Z</time></trkpt><trkpt lat="44.4566494" lon="7.3740741"><ele>627.0</ele><time>2026-05-02T15:51:25.94Z</time></trkpt><trkpt lat="44.4565922" lon="7.3741753"><ele>626.0</ele><time>2026-05-02T15:51:27.941Z</time></trkpt><trkpt lat="44.4565518" lon="7.3742477"><ele>625.0</ele><time>2026-05-02T15:51:29.94Z</time></trkpt><trkpt lat="44.4565614" lon="7.3743362"><ele>624.0</ele><time>2026-05-02T15:51:32.94Z</time></trkpt><trkpt lat="44.4566306" lon="7.3743682"><ele>623.0</ele><time>2026-05-02T15:51:35.94Z</time></trkpt><trkpt lat="44.4567121" lon="7.3743518"><ele>622.0</ele><time>2026-05-02T15:51:38.94Z</time></trkpt><trkpt lat="44.4567997" lon="7.3743482"><ele>621.0</ele><time>2026-05-02T15:51:41.94Z</time></trkpt><trkpt lat="44.4568941" lon="7.3743356"><ele>621.0</ele><time>2026-05-02T15:51:44.94Z</time></trkpt><trkpt lat="44.4569661" lon="7.3743168"><ele>621.0</ele><time>2026-05-02T15:51:46.941Z</time></trkpt><trkpt lat="44.4570464" lon="7.3743047"><ele>621.0</ele><time>2026-05-02T15:51:48.94Z</time></trkpt><trkpt lat="44.4571369" lon="7.3742926"><ele>621.0</ele><time>2026-05-02T15:51:50.941Z</time></trkpt><trkpt lat="44.4572293" lon="7.3742719"><ele>621.0</ele><time>2026-05-02T15:51:52.94Z</time></trkpt><trkpt lat="44.4573184" lon="7.3742584"><ele>621.0</ele><time>2026-05-02T15:51:54.94Z</time></trkpt><trkpt lat="44.4574069" lon="7.3742463"><ele>620.1666666666666</ele><time>2026-05-02T15:51:56.94Z</time></trkpt><trkpt lat="44.4574957" lon="7.374236"><ele>619.3333333333334</ele><time>2026-05-02T15:51:58.94Z</time></trkpt><trkpt lat="44.4575833" lon="7.3742221"><ele>618.5</ele><time>2026-05-02T15:52:00.941Z</time></trkpt><trkpt lat="44.4576692" lon="7.3742236"><ele>617.6666666666667</ele><time>2026-05-02T15:52:02.94Z</time></trkpt><trkpt lat="44.4577516" lon="7.3742192"><ele>616.8333333333334</ele><time>2026-05-02T15:52:04.939Z</time></trkpt><trkpt lat="44.4578279" lon="7.3741875"><ele>616.0</ele><time>2026-05-02T15:52:07.941Z</time></trkpt><trkpt lat="44.457811" lon="7.3740969"><ele>616.0</ele><time>2026-05-02T15:52:42.941Z</time></trkpt><trkpt lat="44.4577998" lon="7.373993"><ele>616.0</ele><time>2026-05-02T15:52:45.94Z</time></trkpt><trkpt lat="44.4578423" lon="7.3739254"><ele>616.0</ele><time>2026-05-02T15:52:49.94Z</time></trkpt></trkseg></trk></gpx>